[[{"header":{"parameterUnit":"m.s-1","parameterCategory":1,"la1":31.0,"la2":29.5877,"lo1":-88.7671,"lo2":-86.6584,"dy":0.0162,"dx":0.0185,"nx":115,"ny":88,"refTime":"2026-04-09T18:00:00:Z","depth":0,"parameterNumber":2,"parameterNumberName":"U-component_of_WINDS"},"data":[0.0,0.0,0.0,0.0,0.0,0.0,0.0,0.0,0.0,0.0,0.0,0.0,0.0,0.0,0.0,0.0,0.0,0.0,0.0,0.0,0.0,0.0,0.0,0.0,0.0,0.0,0.0,0.0,0.0,0.0,0.0,0.0,0.0,0.0,0.0,0.0,0.0,0.0,0.0,0.0,0.0,0.0,0.0,0.0,0.0,0.0,0.0,0.0,0.0,0.0,0.0,0.0,0.0,0.0,0.0,0.0,0.0,0.0,0.0,0.0,0.0,0.0,0.0,0.0,0.0,0.0,0.0,0.0,0.0,0.0,0.0,0.0,0.0,0.0,0.0,0.0,0.0,0.0,0.0,0.0,0.0,0.0,0.0,0.0,0.0,0.0,0.0,0.0,0.0,0.0,0.0,0.0,0.0,0.0,0.0,0.0,0.0,0.0,0.0,0.0,0.0,0.0,0.0,0.0,0.0,0.0,0.0,0.0,0.0,0.0,0.0,0.0,0.0,0.0,0.0,0.0,0.0,0.0,0.0,0.0,0.0,0.0,0.0,0.0,0.0,0.0,0.0,0.0,0.0,0.0,0.0,0.0,0.0,0.0,0.0,0.0,0.0,0.0,0.0,0.0,0.0,0.0,0.0,0.0,0.0,0.0,0.0,0.0,0.0,0.0,0.0,0.0,0.0,0.0,0.0,0.0,0.0,0.0,0.0,0.0,0.0,0.0,0.0,0.0,0.0,0.0,0.0,0.0,0.0,0.0,0.0,0.0,0.0,0.0,0.0,0.0,0.0,0.0,0.0,0.0,0.0,0.0,0.0,0.0,0.0,0.0,0.0,0.0,0.0,0.0,0.0,0.0,0.0,0.0,0.0,0.0,0.0,0.0,0.0,0.0,0.0,0.0,0.0,0.0,0.0,0.0,0.0,0.0,0.0,0.0,0.0,0.0,0.0,0.0,0.0,0.0,0.0,0.0,0.0,0.0,0.0,0.0,0.0,0.0,0.0,0.0,0.0,0.0,0.0,0.0,0.0,0.0,0.0,0.0,0.0,0.0,0.0,0.0,0.0,0.0,0.0,0.0,0.0,0.0,0.0,0.0,0.0,0.0,0.0,0.0,0.0,0.0,0.0,0.0,0.0,0.0,0.0,0.0,0.0,0.0,0.0,0.0,0.0,0.0,0.0,0.0,0.0,0.0,0.0,0.0,0.0,0.0,0.0,0.0,0.0,0.0,0.0,0.0,0.0,0.0,0.0,0.0,0.0,0.0,0.0,0.0,0.0,0.0,0.0,0.0,0.0,0.0,0.0,0.0,0.0,0.0,0.0,0.0,0.0,0.0,0.0,0.0,0.0,0.0,0.0,0.0,0.0,0.0,0.0,0.0,0.0,0.0,0.0,0.0,0.0,0.0,0.0,0.0,0.0,0.0,0.0,0.0,0.0,0.0,0.0,0.0,0.0,0.0,0.0,0.0,0.0,0.0,0.0,0.0,0.0,0.0,0.0,0.0,0.0,0.0,0.0,0.0,0.0,0.0,0.0,0.0,0.0,0.0,0.0,0.0,0.0,0.0,0.0,0.0,0.0,0.0,0.0,0.0,0.0,0.0,0.0,0.0,0.0,0.0,0.0,0.0,0.0,0.0,0.0,0.0,0.0,0.0,0.0,0.0,0.0,0.0,0.0,0.0,0.0,0.0,0.0,0.0,0.0,0.0,0.0,0.0,0.0,0.0,0.0,0.0,0.0,0.0,0.0,0.0,0.0,0.0,0.0,0.0,0.0,0.0,0.0,0.0,0.0,0.0,0.0,0.0,0.0,0.0,0.0,0.0,0.0,0.0,0.0,0.0,0.0,0.0,0.0,0.0,0.0,0.0,0.0,0.0,0.0,0.0,0.0,0.0,0.0,0.0,0.0,0.0,0.0,0.0,0.0,0.0,0.0,0.0,0.0,0.0,0.0,0.0,0.0,0.0,0.0,0.0,0.0,0.0,0.0,0.0,0.0,0.0,0.0,0.0,0.0,0.0,0.0,0.0,0.0,0.0,0.0,0.0,0.0,0.0,0.0,0.0,0.0,0.0,0.0,0.0,0.0,0.0,0.0,0.0,0.0,0.0,0.0,0.0,0.0,0.0,0.0,0.0,0.0,0.0,0.0,0.0,0.0,0.0,0.0,0.0,0.0,0.0,0.0,0.0,0.0,0.0,0.0,0.0,0.0,0.0,0.0,0.0,0.0,0.0,0.0,0.0,0.0,0.0,0.0,0.0,0.0,0.0,0.0,0.0,0.0,0.0,0.0,0.0,0.0,0.0,0.0,0.0,0.0,0.0,0.0,0.0,0.0,0.0,0.0,0.0,0.0,0.0,0.0,0.0,0.0,0.0,0.0,0.0,0.0,0.0,0.0,0.0,0.0,0.0,0.0,0.0,0.0,0.0,0.0,0.0,0.0,0.0,0.0,0.0,0.0,0.0,0.0,0.0,0.0,0.0,0.0,0.0,0.0,0.0,0.0,0.0,0.0,0.0,0.0,0.0,0.0,0.0,0.0,0.0,0.0,0.0,0.0,0.0,0.0,0.0,0.0,0.0,0.0,0.0,0.0,0.0,0.0,0.0,0.0,0.0,0.0,0.0,0.0,0.0,0.0,0.0,0.0,0.0,0.0,0.0,0.0,0.0,0.0,0.0,0.0,0.0,0.0,0.0,0.0,0.0,0.0,0.0,0.0,0.0,0.0,0.0,0.0,0.0,0.0,0.0,0.0,0.0,0.0,0.0,0.0,0.0,0.0,0.0,0.0,0.0,0.0,0.0,0.0,0.0,0.0,0.0,0.0,0.0,0.0,0.0,0.0,0.0,0.0,0.0,0.0,0.0,0.0,0.0,0.0,0.0,0.0,0.0,0.0,0.0,0.0,0.0,0.0,0.0,0.0,0.0,0.0,0.0,0.0,0.0,0.0,0.0,0.0,0.0,0.0,0.0,0.0,0.0,0.0,0.0,0.0,0.0,0.0,0.0,0.0,0.0,0.0,0.0,0.0,0.0,0.0,0.0,0.0,0.0,0.0,0.0,0.0,0.0,0.0,0.0,0.0,0.0,0.0,0.0,0.0,0.0,0.0,0.0,0.0,0.0,0.0,0.0,0.0,0.0,0.0,0.0,0.0,0.0,0.0,0.0,0.0,0.0,0.0,0.0,0.0,0.0,0.0,0.0,0.0,0.0,0.0,0.0,0.0,0.0,0.0,0.0,0.0,0.0,0.0,0.0,0.0,0.0,0.0,0.0,0.0,0.0,0.0,0.0,0.0,0.0,0.0,0.0,0.0,0.0,0.0,0.0,0.0,0.0,0.0,0.0,0.0,0.0,0.0,0.0,0.0,0.0,0.0,0.0,0.0,0.0,0.0,0.0,0.0,0.0,0.0,0.0,0.0,0.0,0.0,0.0,0.0,0.0,0.0,0.0,0.0,0.0,0.0,0.0,0.0,0.0,0.0,0.0,0.0,0.0,0.0,0.0,0.0,0.0,0.0,0.0,0.0,0.0,0.0,0.0,0.0,0.0,0.0,0.0,0.0,0.0,0.0,0.0,0.0,0.0,0.0,0.0,0.0,0.0,0.0,0.0,0.0,0.0,0.0,0.0,0.0,0.0,0.0,0.0,0.0,0.0,0.0,0.0,0.0,0.0,0.0,0.0,0.0,0.0,0.0,0.0,0.0,0.0,0.0,0.0,0.0,0.0,0.0,0.0,0.0,0.0,0.0,0.0,0.0,0.0,0.0,0.0,0.0,0.0,0.0,0.0,0.0,0.0,0.0,0.0,0.0,0.0,0.0,0.0,0.0,0.0,0.0,0.0,0.0,0.0,0.0,0.0,0.0,0.0,0.0,0.0,0.0,0.0,0.0,0.0,0.0,0.0,0.0,0.0,0.0,0.0,0.0,0.0,0.0,0.0,0.0,0.0,0.0,0.0,0.0,0.0,0.0,0.0,0.0,0.0,0.0,0.0,0.0,0.0,0.0,0.0,0.0,0.0,0.0,0.0,0.0,0.0,0.0,0.0,0.0,0.0,0.0,0.0,0.0,0.0,0.0,0.0,0.0,0.0,0.0,0.0,0.0,0.0,0.0,0.0,0.0,0.0,0.0,0.0,0.0,0.0,0.0,0.0,0.0,0.0,0.0,0.0,0.0,0.0,0.0,0.0,0.0,0.0,0.0,0.0,0.0,0.0,0.0,0.0,0.0,0.0,0.0,0.0,0.0,0.0,0.0,0.0,0.0,0.0,0.0,0.0,0.0,0.0,0.0,0.0,0.8829,0.0,0.0,0.0,0.0,0.0,0.0,0.0,0.0,0.0,0.0,0.0,0.0,0.0,0.0,0.0,0.0,0.0,0.0,0.0,0.0,0.0,0.0,0.0,0.0,0.0,0.0,0.0,0.0,0.0,0.0,0.0,0.0,0.0,0.0,0.0,0.0,0.0,0.0,0.0,0.0,0.0,0.0,0.0,0.0,0.0,0.0,0.0,0.0,0.0,0.0,0.0,0.0,0.0,0.0,0.0,0.0,0.0,0.0,0.0,0.0,0.0,0.0,0.0,0.0,0.0,0.0,0.0,0.0,0.0,0.0,0.0,0.0,0.0,0.0,0.0,0.0,0.0,0.0,0.0,0.0,0.0,0.0,0.0,0.0,0.0,0.0,0.0,0.0,0.0,0.0,0.0,0.0,0.0,0.0,0.0,0.0,0.0,0.0,0.0,0.0,0.0,0.0,0.0,0.0,0.0,0.0,0.0,0.0,0.0,0.0,0.9052,0.8996,0.8908,0.88,0.8719,0.0,0.0,0.0,0.0,0.0,0.0,0.0,0.0,0.0,0.0,0.0,0.0,0.0,0.0,0.0,0.0,0.0,0.0,0.0,0.0,0.0,0.0,0.0,0.0,0.0,0.0,0.0,0.0,0.0,0.0,0.0,0.0,0.0,0.0,0.0,0.0,0.0,0.0,0.0,0.0,0.0,0.0,0.0,0.0,0.0,0.0,0.0,0.0,0.0,0.0,0.0,0.0,0.0,0.0,0.0,0.0,0.0,0.0,0.0,0.0,0.0,0.0,0.0,0.0,0.0,0.0,0.0,0.0,0.0,0.0,0.0,0.0,0.0,0.0,0.0,0.0,0.0,0.0,0.0,0.0,0.0,0.0,0.0,0.0,0.0,0.0,0.0,0.0,0.0,0.0,0.0,0.0,0.0,0.0,0.0,0.0,0.0,0.0,0.0,0.0,0.0,0.0,0.0,0.0,0.0,0.0,0.0,0.0,0.0,0.0,0.0,0.0,0.9114,0.9099,0.9098,0.0,0.0,0.0,0.0,0.0,0.0,0.0,0.0,0.0,0.0,0.0,0.0,0.0,0.0,0.0,0.0,0.0,0.0,0.0,0.0,0.0,0.0,0.0,0.0,0.0,0.0,0.0,0.0,0.0,0.0,0.0,0.0,0.0,0.0,0.0,0.0,0.0,0.0,0.0,0.0,0.0,0.0,0.0,0.0,0.0,0.0,0.0,0.0,0.0,0.0,0.0,0.0,0.0,0.0,0.0,0.0,0.0,0.0,0.0,0.0,0.0,0.0,0.0,0.0,0.0,0.0,0.0,0.0,0.0,0.0,0.0,0.0,0.0,0.0,0.0,0.0,0.0,0.0,0.0,0.0,0.0,0.0,0.0,0.0,0.0,0.0,0.0,0.0,0.0,0.0,0.0,0.0,0.0,0.0,0.0,0.0,0.0,0.0,0.0,0.0,0.0,0.0,0.0,0.0,0.0,0.0,0.0,0.0,0.0,0.0,0.9427,1.0062,1.001,0.0,1.0472,0.0,0.0,0.0,0.0,0.0,0.0,0.0,0.0,0.0,0.0,0.0,0.0,0.0,0.0,0.0,0.0,0.0,0.0,0.0,0.0,0.0,0.0,0.0,0.0,0.0,0.0,0.0,0.0,0.0,0.0,0.0,0.0,0.0,0.0,0.0,0.0,0.0,0.0,0.0,0.0,0.0,0.0,0.0,0.0,0.0,0.0,0.0,0.0,0.0,0.0,0.0,0.0,0.0,0.0,0.0,0.0,0.0,0.0,0.0,0.0,0.0,0.0,0.0,0.0,0.0,0.0,0.0,0.0,0.0,0.0,0.0,0.0,0.0,0.0,0.0,0.0,0.0,0.0,0.0,0.0,0.0,0.0,0.0,0.0,0.0,0.0,0.0,0.0,0.0,0.0,0.0,0.0,0.0,0.0,0.0,0.0,0.0,0.0,0.0,0.0,0.0,0.0,0.0,0.0,0.0,0.0,0.0,0.0,0.0,0.0,0.0,1.0134,0.9982,1.0154,0.0,0.0,0.0,0.0,0.0,0.0,0.0,0.0,0.0,0.0,0.0,0.0,0.0,0.0,0.0,0.0,0.0,0.0,0.0,0.0,0.0,0.0,0.0,0.0,0.0,0.0,0.0,0.0,0.0,0.0,0.0,0.0,0.0,0.0,0.0,0.0,0.0,0.0,0.0,0.0,0.0,0.0,0.0,0.0,0.0,0.0,0.0,0.0,0.0,0.0,0.0,0.0,0.0,0.0,0.0,0.0,0.0,0.0,0.0,0.0,0.0,0.0,0.0,0.0,0.0,0.0,0.0,0.0,0.0,0.0,0.0,0.0,0.0,0.0,0.0,0.0,0.0,0.0,0.0,0.0,0.0,0.0,0.0,0.0,0.0,0.0,0.0,0.0,0.0,0.0,0.0,0.0,0.0,0.0,0.0,0.0,0.0,0.0,0.0,0.0,0.0,0.0,0.0,0.0,0.0,0.0,0.0,0.0,0.0,0.0,1.0094,0.0,1.042,1.0212,1.0238,1.0447,0.0,0.0,0.0,0.0,0.0,0.0,0.0,0.0,0.0,0.0,0.0,0.0,0.0,0.0,0.0,0.0,0.0,0.0,0.0,0.0,0.0,0.0,0.0,0.0,0.0,0.0,0.0,0.0,0.0,0.0,0.0,0.0,0.0,0.0,0.0,0.0,0.0,0.0,0.0,0.0,0.0,0.0,0.0,0.0,0.0,0.0,0.0,0.0,0.0,0.0,0.0,0.0,0.0,0.0,0.0,0.0,0.0,0.0,0.0,0.0,0.0,0.0,0.0,0.0,0.0,0.0,0.0,0.0,0.0,0.0,0.0,0.0,0.0,0.0,0.0,0.0,0.0,0.0,0.0,0.0,0.0,0.0,0.0,0.0,0.0,0.0,0.0,0.0,0.0,0.0,0.0,0.0,0.0,0.0,0.0,0.0,0.0,0.0,0.0,0.0,0.0,0.0,0.0,0.0,0.0,0.0,0.0,0.0,0.0,1.0566,1.0563,1.1291,1.1034,1.0507,0.0,0.0,0.0,0.0,0.0,0.0,0.0,0.0,0.0,0.0,0.0,0.0,0.0,0.0,0.0,0.0,0.0,0.0,0.0,0.0,0.0,0.0,0.0,0.0,0.0,0.0,0.0,0.0,0.0,0.0,0.0,0.0,0.0,0.0,0.0,0.0,0.0,0.0,0.0,0.0,0.0,0.0,0.0,0.0,0.0,0.0,0.0,0.0,0.0,0.0,0.0,0.0,0.0,0.0,0.0,0.0,0.0,0.0,0.0,0.0,0.0,0.0,0.0,0.0,0.0,0.0,0.0,0.0,0.0,0.0,0.0,0.0,0.0,0.0,0.0,0.0,0.0,0.0,0.0,0.0,0.0,0.0,0.0,0.0,0.0,0.0,0.0,0.0,0.0,0.0,0.0,0.0,0.0,0.0,0.0,0.0,0.0,0.0,0.0,0.0,0.0,0.0,0.0,0.0,0.0,0.0,0.0,0.0,0.0,0.989,1.008,1.0808,1.1982,1.091,1.0336,0.0,0.0,0.0,0.0,0.0,0.0,0.0,0.0,0.0,0.0,0.0,0.0,0.0,0.0,0.0,0.0,0.0,0.0,0.0,0.0,0.0,0.0,0.0,0.0,0.0,0.0,0.0,0.0,0.0,0.0,0.0,0.0,0.0,0.0,0.0,0.0,0.0,0.0,0.0,0.0,0.0,0.0,0.0,0.0,0.0,0.0,0.0,0.0,0.0,0.0,0.0,0.0,0.0,0.0,0.0,0.0,0.0,0.0,0.0,0.0,0.0,0.0,0.0,0.0,0.0,0.0,0.0,0.0,0.0,0.0,0.0,0.0,0.0,0.0,0.0,0.0,0.0,0.0,0.0,0.0,0.0,0.0,0.0,0.0,0.0,0.0,0.0,0.0,0.0,0.0,0.0,0.0,0.0,0.0,0.0,0.0,0.0,0.0,0.0,0.0,0.0,0.0,0.0,0.0,0.0,0.0,0.0,0.0,0.0,0.985,0.0,1.1326,0.0,1.0927,1.0246,0.0,0.0,0.0,0.0,0.0,0.0,0.0,0.0,0.0,0.0,0.0,0.0,0.0,0.0,0.0,0.0,0.0,0.0,0.0,0.0,0.0,0.0,0.0,0.0,0.0,0.0,0.0,0.0,0.0,0.0,0.0,0.0,0.0,0.0,0.0,0.0,0.0,0.0,0.0,0.0,0.0,0.0,0.0,0.0,0.0,0.0,0.0,0.0,0.0,0.0,0.0,0.0,0.0,0.0,0.0,0.0,0.0,0.0,0.0,0.0,0.0,0.0,0.0,0.0,0.0,0.0,0.0,0.0,0.0,0.0,0.0,0.0,0.0,0.0,0.0,0.0,0.0,0.0,0.0,0.0,0.0,0.0,0.0,0.0,0.0,0.0,0.0,0.0,0.0,0.0,0.0,0.0,0.0,0.0,0.0,0.0,0.0,0.0,0.0,0.0,0.0,0.0,0.0,0.0,0.0,0.0,0.0,0.0,0.0,1.1342,1.2058,1.2127,1.1474,1.1181,1.0292,0.0,0.0,0.0,0.0,0.0,0.0,0.0,0.0,0.0,0.0,0.0,0.0,0.0,0.0,0.0,0.0,0.0,0.0,0.0,0.0,0.0,0.0,0.0,0.0,0.0,0.0,0.0,0.0,0.0,0.0,0.0,0.0,0.0,0.0,0.0,0.0,0.0,0.0,0.0,0.0,0.0,0.0,0.0,0.0,0.0,0.0,0.0,0.0,0.0,0.0,0.0,0.0,0.0,0.0,0.0,0.0,0.0,0.0,0.0,0.0,0.0,0.0,0.0,0.0,0.0,0.0,0.0,0.0,0.0,0.0,0.0,0.0,0.0,0.0,0.0,0.0,0.0,0.0,0.0,0.0,0.0,0.0,0.0,0.0,0.0,0.0,0.0,0.0,0.0,0.0,0.0,0.0,0.0,0.0,0.0,0.0,0.0,0.0,0.0,0.0,0.0,0.0,0.0,0.0,0.0,0.0,0.0,0.0,0.0,1.1443,1.213,1.2642,1.2845,1.1666,1.1243,0.0,0.0,0.0,0.0,0.0,0.0,0.0,0.0,0.0,0.0,0.0,0.0,0.0,0.0,0.0,0.0,0.0,0.0,0.0,0.0,0.0,0.0,0.0,0.0,0.0,0.0,0.0,0.0,0.0,0.0,0.0,0.0,0.0,0.0,0.0,0.0,0.0,0.0,0.0,0.0,0.0,0.0,0.0,0.0,0.0,0.0,0.0,0.0,0.0,0.0,0.0,0.0,0.0,0.0,0.0,0.0,0.0,0.0,0.0,0.0,0.0,0.0,0.0,0.0,0.0,0.0,0.0,0.0,0.0,0.0,0.0,0.0,0.0,0.0,0.0,0.0,0.0,0.0,0.0,0.0,0.0,0.0,0.0,0.0,0.0,0.0,0.0,0.0,0.0,0.0,0.0,0.0,0.0,0.0,0.0,0.0,0.0,0.0,0.0,0.0,0.0,0.0,0.0,0.0,0.0,0.0,0.0,0.0,0.0,1.3528,1.3662,1.3669,1.3522,1.2465,1.1967,1.2232,0.0,0.0,0.0,0.0,0.0,0.0,0.0,0.0,0.0,0.0,0.0,0.0,0.0,0.0,0.0,0.0,0.0,0.0,0.0,0.0,0.0,0.0,0.0,0.0,0.0,0.0,0.0,0.0,0.0,0.0,0.0,0.0,0.0,0.0,0.0,0.0,0.0,0.0,0.0,0.0,0.0,0.0,0.0,0.0,0.0,0.0,0.0,0.0,0.0,0.0,0.0,0.0,0.0,0.0,0.0,0.0,0.0,0.0,0.0,0.0,0.0,0.0,0.0,0.0,0.0,0.0,0.0,0.0,0.0,0.0,0.0,0.0,0.0,0.0,0.0,0.0,0.0,0.0,0.0,0.0,0.0,0.0,0.0,0.0,0.0,0.0,0.0,0.0,0.0,0.0,0.0,0.0,0.0,0.0,0.0,0.0,0.0,0.0,0.0,0.0,0.0,0.0,0.0,0.0,0.0,0.0,0.0,0.0,1.6979,1.6428,1.5366,1.3748,1.3481,1.2611,0.0,0.0,0.0,0.0,0.0,0.0,0.0,0.0,0.0,0.0,0.0,0.0,0.0,0.0,0.0,0.0,0.0,0.0,0.0,0.0,0.0,0.0,0.0,0.0,0.0,0.0,0.0,0.0,0.0,0.0,0.0,0.0,0.0,0.0,0.0,0.0,0.0,0.0,0.0,0.0,0.0,0.0,0.0,0.0,0.0,0.0,0.0,0.0,0.0,0.0,0.0,0.0,0.0,0.0,0.0,0.0,0.0,0.0,0.0,0.0,0.0,0.0,0.0,0.0,0.0,0.0,0.0,0.0,0.0,0.0,0.0,0.0,0.0,0.0,0.0,0.0,0.0,0.0,0.0,0.0,0.0,0.0,0.0,0.0,0.0,0.0,0.0,0.0,0.0,0.0,0.0,0.0,0.0,0.0,0.0,0.0,0.0,0.0,0.0,0.0,0.0,0.0,0.0,0.0,0.0,0.0,0.0,0.0,0.0,1.7013,1.8465,1.8356,1.6612,1.4934,1.3942,0.0,0.0,0.0,0.0,0.0,0.0,0.0,0.0,0.0,0.0,0.0,0.0,0.0,0.0,0.0,0.0,0.0,0.0,0.0,0.0,0.0,0.0,0.0,0.0,0.0,0.0,0.0,0.0,0.0,0.0,0.0,0.0,0.0,0.0,0.0,0.0,0.0,0.0,0.0,0.0,0.0,0.0,0.0,0.0,0.0,0.0,0.0,0.0,0.0,0.0,0.0,0.0,0.0,0.0,0.0,0.0,0.0,0.0,0.0,0.0,0.0,0.0,0.0,0.0,0.0,0.0,0.0,0.0,0.0,0.0,0.0,0.0,0.0,0.0,0.0,0.0,0.0,0.0,0.0,0.0,0.0,0.0,0.0,0.0,0.0,0.0,0.0,0.0,0.0,0.0,0.0,0.0,0.0,0.0,0.0,0.0,0.0,0.0,0.0,0.0,0.0,0.0,0.0,0.0,0.0,0.0,0.0,0.0,1.7461,1.8431,1.9705,1.9946,1.8997,1.7103,1.5495,0.0,0.0,0.0,0.0,0.0,0.0,0.0,0.0,0.0,0.0,0.0,0.0,0.0,0.0,0.0,0.0,0.0,0.0,0.0,0.0,0.0,0.0,0.0,0.0,0.0,0.0,0.0,0.0,0.0,0.0,0.0,0.0,0.0,0.0,0.0,0.0,0.0,0.0,0.0,0.0,0.0,0.0,0.0,0.0,0.0,0.0,0.0,0.0,0.0,0.0,0.0,0.0,0.0,0.0,0.0,0.0,0.0,0.0,0.0,0.0,0.0,0.0,0.0,0.0,0.0,0.0,0.0,0.0,0.0,0.0,0.0,0.0,0.0,0.0,0.0,0.0,0.0,0.0,0.0,0.0,0.0,0.0,0.0,0.0,0.0,0.0,0.0,0.0,0.0,0.0,0.0,0.0,0.0,0.0,0.0,0.0,0.0,0.0,0.0,0.0,0.0,0.0,0.0,0.0,0.0,0.0,0.0,0.0,1.8253,2.0325,2.0567,2.0635,2.0648,1.918,1.697,0.0,0.0,0.0,0.0,0.0,0.0,0.0,0.0,0.0,0.0,0.0,0.0,0.0,0.0,0.0,0.0,0.0,0.0,0.0,0.0,0.0,0.0,0.0,0.0,0.0,0.0,0.0,0.0,0.0,0.0,0.0,0.0,0.0,0.0,0.0,0.0,0.0,0.0,0.0,0.0,0.0,0.0,0.0,0.0,0.0,0.0,0.0,0.0,0.0,0.0,0.0,0.0,0.0,0.0,0.0,0.0,0.0,0.0,0.0,0.0,0.0,0.0,0.0,0.0,0.0,0.0,0.0,0.0,0.0,0.0,0.0,0.0,0.0,0.0,0.0,0.0,0.0,0.0,0.0,0.0,0.0,0.0,0.0,0.0,0.0,0.0,0.0,0.0,0.0,0.0,0.0,0.0,0.0,0.0,0.0,0.0,0.0,0.0,0.0,0.0,0.0,0.0,0.0,0.0,0.0,0.0,0.0,0.0,1.9326,2.0394,2.1572,2.169,2.065,1.8664,1.6842,0.0,0.0,0.0,0.0,0.0,0.0,0.0,0.0,0.0,0.0,0.0,0.0,0.0,0.0,0.0,0.0,0.0,0.0,0.0,0.0,0.0,0.0,0.0,0.0,0.0,0.0,0.0,0.0,0.0,0.0,0.0,0.0,0.0,0.0,0.0,0.0,0.0,0.0,0.0,0.0,0.0,0.0,0.0,0.0,0.0,0.0,0.0,0.0,1.059,0.0,0.0,0.0,0.0,0.0,0.0,0.0,0.0,0.0,0.0,0.0,0.0,0.0,0.0,0.0,0.0,0.0,0.0,0.0,0.0,0.0,0.0,0.0,0.0,0.0,0.0,0.0,0.0,0.0,0.0,0.0,0.0,0.0,0.0,0.0,0.0,0.0,0.0,0.0,0.0,0.0,0.0,0.0,0.0,0.0,0.0,0.0,0.0,0.0,0.0,0.0,0.0,0.0,0.0,0.0,0.0,0.0,0.0,0.0,1.982,2.0958,2.2095,2.2221,2.1199,1.9663,1.7811,0.0,0.0,0.0,0.0,0.0,0.0,0.0,0.0,0.0,0.0,0.0,0.0,0.0,0.0,0.0,0.0,0.0,0.0,0.0,0.0,0.0,0.0,0.0,0.0,0.0,0.0,0.0,0.0,0.0,0.0,0.0,0.0,0.0,0.0,0.0,0.0,0.0,0.0,0.0,0.0,0.0,0.0,0.0,0.0,0.0,0.0,0.0,0.0,0.0,0.0,0.0,0.0,0.0,0.0,0.0,0.0,0.0,0.0,0.0,0.0,0.0,0.0,0.0,0.0,0.0,0.0,0.0,0.0,0.0,0.0,0.0,0.0,0.0,0.0,0.0,0.0,0.0,0.0,0.0,0.0,0.0,0.0,0.0,0.0,0.0,0.0,0.0,0.0,0.0,0.0,0.0,0.0,0.0,0.0,0.0,0.0,0.0,0.0,0.0,0.0,0.0,0.0,0.0,0.0,0.0,0.0,0.0,1.8333,2.0096,2.1716,2.2378,2.2433,2.1853,2.0949,1.8919,1.5685,0.0,0.0,0.0,0.0,0.0,0.0,0.0,0.0,0.0,0.0,0.0,0.0,0.0,0.0,0.0,0.0,0.0,0.0,0.0,0.0,0.0,0.0,0.0,0.0,0.0,0.0,0.0,0.0,0.0,0.0,0.0,0.0,0.0,0.0,0.0,0.0,0.0,0.0,1.1016,1.2053,0.0,0.0,0.0,0.0,0.0,0.0,0.0,0.0,1.1745,0.0,0.0,0.0,0.0,0.0,0.0,0.0,0.0,0.0,0.0,0.0,0.0,0.0,0.0,0.0,0.0,0.0,0.0,0.0,0.0,0.0,0.0,0.0,0.0,0.0,0.0,0.0,0.0,0.0,0.0,0.0,0.0,0.0,0.0,0.0,0.0,0.0,0.0,0.0,0.0,0.0,0.0,0.0,0.0,0.0,0.0,0.0,0.0,0.0,0.0,0.0,0.0,0.0,0.0,0.0,0.0,1.8672,1.9125,2.0331,2.2433,2.2647,2.2323,2.1574,2.0887,1.9129,1.6274,0.0,0.0,0.0,0.0,0.0,0.0,0.0,0.0,0.0,0.0,0.0,0.0,0.0,0.0,0.0,0.0,0.0,0.0,0.0,0.0,0.0,0.0,0.0,0.0,0.0,0.0,0.0,0.0,0.0,0.0,0.0,0.0,0.0,0.0,0.0,0.0,0.0,0.0,0.0,1.3446,1.4214,0.0,0.0,0.0,0.0,0.0,0.0,0.0,0.0,1.1446,0.0,0.0,0.0,0.0,0.0,0.0,0.0,0.0,0.0,0.0,0.0,0.0,0.0,0.0,0.0,0.0,0.0,0.0,0.0,0.0,0.0,0.0,0.0,0.0,0.0,0.0,0.0,0.0,0.0,0.0,0.0,0.0,0.0,0.0,0.0,0.0,0.0,0.0,0.0,0.0,0.0,0.0,0.0,0.0,0.0,0.0,0.0,0.0,0.0,0.0,0.0,0.0,0.0,0.0,0.0,1.8574,1.947,2.0761,2.2566,2.2656,2.2378,2.1753,2.0576,1.8875,0.0,0.0,0.0,0.0,0.0,0.0,0.0,0.0,0.0,0.0,0.0,0.0,0.0,0.0,0.0,0.0,0.0,0.0,0.0,0.0,0.0,0.0,0.0,0.0,0.0,0.0,0.0,0.0,0.0,0.0,0.0,0.0,0.0,0.0,0.0,0.0,0.0,0.0,0.0,0.0,1.4418,1.5081,1.5734,0.0,0.0,0.0,0.0,0.0,0.0,1.264,1.2505,0.0,0.0,0.0,0.0,0.0,0.0,0.0,0.0,0.0,0.0,0.0,0.0,0.0,0.0,0.0,0.0,0.0,0.0,0.0,0.0,0.0,0.0,0.0,0.0,0.0,0.0,0.0,0.0,0.0,0.0,0.0,0.0,0.0,0.0,0.0,0.0,0.0,0.0,0.0,0.0,0.0,0.0,0.0,0.0,0.0,0.0,0.0,0.0,0.0,0.0,0.0,0.0,0.0,0.0,0.0,1.815,1.947,2.0919,2.2486,2.2589,2.2357,2.1863,2.0525,1.8864,0.0,0.0,0.0,0.0,0.0,0.0,0.0,0.0,0.0,0.0,0.0,0.0,0.0,0.0,0.0,0.0,0.0,0.0,0.0,0.0,0.0,0.0,0.0,0.0,0.0,0.0,0.0,0.0,0.0,0.0,0.0,0.0,0.0,0.0,0.0,0.0,0.0,0.0,0.0,0.0,0.0,1.6095,1.6891,1.6056,0.0,0.0,0.0,0.0,1.4154,1.4233,0.0,0.0,0.0,0.0,0.0,0.0,0.0,0.0,0.0,0.0,0.0,0.0,0.0,0.0,0.0,0.0,0.0,0.0,0.0,0.0,0.0,0.0,0.0,0.0,0.0,0.0,0.0,0.0,0.0,0.0,0.0,0.0,0.0,0.0,0.0,0.0,0.0,0.0,0.0,0.0,0.0,0.0,0.0,0.0,0.0,0.0,0.0,0.0,0.0,0.0,0.0,0.0,0.0,0.0,0.0,0.0,1.8035,1.8859,2.03,2.2378,2.2515,2.2182,2.1485,2.1286,1.9633,0.0,0.0,0.0,0.0,0.0,0.0,0.0,0.0,0.0,0.0,0.0,0.0,0.0,0.0,0.0,0.0,0.0,0.0,0.0,0.0,0.0,0.0,0.0,0.0,0.0,0.0,0.0,0.0,0.0,0.0,0.0,0.0,0.0,0.0,0.0,0.0,0.0,0.0,0.0,0.0,0.0,1.7785,1.6636,1.6254,1.6205,0.0,0.0,0.0,1.61,1.6119,0.0,0.0,0.0,0.0,0.0,0.0,0.0,0.0,0.0,0.0,0.0,0.0,0.0,0.0,0.0,0.0,0.0,0.0,0.0,0.0,0.0,0.0,0.0,0.0,0.0,0.0,0.0,0.0,0.0,0.0,0.0,0.0,0.0,0.0,0.0,0.0,0.0,0.0,0.0,0.0,0.0,0.0,0.0,0.0,0.0,0.0,0.0,0.0,0.0,0.0,0.0,0.0,0.0,0.0,0.0,1.616,1.8021,1.9138,2.0604,2.2371,2.2446,2.2168,2.1615,2.0671,1.9001,0.0,0.0,0.0,0.0,0.0,0.0,0.0,0.0,0.0,0.0,0.0,0.0,0.0,0.0,0.0,0.0,0.0,0.0,0.0,0.0,0.0,0.0,0.0,0.0,0.0,0.0,0.0,0.0,0.0,0.0,0.0,0.0,0.0,0.0,0.0,0.0,0.0,0.0,0.0,0.0,0.0,0.0,1.8384,1.8052,0.0,0.0,0.0,1.7843,1.7565,0.0,0.0,0.0,0.0,0.0,0.0,0.0,0.0,0.0,0.0,0.0,0.0,0.0,0.0,0.0,0.0,0.0,0.0,0.0,0.0,0.0,0.0,0.0,0.0,0.0,0.0,0.0,0.0,0.0,0.0,0.0,0.0,0.0,0.0,0.0,0.0,0.0,0.0,0.0,0.0,0.0,0.0,0.0,0.0,0.0,0.0,0.0,0.0,0.0,0.0,0.0,0.0,0.0,0.0,0.0,0.0,0.0,1.7755,1.9273,2.0763,2.2191,2.2328,2.2132,2.1675,2.0417,0.0,0.0,0.0,0.0,0.0,0.0,0.0,0.0,0.0,0.0,0.0,0.0,0.0,0.0,0.0,0.0,0.0,0.0,0.0,0.0,0.0,0.0,0.0,0.0,0.0,0.0,0.0,0.8298,0.0,0.0,0.0,0.0,0.0,0.0,0.0,0.0,0.0,0.0,0.0,0.0,0.0,0.0,1.9172,2.0077,1.9786,1.9659,0.0,0.0,1.9474,1.8786,1.9254,1.8693,0.0,0.0,0.0,0.0,0.0,0.0,0.0,0.0,0.0,0.0,0.0,0.0,0.0,0.0,0.0,0.0,0.0,0.0,0.0,0.0,0.0,0.0,0.0,0.0,0.0,0.0,0.0,0.0,0.0,0.0,0.0,0.0,0.0,0.0,0.0,0.0,0.0,0.0,0.0,0.0,0.0,0.0,0.0,0.0,0.0,0.0,0.0,0.0,0.0,0.0,0.0,0.0,0.0,0.0,0.0,1.7165,1.8798,2.0362,2.179,2.2152,2.1981,2.1354,2.1218,1.9622,0.0,0.0,0.0,0.0,0.0,0.0,0.0,0.0,0.0,0.0,0.0,0.0,0.0,0.0,0.0,0.0,0.0,0.0,0.0,0.0,0.0,0.0,0.0,0.0,0.0,0.0,0.0,0.0,0.0,0.0,0.0,0.0,0.0,0.0,0.0,0.0,0.0,0.0,0.0,0.0,0.0,2.0548,2.1026,2.087,2.1054,0.0,0.0,2.0119,1.9746,2.0292,1.9478,1.5662,0.0,0.0,0.0,0.0,0.0,0.0,0.0,0.0,0.0,0.0,0.0,0.0,0.0,0.0,0.0,0.0,0.0,0.0,0.0,0.0,0.0,0.0,0.0,0.0,0.0,0.0,0.0,0.0,0.0,0.0,0.0,0.0,0.0,0.0,0.0,0.0,0.0,0.0,0.0,0.0,0.0,0.0,0.0,0.0,0.0,0.0,0.0,0.0,0.0,0.0,0.0,0.0,0.0,1.6015,1.7047,1.8958,2.0482,2.1428,2.1607,2.1455,2.0991,2.091,1.9571,0.0,0.0,0.0,0.0,0.0,0.0,0.0,0.0,0.0,0.0,0.0,0.0,0.0,0.0,0.0,0.0,0.0,0.0,0.0,0.0,0.0,0.0,0.0,0.0,0.0,0.0,0.0,0.0,0.9868,1.0093,1.0525,0.0,0.0,0.0,0.0,0.0,0.0,0.0,0.0,0.0,0.0,2.1192,2.1892,2.2337,0.0,0.0,2.2941,2.2264,2.1354,2.1418,2.027,1.6476,1.4551,0.0,0.0,0.0,0.0,0.0,0.0,0.0,0.0,0.0,0.0,0.0,0.0,0.0,0.0,0.0,0.0,0.0,0.0,0.0,0.0,0.0,0.0,0.0,0.0,0.0,0.0,0.0,0.0,0.0,0.0,0.0,0.0,0.0,0.0,0.0,0.0,0.0,0.0,0.0,0.0,0.0,0.0,0.0,0.0,0.0,0.0,0.0,0.0,0.0,0.0,0.0,0.0,1.5984,1.6773,1.894,2.0411,2.1118,2.1253,2.1142,2.0811,2.0695,1.9497,0.0,0.0,0.0,0.0,0.0,0.0,0.0,0.0,0.0,0.0,0.0,0.0,0.0,0.0,0.0,0.0,0.0,0.0,0.0,0.0,0.0,0.0,0.0,0.0,0.0,0.0,0.0,0.0,1.0787,1.0891,1.0797,0.0,0.0,0.0,0.0,0.0,0.0,0.0,0.0,0.0,0.0,2.1566,2.2901,2.3459,2.3939,2.4654,2.4213,2.3447,2.2487,2.1852,2.0399,1.7264,0.0,0.0,0.0,0.0,0.0,0.0,0.0,0.0,0.0,0.0,0.0,0.0,0.0,0.0,0.0,0.0,0.0,0.0,0.0,0.0,0.0,0.0,0.0,0.0,0.0,0.0,0.0,0.0,0.0,0.0,1.1098,0.0,0.0,0.0,0.0,0.0,0.0,0.0,0.0,0.0,0.0,0.0,0.0,0.0,0.0,0.0,0.0,0.0,0.0,0.0,0.0,0.0,0.0,0.0,1.6267,1.8659,2.017,2.0819,2.1119,2.1151,2.0802,2.0663,1.9481,1.7181,0.0,0.0,0.0,0.0,0.0,0.0,0.0,0.0,0.0,0.0,0.0,0.0,0.0,0.0,0.0,0.0,0.0,0.0,0.0,0.0,0.0,0.0,0.0,0.0,0.0,0.0,1.1347,1.0945,1.0732,0.0,0.0,0.0,0.0,0.0,0.0,0.0,0.0,0.0,0.0,2.0035,2.1722,2.4131,2.4053,2.4312,2.5903,2.4576,2.3215,2.2909,2.1407,1.9623,0.0,0.0,0.0,0.0,0.0,0.0,0.0,0.0,0.0,0.0,0.0,0.0,0.0,0.0,0.0,0.0,0.0,0.0,0.0,0.0,0.0,0.0,0.0,0.0,0.0,0.0,0.0,1.4669,1.4243,0.0,0.0,0.0,0.0,0.0,0.0,0.0,0.0,0.0,0.0,0.0,1.8415,1.8619,0.0,0.0,0.0,0.0,0.0,0.0,0.0,0.0,0.0,0.0,0.0,0.0,1.6409,1.7546,1.9671,2.1126,2.1779,2.1467,2.1222,2.0998,2.0461,1.9263,1.7209,0.0,0.0,0.0,0.0,0.0,0.0,0.0,0.0,0.0,0.0,0.0,0.0,0.0,0.0,0.0,0.0,0.0,0.0,0.0,0.0,0.0,0.0,0.0,0.0,0.0,1.2449,0.0,0.0,0.0,0.0,0.0,0.0,0.0,0.0,0.0,0.0,0.0,1.8151,1.9887,2.1545,2.2885,2.3654,2.4284,2.461,0.0,0.0,0.0,0.0,0.0,0.0,0.0,0.0,0.0,0.0,0.0,0.0,0.0,0.0,1.6424,1.3288,1.2323,1.2451,1.3929,0.0,0.0,0.0,0.0,0.0,0.0,0.0,0.0,0.0,0.0,0.0,0.0,0.0,0.0,1.6726,0.0,1.5429,0.0,0.0,0.0,0.0,0.0,0.0,0.0,0.0,1.9295,1.9925,1.9807,2.0008,1.9701,0.0,1.9067,1.7587,0.0,0.0,0.0,0.0,0.0,0.0,0.0,0.0,1.7201,1.8543,2.0316,2.1553,2.2129,2.1761,2.1397,2.1069,2.0114,1.8796,1.7084,1.5648,1.4254,0.0,0.0,0.0,0.0,0.0,0.0,0.0,0.0,0.0,0.0,0.0,0.0,0.0,0.0,0.0,0.0,0.0,0.0,0.0,0.0,0.0,0.0,0.0,1.2486,0.0,0.0,0.0,0.0,0.0,0.0,0.0,0.0,0.0,1.8358,1.898,1.9831,2.1191,2.239,2.3258,2.3562,0.0,0.0,0.0,0.0,0.0,0.0,0.0,2.1818,1.9946,2.047,2.0452,1.8313,1.8553,1.8806,1.8085,0.0,0.0,1.6388,1.4966,1.4708,1.6431,1.536,1.428,1.4691,1.4893,1.4921,0.0,0.0,0.0,0.0,0.0,0.0,0.0,0.0,1.8391,1.8045,0.0,1.6857,0.0,0.0,0.0,0.0,0.0,0.0,0.0,0.0,2.1351,2.1613,2.025,2.0174,1.991,1.9639,2.1157,2.0397,1.7515,1.5866,0.0,0.0,0.0,0.0,0.0,0.0,1.7915,1.9209,2.0517,2.1466,2.2049,2.2049,2.1705,2.1038,1.9693,1.8322,1.6885,1.6249,1.5101,1.3275,1.2114,0.0,0.0,0.0,0.0,0.0,0.0,0.0,0.0,0.0,0.0,0.0,0.0,0.0,0.0,0.0,0.0,0.0,0.0,0.0,0.0,1.2402,0.0,0.0,0.0,0.0,0.0,0.0,0.0,0.0,0.0,0.0,2.0251,2.0969,2.1755,2.254,0.0,0.0,0.0,0.0,2.3109,2.4049,2.3804,2.3321,2.2771,2.263,2.2196,2.1094,0.0,0.0,1.9469,1.9937,2.0259,1.9253,1.9851,2.0259,1.9205,1.7809,1.7254,1.8229,1.7259,1.6184,1.5544,1.5438,1.5291,2.163,0.0,0.0,0.0,0.0,2.0273,2.1165,2.2767,2.1607,2.0924,2.0533,1.9602,0.0,0.0,0.0,0.0,0.0,0.0,2.0889,2.1894,2.2415,2.2831,2.3245,2.2554,2.2077,2.1839,2.179,2.1232,2.0151,1.8682,1.7064,1.5301,0.0,0.0,0.0,0.0,1.9802,2.1135,2.2017,2.2768,2.3416,2.297,2.2344,2.158,2.0672,1.9695,1.8652,1.7636,1.6414,1.4955,1.3792,0.0,0.0,0.0,0.0,0.0,0.0,0.0,0.0,0.0,0.0,0.0,0.0,0.0,0.0,0.0,0.0,0.0,0.0,0.0,1.2506,1.3177,1.3799,0.0,0.0,0.0,0.0,0.0,0.0,0.0,0.0,0.0,2.2158,2.2641,2.312,0.0,0.0,2.4033,2.3605,2.3508,2.3309,2.2889,0.0,0.0,0.0,2.2573,2.2444,2.2853,2.287,2.243,2.1452,2.1235,2.0947,2.0264,2.027,2.0323,2.0149,1.9215,1.8417,1.8179,1.7803,1.7368,1.6915,1.6613,1.6402,2.3563,2.1798,2.1545,2.1959,2.2778,2.2656,2.3408,2.4697,2.3998,2.3355,2.2723,2.1834,2.0606,1.922,1.9385,0.0,0.0,0.0,2.2067,2.3176,2.3007,2.3219,2.3653,2.3109,2.2762,2.2616,2.2441,2.2122,2.1742,2.0884,1.9402,1.7384,0.0,0.0,1.836,1.964,2.0972,2.2253,2.2707,2.3201,2.3824,2.3201,2.2657,2.2144,2.1215,2.0284,1.9411,1.8472,1.7309,1.5981,1.5049,1.4032,0.0,0.0,0.0,0.0,0.0,0.0,0.0,0.0,0.0,0.0,0.0,1.1174,0.0,0.0,0.0,0.0,1.2303,1.3161,1.4617,1.5061,0.0,0.0,0.0,0.0,0.0,0.0,0.0,2.0016,2.1203,2.2424,2.3847,2.4395,2.4762,2.4978,2.4705,2.4431,2.43,0.0,2.3343,2.2902,2.3103,2.3248,2.3103,2.2959,2.3176,2.4234,2.3777,2.3248,2.2887,2.2313,2.1785,2.1432,2.0973,2.0703,2.0979,2.0047,1.9051,1.8485,1.7929,1.7479,1.7203,1.7059,1.6873,2.5205,2.4756,2.5093,2.5336,2.5536,2.5961,2.5688,2.4986,2.5508,2.5213,2.4198,2.3655,2.3012,2.2304,2.1702,0.0,0.0,2.335,2.3424,2.3564,2.3512,2.3219,2.2691,2.2624,2.2546,2.2494,2.3044,2.2977,2.2402,2.2373,2.1762,2.0572,1.9795,1.972,2.0294,2.0839,2.1702,2.2855,2.2926,2.3176,2.3591,2.3052,2.2742,2.2711,2.1436,2.0323,1.9455,1.8797,1.782,1.6537,1.5892,1.5092,1.4059,0.0,0.0,0.0,0.0,0.0,0.0,0.0,0.0,0.0,0.0,0.0,0.0,0.0,0.0,0.0,1.5105,0.0,1.7283,1.7478,0.0,0.0,0.0,1.7179,1.7937,1.9446,2.0381,2.026,0.0,0.0,0.0,0.0,2.6311,2.623,2.4928,2.4435,2.5631,2.4242,2.3296,2.3746,2.3842,2.3746,2.3544,2.3729,2.421,2.5011,2.4482,2.3873,2.3768,2.3105,2.2633,2.2541,2.1754,2.1146,2.1557,2.0349,1.9338,1.8922,1.7818,1.689,1.6879,1.6911,1.6866,2.7437,2.7434,2.7385,2.6348,2.4696,2.479,2.5281,2.598,2.569,2.5497,2.5393,2.5222,2.4865,2.4288,2.3689,2.3827,2.4575,2.4575,2.5054,2.5841,2.5424,2.5155,2.4978,2.4584,2.3878,2.3054,2.3154,2.2957,2.2415,2.2405,2.2247,2.1943,2.2065,2.1754,2.1031,2.2439,2.3321,2.3575,2.3971,2.398,2.361,2.3471,2.3209,2.286,2.1662,2.0579,1.9652,1.8563,1.7673,1.702,1.6467,1.5859,1.5135,1.3672,0.0,0.0,0.0,0.0,0.0,0.0,0.0,0.0,0.0,1.3823,1.1955,0.0,1.3788,0.0,1.6087,1.6922,1.7282,1.7647,0.0,0.0,1.9339,1.9957,2.1306,2.2034,2.2604,2.3034,2.4242,2.527,2.5907,2.604,2.6352,2.6972,2.623,2.5658,2.572,2.4833,2.4165,2.4302,2.4338,2.4441,2.4699,2.4867,2.5011,2.5234,2.4753,2.4321,2.4321,2.337,2.2605,2.2554,2.1781,2.1146,2.0952,1.9927,1.8985,1.8395,1.7543,1.6905,1.6872,1.691,1.6899,2.8133,2.825,2.814,2.7306,2.6079,2.6467,2.6788,2.702,2.6987,2.6595,2.59,2.5756,2.5548,2.5328,2.4999,2.504,2.5328,2.5354,2.5695,2.6263,2.5965,2.5796,2.5788,2.5481,2.5014,2.4346,2.4125,2.3867,2.3526,2.3029,2.2754,2.2754,2.2776,2.2535,2.2194,2.3534,2.4363,2.4593,2.4606,2.4287,2.3629,2.3384,2.3242,2.3157,2.187,2.0922,2.0412,1.8976,1.8007,1.7612,1.7042,1.6493,1.5928,1.5058,1.4287,0.0,0.0,0.0,0.0,0.0,0.0,0.0,0.0,0.0,0.0,0.0,1.5299,0.0,1.7691,1.8625,1.9157,1.9669,2.0352,2.121,2.1533,2.2137,2.3293,2.3795,2.4182,2.46,2.5365,2.6114,2.668,2.6537,2.6606,2.7143,2.6642,2.6158,2.5995,2.5361,2.4862,2.4853,2.485,2.4946,2.5276,2.5306,2.5306,2.524,2.4761,2.4319,2.4302,2.317,2.2225,2.206,2.1264,2.0569,2.0456,1.9784,1.8965,1.8434,1.8118,1.7862,1.7513,1.7276,1.7165,2.8323,2.8323,2.8323,2.8304,2.8353,2.9145,2.8853,2.7934,2.849,2.7872,2.6389,2.6065,2.6003,2.6157,2.6157,2.6137,2.6116,2.6043,2.6033,2.5986,2.5954,2.5913,2.5834,2.5866,2.5829,2.5735,2.5328,2.5123,2.507,2.4032,2.351,2.342,2.2963,2.2952,2.3458,2.4293,2.4982,2.5479,2.4926,2.4301,2.367,2.3229,2.3148,2.3352,2.1936,2.1108,2.1052,1.9571,1.858,1.8214,1.7695,1.7183,1.666,1.6477,1.6176,0.0,1.5653,0.0,0.0,0.0,0.0,0.0,0.0,0.0,0.0,1.6974,1.7304,1.8273,1.9585,2.0779,2.163,2.2235,2.2773,2.3228,2.351,2.3849,2.445,2.5038,2.5476,2.5572,2.6368,2.7131,2.769,2.7348,2.7056,2.7216,2.6735,2.6362,2.6372,2.577,2.5269,2.5354,2.533,2.5306,2.5498,2.5426,2.533,2.5301,2.4695,2.4131,2.4122,2.2877,2.1754,2.1488,2.072,2.006,2.0117,1.9726,1.9226,1.8744,1.8907,1.8926,1.8228,1.7789,1.7587,2.9497,2.9478,2.9478,2.9497,2.9497,2.9644,2.92,2.8297,2.8441,2.8342,2.8129,2.8044,2.8046,2.8063,2.8063,2.7919,2.7661,2.7481,2.7258,2.7011,2.6828,2.6514,2.6051,2.6197,2.6029,2.5589,2.5616,2.5652,2.5652,2.5417,2.5077,2.4678,2.4532,2.4546,2.4673,0.0,0.0,0.0,2.4801,2.4413,2.3854,2.3755,2.3342,2.2545,2.1305,0.0,2.0081,1.9303,1.8831,1.8752,1.8636,0.0,0.0,0.0,0.0,0.0,0.0,0.0,0.0,0.0,0.0,0.0,1.8795,1.829,1.7409,1.929,2.0344,1.982,2.1453,2.2517,2.2346,2.2776,2.3309,2.3852,2.4491,2.5064,2.5537,2.6224,2.6745,2.6991,2.7325,2.7994,2.8986,2.8373,2.7807,2.8058,2.7408,2.6826,2.6778,2.5967,2.5492,2.5829,2.5619,2.5667,2.6484,2.5883,2.5619,2.5667,2.4894,2.4195,2.3991,2.2809,2.1757,2.149,2.0799,2.0098,1.9863,1.9784,1.9609,1.9223,1.9219,1.9072,1.8283,1.8045,1.799,3.0083,0.0,2.9905,2.9779,0.0,2.9779,2.9535,2.9057,2.8779,2.8594,2.8497,2.8497,2.8551,2.8597,2.8597,2.8497,2.8347,2.8241,2.7969,2.7559,2.7456,2.7097,2.6542,2.6642,2.6538,2.6254,2.6149,2.6083,2.6083,2.5813,2.5558,2.5406,2.5303,2.5168,2.5015,2.4696,2.4665,2.4885,2.4834,2.451,2.3936,2.3638,2.323,2.264,0.0,0.0,0.0,0.0,0.0,0.0,0.0,0.0,0.0,0.0,0.0,1.7686,1.7755,1.7972,1.8345,1.8751,1.9454,2.0614,2.0945,2.0727,1.9817,2.1192,2.208,2.212,2.3035,2.3797,2.4137,2.4395,2.4787,2.5357,2.5768,2.619,2.6731,2.713,2.762,2.8259,2.8276,2.8442,2.9099,2.8381,2.777,2.7754,2.7285,2.6898,2.6849,2.6441,2.6219,2.6478,2.6291,2.6267,2.6796,2.7012,2.6676,2.6444,2.5256,2.4288,2.3985,2.2586,2.133,2.0819,2.0372,1.9981,1.9607,1.9568,1.9528,1.9352,1.9292,1.9201,1.8741,1.8521,1.8393,3.0303,3.0503,3.0172,3.0061,3.008,3.01,3.008,3.003,0.0,0.0,0.0,2.8644,2.8692,2.8813,2.8813,2.8755,2.8696,2.8678,2.8372,2.7932,2.7872,2.7556,2.7062,2.708,2.7028,2.6935,2.6641,2.65,2.6475,2.601,2.5806,2.5839,2.5718,2.5496,2.5118,2.4648,2.4563,2.49,2.4922,2.459,2.3948,2.3523,2.3196,2.3031,2.2163,2.1587,2.1416,2.0568,2.0048,1.9943,1.9473,1.9211,1.9237,1.9694,1.9943,1.9981,2.063,2.0995,2.0969,2.1287,2.1596,2.1988,2.2613,2.2895,2.2669,2.288,2.3412,2.4395,2.4516,2.499,2.5983,2.605,2.6294,2.6888,2.705,2.7379,2.7953,2.8187,2.8616,2.9298,2.9072,2.8778,2.8782,2.8259,2.7761,2.7446,2.741,2.7186,2.7181,2.7133,2.7012,2.7018,2.7109,2.7205,2.7325,2.7806,2.807,2.7148,2.558,2.4305,2.3705,2.2405,2.1032,2.0189,1.9956,1.9799,1.941,1.9312,1.9292,1.9292,1.9292,1.9292,1.9274,1.9034,1.8815,3.0103,3.0393,3.0771,3.1023,3.116,3.116,3.118,3.1085,3.0105,2.9648,2.9591,2.9636,2.9611,2.963,2.963,2.9448,2.9117,2.8931,2.8672,0.0,2.8142,2.7785,2.7281,2.744,2.7256,2.6773,2.6867,2.6925,2.69,2.6823,2.6541,2.6138,2.62,2.6077,2.5715,2.56,2.5378,2.501,2.4985,2.4688,2.4094,2.3998,2.3689,2.3184,2.2587,2.2022,2.1498,2.1341,2.1041,2.0608,2.0477,2.0451,2.0451,2.0529,2.0582,2.0608,2.1093,2.1445,2.1588,2.2075,2.2963,2.4173,2.4626,2.46,2.4081,2.4422,2.498,2.5747,2.6148,2.6481,2.6659,2.6713,2.6999,2.7526,2.8058,2.8638,2.9373,2.9832,3.0001,2.9711,2.9599,2.9407,2.923,2.8719,2.8502,2.8795,2.8368,2.8214,2.8094,2.7858,2.7613,2.7661,2.7974,2.8214,2.819,2.8334,2.8238,2.769,2.5835,2.4385,2.4075,2.2615,2.1252,2.0344,2.015,1.9939,1.9442,1.9292,1.9292,1.9292,1.9292,1.9292,1.9292,1.918,1.9141,2.9901,3.0152,3.0354,3.0514,3.0616,3.1036,3.1223,3.1198,3.0844,3.0507,3.0186,2.993,2.9779,2.9779,2.9779,2.9711,2.9511,2.9441,2.9139,2.8667,2.8592,2.8229,2.777,2.7817,2.7586,2.7056,2.723,2.7147,2.6867,2.6841,2.6739,2.6568,2.6369,2.6217,2.6119,2.5807,2.5584,2.5432,2.5157,2.4707,2.4125,2.4096,2.3834,2.3222,2.2949,2.2557,2.2008,2.1995,2.1877,2.1616,2.1616,2.1629,2.1629,2.1616,2.1629,2.1629,2.1838,2.227,2.298,2.3903,2.4775,2.5546,2.5792,2.5937,2.6005,2.6054,2.6331,2.69,2.7166,2.7418,2.7759,2.8153,2.8511,2.8644,2.9296,2.9836,3.0031,3.002,3.004,2.9998,2.9458,2.9152,2.9391,2.8873,2.8582,2.887,2.8618,2.8522,2.8522,2.8286,2.8118,2.8166,2.8358,2.8474,2.8522,2.8522,2.8382,2.8142,2.6474,2.5137,2.4454,2.3041,2.1676,2.0735,2.0369,2.0064,1.9661,1.9419,1.9329,1.9292,1.9292,1.9292,1.9273,1.8955,1.8439,2.9699,2.9906,3.011,3.0298,3.0532,3.1137,3.1394,3.1414,3.141,3.1198,3.0773,3.0367,3.01,2.998,2.998,2.9905,2.9804,2.9779,2.9553,2.9132,2.9107,2.8806,2.8304,2.8298,2.7996,2.7555,2.7655,2.7498,2.7058,2.6898,2.6858,2.6884,2.645,2.6345,2.651,2.6071,2.5852,2.5823,2.5454,2.499,2.4488,2.4372,2.4073,2.3655,2.3458,2.3144,2.2622,2.2569,2.2531,2.2401,2.24,2.2465,2.2569,2.2597,2.2689,2.2938,2.2977,2.3422,2.4398,2.5378,2.6095,2.6403,2.6527,2.6872,2.7433,2.7383,2.7511,2.7992,2.8128,2.8356,2.8942,2.952,2.987,2.9763,3.0365,3.0753,3.0643,3.0227,3.0041,3.0307,2.9434,2.8927,2.9022,2.8796,2.8538,2.8518,2.8522,2.8522,2.8522,2.8522,2.8478,2.8459,2.8459,2.8522,2.8483,2.8015,2.7914,2.8015,2.6543,2.5184,2.4305,2.3128,2.1969,2.1059,2.062,2.0354,2.0101,1.9822,1.9584,1.9531,1.9494,1.9359,1.8953,1.794,1.7229,2.9431,2.976,3.0633,3.1516,3.2083,3.2176,3.2198,3.2173,3.173,3.1487,3.1329,3.1281,3.0939,3.0583,3.0493,3.0262,2.9829,2.9804,2.9779,2.9704,2.9704,2.9402,2.8856,2.8831,2.8555,2.8097,2.8065,2.8008,2.7857,2.7454,2.7082,2.6764,2.668,2.6739,2.6892,2.6857,2.6618,2.6079,2.6028,2.5865,2.5636,2.5145,2.4887,2.4835,2.4293,2.3745,2.3222,2.3144,2.2923,2.2453,2.2466,2.2648,2.3092,2.3158,2.3629,2.4626,2.473,2.5029,2.5573,2.573,2.6164,2.677,2.6881,2.7215,2.7936,2.8082,2.8433,2.9121,2.9333,2.9567,3.0147,3.0317,3.0344,3.0268,3.0835,3.1293,3.133,3.1388,3.1143,3.0611,2.9821,2.9344,2.8752,2.8538,2.8522,2.8522,2.857,2.8619,2.8575,2.8627,2.8519,2.8371,2.8383,2.8463,2.8299,2.704,2.6691,2.6771,2.5483,2.4363,2.3617,2.286,2.1879,2.1336,2.1004,2.0799,2.0558,2.039,2.0225,1.9873,1.9702,1.9446,1.8279,1.6744,1.5628,2.8875,2.9072,3.0112,3.1119,3.186,3.143,3.1397,3.1617,3.1252,3.1094,3.109,3.1055,3.0893,3.0679,3.0821,3.0583,3.0079,3.0222,3.0105,2.9804,2.9779,2.9654,2.9453,2.9453,2.9132,2.8605,2.858,2.8423,2.8122,2.7871,2.753,2.7097,2.7047,2.7,2.6833,2.6824,2.6748,2.6619,2.6636,2.6583,2.6423,2.5708,2.5288,2.5293,2.5147,2.5025,2.4764,2.4738,2.4633,2.4439,2.4413,2.4488,2.4723,2.4738,2.4947,2.5458,2.5814,2.6117,2.6337,2.6618,2.6938,2.7239,2.7696,2.8113,2.8434,2.8725,2.9251,3.0054,3.0325,3.0418,3.0455,3.0821,3.0951,3.0619,3.0994,3.126,3.084,3.0484,3.0126,2.9877,2.936,2.8914,2.8578,2.8522,2.8522,2.857,2.8719,2.8939,2.8959,2.9097,2.9066,2.8678,2.8191,2.7878,2.7918,2.6835,2.6193,2.6131,2.5105,2.3823,2.3347,2.2687,2.1946,2.1493,2.1291,2.1108,2.0906,2.0628,2.0427,2.008,1.9283,1.8662,1.7814,1.6133,1.5014,2.8643,2.8647,2.9508,3.0419,3.1187,3.0589,3.0628,3.1059,3.0765,3.0681,3.0824,3.0678,3.0583,3.0587,3.0856,3.0798,3.0512,3.0628,3.0593,3.0231,3.0105,3.003,3.0005,2.9849,2.9578,2.9208,2.9157,2.8856,2.8355,2.8304,2.8028,2.7587,2.7386,2.7138,2.6864,2.6729,2.6739,2.6841,2.6858,2.6858,2.6748,2.6175,2.5807,2.5774,2.5777,2.5782,2.5782,2.5782,2.5782,2.5767,2.5782,2.5782,2.5782,2.5782,2.5887,2.607,2.6624,2.6912,2.6938,2.7445,2.7742,2.7794,2.8444,2.8855,2.8916,2.9176,2.9732,3.0459,3.0528,3.0386,3.084,3.1304,3.1325,3.0702,3.1101,3.1108,3.0412,2.9767,2.9438,2.9282,2.8855,2.8403,2.8367,2.845,2.8552,2.8589,2.8971,2.9302,2.935,2.9466,2.9456,2.9059,2.813,2.7576,2.7438,2.607,2.5589,2.521,2.4168,2.3171,2.2996,2.2312,2.1998,2.1562,2.1379,2.1288,2.1269,2.1013,2.0503,2.0018,1.911,1.7867,1.6933,1.5505,1.4529,2.8979,2.8643,2.91,2.9725,3.0179,3.0152,3.0441,3.0896,3.0387,3.0414,3.0724,3.0362,3.0128,3.0145,3.0563,3.0898,3.1013,3.1054,3.1132,3.1165,3.0763,3.0563,3.0512,3.0055,2.9779,2.9754,2.9679,2.9408,2.8907,2.8881,2.8605,2.8053,2.762,2.7336,2.7221,2.6793,2.6516,2.6618,2.6593,2.6533,2.6568,2.6612,2.6501,2.632,2.6027,2.5871,2.5845,2.5819,2.5835,2.5793,2.5871,2.5845,2.5819,2.5861,2.6096,2.6651,2.7167,2.7464,2.7559,2.8046,2.8351,2.8429,2.8917,2.9258,2.9301,2.9415,2.9775,3.0383,2.9801,2.9916,3.1088,3.1393,3.1389,3.0869,3.1007,3.0809,3.0279,2.9574,2.9316,2.9042,2.8534,2.8166,2.7989,2.8386,2.8574,2.8662,2.9056,2.9388,2.9388,2.9413,2.933,2.9019,2.8478,2.7845,2.6702,2.54,2.4188,2.3759,2.341,2.222,2.1932,2.1709,2.1709,2.1709,2.1636,2.1599,2.1632,2.1341,2.0748,1.993,1.8589,1.7367,1.6461,1.4923,1.4058,2.9914,2.9989,2.9869,3.0323,3.1021,3.0395,3.0419,3.0829,3.0347,2.9989,2.9845,2.9653,2.9581,2.9601,2.9766,3.0146,3.0653,3.1118,3.1327,3.1186,3.1007,3.1013,3.106,3.0557,3.0312,3.0281,2.9955,2.9679,2.9503,2.9478,2.9183,2.8706,2.843,2.8154,2.777,2.7286,2.7027,2.6977,2.67,2.6499,2.6516,2.6611,2.6646,2.6603,2.6723,2.6808,2.6906,2.6863,2.6889,2.6889,2.6889,2.6889,2.6906,2.6863,2.7183,2.7723,2.7984,2.8272,2.8595,2.8848,2.8978,2.9004,2.9483,2.9805,2.9857,3.0137,3.0487,3.0548,2.9999,2.9896,3.0145,3.0431,3.0266,2.9729,2.9651,2.9471,2.889,2.8558,2.8399,2.8299,2.7998,2.7769,2.7936,2.8087,2.8297,2.8574,2.9057,2.9356,2.945,2.9546,2.9528,2.9031,2.8254,2.7305,2.6303,2.5125,2.4038,2.3389,2.2777,2.2154,2.1727,2.1705,2.1705,2.1709,2.1687,2.1687,2.1668,2.1427,2.0833,1.9872,1.8495,1.6988,1.6169,1.4753,1.4057,3.0323,3.0564,3.023,3.0516,3.1069,3.0419,3.0419,3.0804,3.0347,2.9965,2.9797,2.9653,2.9556,2.9581,2.9725,3.0052,3.0537,3.0988,3.1196,3.1253,3.1079,3.1162,3.1336,3.0968,3.0783,3.0683,3.0292,2.998,2.9804,2.9779,2.9578,2.9208,2.9013,2.8712,2.8323,2.7821,2.7544,2.7469,2.7185,2.6952,2.6818,2.6837,2.6822,2.6739,2.6969,2.7205,2.7406,2.7473,2.749,2.749,2.749,2.7585,2.7785,2.7977,2.8255,2.8638,2.8664,2.8848,2.924,2.9431,2.9562,2.9588,3.0066,3.0325,3.0147,3.0383,3.0488,3.0247,2.9477,2.8924,2.9023,2.8905,2.8688,2.849,2.853,2.8315,2.78,2.7819,2.7964,2.8024,2.7863,2.7792,2.7916,2.8079,2.8307,2.8625,2.9102,2.942,2.9465,2.958,2.967,2.9218,2.8205,2.7194,2.6161,2.5094,2.392,2.3175,2.2818,2.2158,2.1833,2.1797,2.1723,2.1705,2.1687,2.1687,2.1597,2.1374,2.0664,1.977,1.8186,1.6512,1.5598,1.4646,1.4165,3.0158,3.0206,3.0131,3.023,3.0395,3.0299,3.0468,3.0829,3.0419,3.0468,3.0636,3.0302,3.0062,3.0134,3.0443,3.078,3.0748,3.0579,3.0863,3.1417,3.1069,3.1094,3.1484,3.1228,3.1054,3.1045,3.0738,3.0312,2.988,2.988,2.9829,2.9679,2.9227,2.9007,2.8907,2.838,2.8122,2.8053,2.7996,2.777,2.7386,2.7329,2.7173,2.684,2.684,2.7054,2.7342,2.7458,2.7473,2.749,2.749,2.7811,2.8324,2.8821,2.924,2.9292,2.9292,2.9336,2.9423,2.9876,3.0119,3.0171,3.0634,3.0644,3.0107,2.989,2.9684,2.9199,2.8235,2.7513,2.7797,2.7499,2.7336,2.7713,2.7935,2.7844,2.7487,2.7626,2.7978,2.8105,2.8001,2.7985,2.8075,2.8276,2.8522,2.8723,2.9082,2.9396,2.9373,2.9395,2.9463,2.9144,2.8143,2.6938,2.606,2.5142,2.3954,2.295,2.2676,2.2314,2.2222,2.2126,2.1925,2.187,2.1634,2.1634,2.1597,2.1244,2.0099,1.9016,1.7409,1.6041,1.5096,1.4337,1.4338,3.0906,3.095,3.1124,3.119,3.119,3.119,3.131,3.1406,3.1238,3.1093,3.0901,3.0732,3.0468,3.0203,3.0299,3.0371,3.0323,3.0263,3.0607,3.1187,3.1131,3.1219,3.1469,3.1434,3.1289,3.1133,3.0996,3.0743,3.0437,3.0357,3.0181,2.9829,2.9628,2.9528,2.9478,2.8976,2.8656,2.8605,2.8279,2.7996,2.7846,2.7846,2.7781,2.7709,2.7791,2.7959,2.804,2.761,2.7365,2.7382,2.744,2.7768,2.8377,2.8978,2.9449,2.9805,2.9857,3.0085,3.0443,3.0581,3.0686,3.0738,3.0895,3.0646,3.0094,2.9762,2.9394,2.889,2.7995,2.7545,2.7683,2.7274,2.6993,2.6964,2.7297,2.7526,2.7407,2.7685,2.7802,2.7672,2.7699,2.7811,2.7899,2.8119,2.8428,2.8715,2.8959,2.9047,2.9024,2.9024,2.8746,2.8238,2.7361,2.6689,2.5845,2.5083,2.4157,2.3383,2.3026,2.2753,2.2625,2.24,2.2199,2.1917,2.1703,2.1491,2.1477,2.0734,1.9497,1.8272,1.6823,1.566,1.4651,1.4328,1.4328,3.0306,3.0734,3.0913,3.1294,3.1695,3.1717,3.1717,3.1717,3.1717,3.1502,3.1214,3.119,3.0997,3.0756,3.0708,3.0684,3.066,3.0516,3.0649,3.0997,3.0873,3.1007,3.1305,3.1394,3.1434,3.1414,3.1381,3.1211,3.0914,3.0884,3.0633,3.0181,3.0105,2.998,2.9804,2.9453,2.9233,2.9183,2.8907,2.8624,2.843,2.838,2.8304,2.8165,2.8231,2.8286,2.8272,2.7879,2.7765,2.7971,2.8256,2.8656,2.9065,2.9632,3.0103,3.0328,3.0458,3.0589,3.0947,3.0966,3.0861,3.0691,3.0634,3.019,2.9516,2.9121,2.8776,2.8336,2.7795,2.7524,2.7702,2.7473,2.7102,2.6901,2.7144,2.7367,2.7545,2.7811,2.8011,2.7966,2.8076,2.8118,2.8181,2.8222,2.8418,2.8749,2.8814,2.8814,2.8745,2.8536,2.8047,2.7458,2.6683,2.6108,2.5615,2.4977,2.4307,2.3889,2.351,2.3285,2.3078,2.2767,2.2487,2.201,2.1717,2.1225,2.1091,1.9827,1.8597,1.7377,1.6082,1.5211,1.4328,1.4328,1.4328,2.8611,2.9624,2.9715,3.0351,3.1316,3.1472,3.1427,3.145,3.1695,3.1627,3.1512,3.1555,3.1623,3.1669,3.1524,3.1524,3.1597,3.1187,3.0841,3.0702,3.0414,3.0388,3.0939,3.1113,3.1366,3.1681,3.1765,3.1664,3.14,3.1416,3.116,3.0688,3.0613,3.0362,3.0005,2.9849,2.9804,2.9704,2.9704,2.9428,2.8982,2.8957,2.8756,2.8323,2.8323,2.8366,2.8385,2.8511,2.8663,2.8988,2.9434,2.9803,3.0108,3.066,3.0914,3.0914,3.0973,3.0966,3.0992,3.0861,3.0653,3.0171,3.0017,2.9507,2.8614,2.8332,2.8093,2.7797,2.7483,2.7429,2.7678,2.7701,2.7591,2.7436,2.7436,2.7633,2.7959,2.8069,2.8246,2.8597,2.8771,2.8792,2.8705,2.8704,2.8771,2.8792,2.8814,2.8769,2.849,2.8139,2.767,2.6914,2.6027,2.5586,2.5118,2.4775,2.4202,2.406,2.3749,2.3541,2.3317,2.3002,2.2563,2.2079,2.1404,2.0989,2.0202,1.8949,1.7467,1.5921,1.5019,1.4461,1.4389,1.4485,1.4497,2.7885,2.8213,2.854,2.8866,2.9349,3.0147,3.017,2.9738,3.1092,3.1159,3.0846,3.1383,3.1605,3.1695,3.1673,3.1717,3.1579,3.146,3.1014,3.0387,2.9833,3.0129,3.0769,3.0965,3.1113,3.1391,3.1607,3.1727,3.1763,3.188,3.1712,3.121,3.1185,3.0934,3.0482,3.0367,3.0136,2.9854,2.9785,2.9696,2.9526,2.9476,2.9503,2.9377,2.9283,2.9283,2.9346,2.9562,2.9293,2.8797,2.9453,2.9873,2.9914,3.0492,3.0842,3.0842,3.0917,3.0973,3.0879,3.0546,3.0171,3.003,2.9752,2.929,2.8521,2.8393,2.814,2.7784,2.7458,2.7481,2.7831,2.7962,2.8049,2.8311,2.8047,2.8025,2.8419,2.8594,2.866,2.8792,2.8814,2.8814,2.8814,2.8814,2.8814,2.8814,2.8746,2.856,2.8164,2.7741,2.7295,2.6244,2.5416,2.5026,2.4652,2.4381,2.4177,2.4127,2.3887,2.3604,2.3374,2.3086,2.2511,2.1952,2.0816,2.0192,1.9221,1.8077,1.6382,1.4983,1.4946,1.4908,1.4883,1.4932,1.4896,2.646,2.6986,2.7342,2.7838,2.8355,2.9234,2.9235,2.8981,2.9852,3.0147,2.9806,3.017,3.0666,3.1025,3.0621,3.0712,3.0981,3.0621,3.0102,2.9624,2.924,2.9552,3.0186,3.0596,3.1006,3.1199,3.1437,3.167,3.1878,3.211,3.1993,3.1788,3.1738,3.1461,3.0944,3.0485,3.022,2.9823,2.9358,2.8952,2.8952,2.8774,2.891,2.9111,2.9268,2.9346,2.9721,2.9914,2.9732,2.9444,2.9471,2.9492,2.9498,2.9713,2.9896,2.9941,3.0075,3.019,3.0203,3.0007,2.9786,2.9484,2.9329,2.9035,2.8436,2.8262,2.803,2.8011,2.7722,2.7872,2.8222,2.8331,2.8484,2.8638,2.8506,2.8462,2.8792,2.8792,2.8792,2.8814,2.8814,2.8814,2.8814,2.8814,2.8814,2.8814,2.8814,2.8373,2.7835,2.7366,2.6723,2.5659,2.4922,2.4529,2.4356,2.4152,2.3786,2.3755,2.3488,2.3288,2.2975,2.276,2.2406,2.1632,2.0397,1.938,1.8636,1.772,1.6394,1.553,1.5503,1.533,1.5221,1.5221,1.5209,2.483,2.5838,2.6079,2.6846,2.777,2.8285,2.8262,2.8285,2.8657,2.868,2.8588,2.8657,2.9372,2.9988,2.9395,2.9258,3.0011,2.9349,2.8819,2.8589,2.85,2.8738,2.9127,2.9855,3.029,3.0527,3.1003,3.1186,3.1277,3.1641,3.1798,3.1554,3.1663,3.1559,3.0757,3.0184,2.9938,2.9534,2.8698,2.8219,2.8173,2.7936,2.8081,2.8573,2.867,2.8952,2.9386,2.9594,2.9681,3.0137,2.9468,2.9149,2.9032,2.8644,2.8498,2.8626,2.8972,2.9175,2.9213,2.9553,2.9422,2.8855,2.9024,2.8942,2.8316,2.8121,2.8233,2.8543,2.8271,2.8378,2.8594,2.8771,2.8771,2.8792,2.8771,2.8792,2.8814,2.8814,2.8814,2.8814,2.8814,2.8814,2.8814,2.8814,2.8814,2.8746,2.8583,2.793,2.7247,2.658,2.5882,2.5001,2.443,2.4053,2.3978,2.3929,2.353,2.3238,2.2862,2.256,2.2165,2.1971,2.1954,2.1315,1.9771,1.9081,1.8858,1.7761,1.6369,1.5844,1.567,1.5451,1.5294,1.539,1.5415,2.4332,2.4603,2.4805,2.505,2.5465,2.6436,2.646,2.593,2.7628,2.7817,2.7534,2.8215,2.875,2.9027,2.8704,2.8843,2.8981,2.8634,2.8332,2.7534,2.751,2.756,2.7793,2.8337,2.8567,2.879,2.8924,2.9239,2.9691,3.016,3.0135,2.9966,3.0531,3.0235,2.9529,2.9591,2.9218,2.8851,2.8454,2.8236,2.8171,2.8056,2.8091,2.8409,2.8495,2.8584,2.8712,2.8776,2.8818,2.886,2.8874,2.8774,2.865,2.8223,2.8022,2.824,2.8413,2.868,2.8973,2.893,2.8837,2.8627,2.8605,2.8589,2.8634,2.8676,2.8876,2.9145,2.903,2.88,2.8794,2.8814,2.8814,2.8814,2.8814,2.8791,2.8814,2.8814,2.8814,2.8814,2.8814,2.8814,2.8814,2.8769,2.8746,2.8699,2.8141,2.7481,2.6652,2.5785,2.5031,2.4239,2.3861,2.3506,2.3363,2.3238,2.2862,2.2459,2.2106,2.1785,2.1404,2.0749,2.057,1.9952,1.898,1.8632,1.862,1.745,1.5987,1.5912,1.5852,1.5692,1.5596,1.5632,1.5384,2.4202,2.4226,2.4406,2.4504,2.4627,2.5319,2.5367,2.5167,2.6119,2.6504,2.6288,2.6867,2.7437,2.7934,2.7555,2.7484,2.7793,2.746,2.703,2.6552,2.648,2.65,2.6508,2.6831,2.7138,2.7753,2.8185,2.8429,2.872,2.8991,2.9353,2.942,2.9806,2.9939,2.9347,2.9127,2.888,2.85,2.7899,2.7611,2.7588,2.737,2.7546,2.7939,2.8265,2.8502,2.8544,2.8523,2.8501,2.8408,2.8213,2.8062,2.7978,2.7557,2.7397,2.7513,2.775,2.7905,2.809,2.8296,2.8343,2.8343,2.8453,2.8629,2.8717,2.8891,2.9002,2.9094,2.9024,2.8908,2.8838,2.8814,2.8814,2.8791,2.8676,2.8605,2.8606,2.8721,2.8814,2.8814,2.8814,2.8698,2.8651,2.849,2.8115,2.7788,2.7529,2.6819,2.5644,2.486,2.4245,2.3594,2.322,2.2912,2.2761,2.251,2.2106,2.1649,2.119,2.0893,2.0611,1.9813,1.8994,1.8527,1.824,1.8308,1.8072,1.6837,1.6045,1.5922,1.5873,1.5885,1.5873,1.5825,1.5364,2.4238,2.4293,2.4467,2.456,2.4666,2.4902,2.502,2.4976,2.5032,2.544,2.5331,2.5355,2.6287,2.6624,2.6211,2.6284,2.6552,2.6308,2.5917,2.5893,2.5868,2.5868,2.5873,2.6007,2.6374,2.7519,2.7563,2.7699,2.7814,2.8091,2.8173,2.8919,2.9258,2.8987,2.9169,2.8935,2.8381,2.8181,2.7458,2.6963,2.6896,2.6581,2.6821,2.7341,2.7833,2.8188,2.8188,2.821,2.8253,2.8296,2.759,2.7278,2.71,2.6749,2.6567,2.6611,2.7014,2.7256,2.7496,2.7734,2.7974,2.7973,2.8345,2.8656,2.8701,2.8724,2.8769,2.8769,2.8746,2.8698,2.8676,2.8606,2.8606,2.8606,2.842,2.8371,2.8395,2.8536,2.8583,2.863,2.8513,2.8373,2.8115,2.7904,2.7363,2.6887,2.66,2.6051,2.4884,2.3924,2.332,2.292,2.256,2.2409,2.2283,2.2425,2.1954,2.1502,2.0867,2.0284,1.9945,1.9086,1.8384,1.8032,1.7834,1.7809,1.7569,1.6737,1.6162,1.5999,1.6018,1.6151,1.6115,1.6006,1.5344,2.4404,2.4709,2.4735,2.4925,2.5201,2.529,2.5304,2.536,2.5491,2.5571,2.5496,2.5708,2.5833,2.5942,2.5844,2.5844,2.5985,2.5771,2.5698,2.5698,2.5698,2.5698,2.5698,2.5698,2.593,2.5959,2.624,2.6343,2.6339,2.6379,2.6742,2.6525,2.7126,2.7403,2.742,2.727,2.7641,2.7715,2.7282,2.7123,2.7058,2.7019,2.6983,2.7289,2.7547,2.7592,2.7562,2.7535,2.7507,2.7483,2.7343,2.7298,2.7133,2.6562,2.6391,2.6601,2.6777,2.6997,2.7268,2.7507,2.7657,2.7748,2.7979,2.8256,2.8418,2.8488,2.8513,2.8583,2.8513,2.8395,2.8162,2.8252,2.8184,2.816,2.8201,2.8175,2.8199,2.822,2.8196,2.8166,2.8081,2.7882,2.7529,2.7054,2.6388,2.5737,2.5202,2.4743,2.3881,2.307,2.2426,2.2106,2.1903,2.1827,2.1801,2.2119,2.2093,2.1767,2.1109,2.0065,1.9513,1.8564,1.7936,1.7565,1.7125,1.6879,1.6579,1.6377,1.6299,1.6103,1.626,1.6465,1.6191,1.5916,1.5194,2.4929,2.5113,2.5113,2.5223,2.5388,2.5388,2.5388,2.5433,2.5518,2.5614,2.5689,2.5793,2.5837,2.5806,2.5808,2.5761,2.5728,2.5698,2.5698,2.5698,2.5698,2.5698,2.5698,2.5698,2.5698,2.5723,2.5698,2.5698,2.5698,2.5868,2.5827,2.594,2.632,2.6471,2.6608,2.6968,2.7167,2.7238,2.7309,2.7309,2.7309,2.7309,2.7309,2.7309,2.7309,2.7309,2.7309,2.7309,2.7333,2.7312,2.7309,2.7309,2.7164,2.6954,2.6705,2.6892,2.6957,2.704,2.7268,2.7428,2.7478,2.7597,2.7736,2.7904,2.8115,2.8209,2.8254,2.8279,2.8279,2.8139,2.8045,2.8208,2.8338,2.8378,2.8431,2.8461,2.8455,2.8362,2.8081,2.7714,2.739,2.7129,2.6771,2.6171,2.5421,2.4664,2.3917,2.3406,2.2939,2.241,2.1856,2.1861,2.1764,2.1638,2.1736,2.2079,2.2048,2.1748,2.1188,2.0149,1.9168,1.8279,1.7578,1.7044,1.6609,1.6517,1.6275,1.6293,1.6251,1.628,1.6446,1.6466,1.6156,1.5709,1.4908,2.5443,2.5517,2.5517,2.5572,2.5627,2.5645,2.5664,2.5645,2.5664,2.5784,2.5882,2.5942,2.5975,2.6053,2.6095,2.6085,2.5927,2.5932,2.5874,2.5854,2.5737,2.5698,2.5698,2.5698,2.5698,2.5698,2.5698,2.5698,2.5698,2.5723,2.582,2.595,2.6042,2.6304,2.664,2.674,2.6952,2.7119,2.7238,2.7238,2.7286,2.7309,2.7309,2.7309,2.7309,2.7309,2.7309,2.7309,2.7309,2.7309,2.7309,2.7309,2.7309,2.7309,2.7309,2.7309,2.7309,2.7309,2.7309,2.7309,2.7381,2.7499,2.7523,2.7665,2.7826,2.7915,2.8023,2.8005,2.8129,2.8169,2.8226,2.8443,2.8612,2.8648,2.8754,2.8857,2.8653,2.8442,2.8016,2.7519,2.6861,2.6266,2.5836,2.5513,2.4755,2.3944,2.3237,2.2989,2.2541,2.2154,2.1778,2.1855,2.1782,2.1596,2.1746,2.2231,2.199,2.1472,2.0822,1.9907,1.8953,1.8027,1.746,1.7012,1.7078,1.6976,1.6598,1.6313,1.641,1.6498,1.6605,1.6499,1.6153,1.5316,1.4349,2.5609,2.5947,2.5947,2.6123,2.6416,2.6416,2.6453,2.6435,2.6398,2.6412,2.6292,2.6326,2.6382,2.6481,2.6691,2.6799,2.6713,2.6465,2.6309,2.6269,2.5991,2.5854,2.5757,2.5698,2.5854,2.5893,2.5835,2.5698,2.5771,2.5771,2.5698,2.5795,2.5989,2.6163,2.6304,2.6472,2.6664,2.69,2.6948,2.7068,2.7238,2.7286,2.7309,2.7309,2.7309,2.7309,2.7309,2.7309,2.7309,2.7309,2.7309,2.7309,2.7309,2.7309,2.7309,2.7309,2.7309,2.7309,2.7309,2.7309,2.7309,2.7381,2.7378,2.7381,2.7616,2.7845,2.8011,2.7935,2.825,2.8445,2.8449,2.8587,2.8624,2.869,2.8815,2.8827,2.8706,2.8498,2.8045,2.7237,2.6576,2.5481,2.4715,2.4462,2.4105,2.3308,2.2646,2.2437,2.2288,2.1985,2.1895,2.1996,2.2188,2.2016,2.1778,2.223,2.1709,2.1174,2.0387,1.9648,1.8909,1.8126,1.7662,1.7368,1.7394,1.7257,1.6798,1.6605,1.663,1.6494,1.6333,1.6252,1.6149,1.5086,1.3623,2.6196,2.6343,2.6343,2.6435,2.66,2.6618,2.6618,2.6618,2.6618,2.6581,2.6523,2.6505,2.6558,2.67,2.6789,2.6839,2.6922,2.6816,2.6738,2.6738,2.6498,2.6401,2.6459,2.644,2.644,2.6381,2.644,2.6498,2.6323,2.5908,2.5718,2.5737,2.5859,2.5965,2.6141,2.6231,2.6424,2.664,2.6808,2.6948,2.7092,2.7214,2.7309,2.7309,2.7309,2.7309,2.7309,2.7309,2.7309,2.7309,2.7309,2.7309,2.7309,2.7309,2.7309,2.7309,2.7309,2.7309,2.7309,2.733,2.7351,2.7389,2.7513,2.7759,2.7966,2.8173,2.8293,2.8317,2.8483,2.8603,2.8706,2.8851,2.898,2.9017,2.9069,2.9147,2.9009,2.8476,2.8042,2.7132,2.6167,2.5041,2.4032,2.362,2.3472,2.3048,2.2522,2.2339,2.228,2.2236,2.2202,2.2271,2.2461,2.2593,2.2264,2.2199,2.1282,2.0615,1.9824,1.9194,1.8874,1.8302,1.7743,1.7491,1.7455,1.7223,1.691,1.6893,1.6977,1.6482,1.5917,1.5512,1.5005,1.366,1.2128,2.6618,2.6618,2.6618,2.6618,2.6618,2.6618,2.6618,2.6618,2.6618,2.6618,2.6618,2.6663,2.6768,2.688,2.6946,2.7136,2.7234,2.7175,2.7187,2.7168,2.707,2.6973,2.6914,2.6953,2.6953,2.7012,2.6894,2.6894,2.6732,2.644,2.6128,2.603,2.6191,2.6187,2.6296,2.6389,2.6531,2.662,2.6839,2.6947,2.6969,2.7116,2.7214,2.7286,2.7309,2.7309,2.7309,2.7309,2.7309,2.7309,2.7309,2.7309,2.7309,2.7309,2.7309,2.7351,2.7413,2.7489,2.7489,2.7513,2.7451,2.7576,2.7821,2.8189,2.8458,2.8669,2.8794,2.8794,2.9001,2.9001,2.9042,2.9332,2.9415,2.9456,2.9471,2.9609,2.9428,2.8318,2.7389,2.6584,2.5594,2.4607,2.369,2.3031,2.271,2.2591,2.2391,2.225,2.2318,2.2461,2.2541,2.2593,2.2688,2.2835,2.2589,2.2057,2.1074,2.0037,1.9253,1.8703,1.8365,1.8048,1.7567,1.7432,1.7451,1.7351,1.7067,1.7191,1.7185,1.6035,1.4997,1.4272,1.3467,1.2191,1.0928,2.6618,2.6618,2.6618,2.6618,2.6618,2.6618,2.6618,2.6618,2.6618,2.6618,2.6646,2.6799,2.6916,2.7058,2.7386,2.7641,2.7779,2.7714,2.763,2.748,2.7266,2.7187,2.7187,2.7187,2.7129,2.7129,2.7207,2.7168,2.7051,2.7084,2.6908,2.6889,2.6752,2.6855,2.6867,2.678,2.6763,2.6834,2.6997,2.7016,2.7004,2.7047,2.7171,2.7321,2.7327,2.7309,2.733,2.7434,2.7496,2.7496,2.7517,2.7517,2.7534,2.7513,2.7534,2.7576,2.7762,2.7862,2.7883,2.7883,2.7858,2.7983,2.8276,2.8628,2.8856,2.9104,2.9228,2.929,2.9477,2.9684,2.9787,2.9885,2.962,2.9484,2.9189,2.884,2.8395,2.7303,2.6436,2.5863,2.5027,2.4072,2.3596,2.2975,2.2811,2.2763,2.2751,2.2609,2.2688,2.2799,2.2847,2.2911,2.2927,2.2906,2.274,2.1907,2.0495,1.9495,1.8695,1.8222,1.7865,1.7504,1.7375,1.7298,1.7272,1.7264,1.7262,1.7289,1.6743,1.5168,1.3972,1.305,1.2181,1.108,0.9942,2.5944,2.6591,2.6618,2.6618,2.6618,2.6618,2.6618,2.6618,2.6618,2.6618,2.6618,2.6709,2.6845,2.7043,2.7206,2.7584,2.786,2.7851,2.7914,2.7981,2.7871,2.7812,2.7793,2.7754,2.7812,2.7773,2.7773,2.7793,2.7832,2.7715,2.7773,2.7695,2.7298,2.7051,2.7012,2.709,2.701,2.7013,2.7161,2.7247,2.7307,2.7569,2.7742,2.784,2.8065,2.809,2.811,2.8135,2.8114,2.8094,2.8048,2.8028,2.8007,2.8007,2.8007,2.8028,2.8235,2.8317,2.8313,2.838,2.8438,2.8752,2.8959,2.9125,2.9332,2.9622,2.9704,2.9813,2.9917,3.0056,2.9968,2.9527,2.9065,2.9032,2.8754,2.8233,2.7498,2.6491,2.5793,2.5336,2.4519,2.3613,2.3304,2.3018,2.2974,2.2974,2.3006,2.3038,2.3117,2.3133,2.3181,2.3165,2.3165,2.2358,2.2116,2.1045,1.9819,1.8962,1.8124,1.7841,1.7541,1.7441,1.7299,1.7184,1.6979,1.6856,1.6909,1.7146,1.6428,1.5044,1.3256,1.1534,1.0691,0.9946,0.9209,2.4962,2.6008,2.6053,2.6272,2.6591,2.6618,2.6618,2.6618,2.6618,2.6618,2.6618,2.6618,2.67,2.6872,2.7016,2.7179,2.753,2.7672,2.7853,2.7948,2.8009,2.8147,2.822,2.8208,2.8184,2.8301,2.8301,2.8242,2.8203,2.8281,2.8223,2.8027,2.7754,2.7519,2.7441,2.7383,2.7344,2.7278,2.7361,2.7427,2.747,2.7683,2.796,2.8015,2.8225,2.835,2.8379,2.8384,2.8479,2.85,2.852,2.8541,2.8562,2.8582,2.8603,2.8649,2.8731,2.8814,2.8789,2.8831,2.9021,2.9373,2.9477,2.9684,2.9891,2.9994,2.9932,2.9973,3.0077,3.0201,3.0143,2.9701,2.9237,2.9221,2.8062,2.7419,2.6892,2.6042,2.5416,2.4833,2.417,2.3775,2.3591,2.3451,2.3298,2.3295,2.3248,2.3356,2.3543,2.3543,2.3483,2.3451,2.3387,2.2326,2.1201,2.0286,1.9395,1.8344,1.7676,1.7548,1.7365,1.7233,1.6954,1.6576,1.6402,1.6366,1.6389,1.6493,1.5919,1.5011,1.2889,1.0559,0.9736,0.9108,0.8893,2.3748,2.4778,2.4861,2.5541,2.6436,2.6573,2.6618,2.6618,2.6618,2.6618,2.6618,2.6618,2.6618,2.6682,2.6872,2.7043,2.7152,2.7341,2.7495,2.7584,2.7799,2.7879,2.7987,2.8067,2.8201,2.8274,2.8301,2.8301,2.8301,2.8301,2.8301,2.8301,2.8125,2.8086,2.8223,2.8242,2.8047,2.7741,2.7708,2.7623,2.758,2.7648,2.7847,2.8045,2.8294,2.8467,2.8492,2.8695,2.8771,2.8796,2.8851,2.8851,2.8831,2.881,2.8789,2.8768,2.9104,2.927,2.929,2.929,2.9559,2.9808,2.9829,2.9953,2.9994,3.0036,3.016,3.0325,3.0491,3.0609,3.0451,3.005,2.9546,2.8621,2.7452,2.6526,2.5967,2.5617,2.4949,2.4544,2.4505,2.4359,2.4167,2.3959,2.3742,2.3618,2.352,2.3599,2.3745,2.3686,2.3535,2.3576,2.3425,2.2304,2.1112,1.9951,1.8896,1.7851,1.7238,1.7133,1.6994,1.6798,1.6452,1.6003,1.594,1.6001,1.5871,1.575,1.4442,1.3005,1.162,0.9838,0.8977,0.8481,0.8476,2.2523,2.3692,2.4473,2.5045,2.5514,2.63,2.6618,2.6618,2.6618,2.6618,2.6618,2.6618,2.6618,2.6646,2.67,2.6845,2.6989,2.7043,2.7179,2.7395,2.753,2.7557,2.7664,2.7853,2.804,2.8094,2.8174,2.8274,2.8301,2.8301,2.8301,2.8301,2.8301,2.8301,2.8281,2.8301,2.8184,2.8132,2.8093,2.8061,2.8029,2.8147,2.8258,2.8362,2.8577,2.8712,2.8712,2.8956,2.9111,2.9137,2.9214,2.9358,2.9358,2.9384,2.9405,2.9472,2.972,2.9746,2.987,2.9973,3.0098,3.0092,3.0098,3.0222,3.0387,3.045,3.0615,3.0775,3.0859,3.0765,3.0216,2.9434,2.8652,2.7443,2.6353,2.5577,2.5027,2.4815,2.4478,2.4301,2.4215,2.4104,2.3958,2.3949,2.3827,2.3691,2.3568,2.3445,2.3524,2.3405,2.3239,2.3445,2.3253,2.2199,2.1028,1.9268,1.8285,1.7517,1.6967,1.6722,1.6573,1.6371,1.6169,1.5819,1.575,1.5647,1.5365,1.4642,1.2342,1.0654,1.0019,0.9504,0.8831,0.8546,0.8568,2.1288,2.2438,2.3227,2.3804,2.439,2.5889,2.6618,2.6618,2.6618,2.6618,2.6618,2.6618,2.6618,2.6618,2.6646,2.6673,2.6872,2.6854,2.6881,2.7143,2.7233,2.726,2.7368,2.7557,2.7691,2.7826,2.7987,2.8121,2.8147,2.8274,2.8301,2.8301,2.832,2.8418,2.8437,2.8437,2.8281,2.8242,2.8223,2.8242,2.8283,2.8402,2.8502,2.8588,2.8748,2.8906,2.9032,2.9211,2.9422,2.9475,2.958,2.9706,2.9706,2.9706,2.9685,2.9679,2.987,2.9864,3.0007,3.0287,3.0295,3.0172,3.0311,3.0615,3.0849,3.0808,3.0967,3.114,3.1065,3.0621,2.9971,2.9088,2.7893,2.6713,2.5847,2.5096,2.4769,2.4595,2.4384,2.4225,2.4088,2.3924,2.3789,2.3837,2.3824,2.3703,2.3581,2.3444,2.3263,2.3067,2.2826,2.2856,2.2826,2.1909,2.0136,1.7923,1.7215,1.699,1.6656,1.6299,1.6126,1.5917,1.5794,1.5649,1.5456,1.5177,1.4707,1.3595,1.182,1.0505,0.9777,0.9252,0.8701,0.8606,0.8622,2.0111,2.1088,2.1174,2.1957,2.3227,2.5293,2.6327,2.6509,2.6591,2.6618,2.6618,2.6618,2.6618,2.6618,2.6618,2.6618,2.6646,2.6646,2.6673,2.6709,2.6926,2.6981,2.7071,2.7279,2.7395,2.7503,2.7691,2.7906,2.7933,2.831,2.8418,2.8398,2.8542,2.8691,2.8769,2.8711,2.8555,2.8594,2.8594,2.8594,2.8667,2.8542,2.8577,2.8611,2.8686,2.8753,2.882,2.894,2.9052,2.9105,2.9132,2.9158,2.9132,2.9132,2.9105,2.9273,2.9648,2.9836,3.0005,3.0348,3.0502,3.0524,3.0784,3.1182,3.1237,3.1025,3.1011,3.0772,3.0537,3.0277,2.9852,2.8721,2.7598,2.6597,2.5722,2.519,2.4869,2.464,2.4424,2.424,2.4163,2.4024,2.3917,2.3886,2.3687,2.3548,2.338,2.3226,2.2982,2.261,2.2348,2.1945,2.1832,2.1464,1.9553,1.7098,1.6365,1.6266,1.6104,1.5779,1.5626,1.5495,1.5388,1.5257,1.5029,1.48,1.467,1.354,1.1821,1.0712,0.9753,0.9171,0.8693,0.8687,0.8687,1.9591,1.9996,2.0831,2.1402,2.19,2.3368,2.4501,2.5348,2.6163,2.6618,2.6618,2.6618,2.6482,2.6618,2.6618,2.6618,2.6618,2.6618,2.6618,2.6673,2.6709,2.6736,2.6818,2.6981,2.7098,2.7206,2.7395,2.7676,2.7976,2.8373,2.8676,2.8742,2.8937,2.9172,2.9277,2.9285,2.9246,2.9188,2.9168,2.9109,2.9129,2.9109,2.8965,2.8863,2.8831,2.8788,2.8691,2.8773,2.8887,2.8893,2.904,2.9099,2.9105,2.9125,2.9186,2.9615,2.9977,3.0251,3.0311,3.0625,3.0782,3.056,3.0519,3.0719,3.0947,3.101,3.0778,3.029,2.9334,2.8681,2.8326,2.7467,2.6598,2.5792,2.5057,2.4795,2.4487,2.4286,2.41,2.4038,2.396,2.3852,2.379,2.3713,2.353,2.3356,2.3137,2.2918,2.2466,2.1996,2.1398,2.0943,2.0074,1.9502,1.848,1.6311,1.5866,1.5561,1.5453,1.5355,1.5225,1.5137,1.5029,1.4964,1.4898,1.4898,1.4866,1.3417,1.1648,1.0678,0.9731,0.9194,0.8751,0.8769,0.8769,1.9401,1.9504,2.0155,2.0472,2.0687,2.1773,2.2749,2.3536,2.4667,2.5183,2.5221,2.5624,2.5889,2.5944,2.6327,2.6618,2.6618,2.6618,2.6618,2.6618,2.6618,2.6646,2.6682,2.6763,2.6818,2.6935,2.7135,2.7427,2.7889,2.8405,2.8765,2.8978,2.9297,2.9564,2.9718,2.9833,2.995,2.9891,2.9813,2.9657,2.9637,2.9637,2.9422,2.9258,2.918,2.9004,2.8855,2.8987,2.9014,2.9033,2.925,2.9277,2.9324,2.9344,2.9337,2.9734,3.0044,3.0214,3.0333,3.0719,3.0649,3.0258,2.9743,2.9471,3.0007,3.0333,2.9939,2.9373,2.789,2.6712,2.6396,2.6034,2.5378,2.4734,2.4456,2.4208,2.4022,2.3852,2.3759,2.3697,2.3635,2.3542,2.3479,2.3463,2.3355,2.323,2.2825,2.2292,2.165,2.0848,2.0087,1.9399,1.8267,1.7238,1.6321,1.5866,1.5518,1.5202,1.5137,1.5029,1.4898,1.4898,1.4931,1.4931,1.4898,1.4898,1.4866,1.3186,1.1578,1.0724,0.9904,0.9143,0.8807,0.8818,0.8829,1.9401,1.9401,1.9401,1.9504,1.9562,2.0615,2.1117,2.1174,2.2284,2.2862,2.3283,2.4206,2.464,2.4823,2.5474,2.6052,2.6153,2.6208,2.6427,2.6564,2.6618,2.6618,2.6618,2.6618,2.6682,2.6736,2.6956,2.7371,2.78,2.8417,2.8983,2.9124,2.9295,2.9677,3.0186,3.0254,3.0371,3.0517,3.0204,2.9911,2.9852,2.9774,2.9676,2.9657,2.9637,2.9579,2.9559,2.9559,2.9598,2.9579,2.9587,2.9556,2.9536,2.9662,2.9702,2.9858,3.0181,3.0033,3.0083,3.0248,2.9712,2.9209,2.8623,2.7931,2.8158,2.9186,2.8935,2.7626,2.6062,2.5377,2.5025,2.4951,2.4517,2.4313,2.4171,2.4075,2.4057,2.3899,2.3773,2.3697,2.3562,2.3514,2.3588,2.36,2.3556,2.3298,2.2692,2.2013,2.0959,1.9992,1.8956,1.8088,1.713,1.6191,1.5746,1.5355,1.5127,1.4931,1.4898,1.4898,1.4898,1.4898,1.4898,1.4898,1.4898,1.4898,1.4572,1.2988,1.1858,1.1345,1.0403,0.9217,0.8818,0.8812,0.8861,1.9401,1.9401,1.9401,1.9401,1.9417,1.9707,1.9851,1.9851,2.0097,2.1317,2.2805,2.3255,2.3424,2.358,2.4102,2.4665,2.518,2.5395,2.5947,2.6226,2.64,2.6327,2.6609,2.6573,2.6628,2.671,2.6995,2.7521,2.8032,2.869,2.9298,2.9604,2.9738,3.0123,3.0567,3.0606,3.0684,3.0859,3.0693,3.0439,3.0458,3.0469,3.0469,3.0195,3.0039,2.9911,2.9813,2.9657,2.9637,2.9598,2.9598,2.9598,2.9598,2.9911,3.0019,3.0117,3.0257,2.9929,2.9402,2.9201,2.8664,2.7594,2.681,2.6111,2.6247,2.7456,2.7336,2.5776,2.4749,2.4239,2.3912,2.3921,2.3929,2.3923,2.3949,2.4008,2.4082,2.3954,2.384,2.3706,2.3574,2.3618,2.3706,2.3706,2.3676,2.3267,2.2606,2.175,2.0483,1.9382,1.8008,1.7076,1.6352,1.5561,1.5202,1.5039,1.4931,1.4898,1.4898,1.4898,1.4908,1.4898,1.4898,1.4898,1.4898,1.4898,1.4408,1.3046,1.2097,1.1651,1.0632,0.9311,0.8833,0.8731,0.8823,1.9185,1.9185,1.9343,1.9321,1.9212,1.9334,1.9401,1.9401,1.9401,2.0126,2.1402,2.1915,2.2212,2.2382,2.2912,2.3342,2.3965,2.4126,2.4356,2.4868,2.5641,2.5724,2.5952,2.6436,2.6839,2.6986,2.75,2.8008,2.8383,2.8803,2.9308,2.9658,2.9993,3.0245,3.0616,3.0674,3.0762,3.0879,3.0898,3.0928,3.0928,3.084,3.0801,3.0527,3.0449,3.0341,3.0322,3.0185,3.0185,3.0204,3.0243,3.0243,3.0302,3.0439,3.0152,2.9833,2.9615,2.9442,2.8504,2.7894,2.7474,2.6297,2.5865,2.5512,2.4594,2.5575,2.5607,2.4279,2.4517,2.4144,2.4025,2.4003,2.4001,2.4027,2.4025,2.4069,2.4098,2.4066,2.4001,2.3972,2.3852,2.3852,2.3925,2.3925,2.3863,2.367,2.2919,2.1639,2.0308,1.887,1.7423,1.6351,1.5774,1.5338,1.5039,1.4964,1.4898,1.4898,1.4936,1.4927,1.4936,1.4917,1.4898,1.4946,1.4955,1.4898,1.417,1.3186,1.2371,1.1832,1.0631,0.9301,0.9007,0.8704,0.8683,1.879,1.8834,1.9134,1.9143,1.8985,1.9267,1.9401,1.9401,1.9401,1.9401,1.9707,2.0615,2.0916,2.1374,2.2033,2.2469,2.2799,2.2925,2.296,2.3496,2.4195,2.453,2.5214,2.6041,2.6713,2.7423,2.7985,2.826,2.8538,2.8902,2.9198,2.9431,2.9627,2.9774,3.0186,3.0421,3.0538,3.0733,3.082,3.0898,3.0928,3.0928,3.0888,3.0908,3.0928,3.0928,3.0908,3.0908,3.0888,3.0849,3.0713,3.0442,3.0248,3.017,2.9466,2.9013,2.8598,2.7966,2.7112,2.6803,2.6058,2.5323,2.5328,2.4887,2.4027,2.3878,2.3924,2.4039,2.4265,2.4276,2.4145,2.4162,2.4177,2.4206,2.4221,2.4265,2.4265,2.4265,2.4265,2.425,2.4221,2.4206,2.4138,2.4138,2.3833,2.3702,2.2821,2.1588,2.0211,1.864,1.7118,1.6298,1.5705,1.529,1.5002,1.5021,1.5068,1.5059,1.5096,1.503,1.5002,1.513,1.5125,1.5068,1.5049,1.5068,1.4644,1.3801,1.2988,1.2043,1.0425,0.9125,0.9002,0.8717,0.8591,1.8213,1.8272,1.8579,1.8731,1.893,1.9239,1.9401,1.9401,1.9401,1.9401,1.9475,1.9546,1.9735,1.9778,2.0141,2.0726,2.1561,2.1695,2.2394,2.3078,2.3179,2.3408,2.4057,2.5184,2.6643,2.7485,2.8079,2.8447,2.8346,2.8676,2.9094,2.9283,2.945,2.9656,2.9951,3.0157,3.0362,3.0509,3.0674,3.0791,3.084,3.0869,3.0928,3.0928,3.0928,3.0928,3.0928,3.0928,3.0928,3.0928,3.0674,3.0069,2.9656,2.9242,2.8606,2.785,2.7457,2.678,2.6111,2.5809,2.5094,2.4433,2.4453,2.455,2.4136,2.4312,2.4356,2.44,2.4496,2.4364,2.4324,2.4456,2.4514,2.4587,2.4631,2.4734,2.4807,2.4807,2.4793,2.4719,2.4631,2.4542,2.4429,2.4071,2.3337,2.2774,2.1525,2.033,1.9593,1.8202,1.6807,1.6268,1.5711,1.5461,1.5276,1.5347,1.5375,1.5347,1.5285,1.529,1.5319,1.5432,1.5432,1.5319,1.5347,1.5437,1.4886,1.4339,1.3182,1.2033,1.0147,0.8944,0.8845,0.8745,0.8559]},{"header":{"parameterUnit":"m.s-1","parameterCategory":1,"la1":31.0,"la2":29.5877,"lo1":-88.7671,"lo2":-86.6584,"dy":0.0162,"dx":0.0185,"nx":115,"ny":88,"refTime":"2026-04-09T18:00:00:Z","depth":0,"parameterNumber":3,"parameterNumberName":"V-component_of_WINDS"},"data":[0.0,0.0,0.0,0.0,0.0,0.0,0.0,0.0,0.0,0.0,0.0,0.0,0.0,0.0,0.0,0.0,0.0,0.0,0.0,0.0,0.0,0.0,0.0,0.0,0.0,0.0,0.0,0.0,0.0,0.0,0.0,0.0,0.0,0.0,0.0,0.0,0.0,0.0,0.0,0.0,0.0,0.0,0.0,0.0,0.0,0.0,0.0,0.0,0.0,0.0,0.0,0.0,0.0,0.0,0.0,0.0,0.0,0.0,0.0,0.0,0.0,0.0,0.0,0.0,0.0,0.0,0.0,0.0,0.0,0.0,0.0,0.0,0.0,0.0,0.0,0.0,0.0,0.0,0.0,0.0,0.0,0.0,0.0,0.0,0.0,0.0,0.0,0.0,0.0,0.0,0.0,0.0,0.0,0.0,0.0,0.0,0.0,0.0,0.0,0.0,0.0,0.0,0.0,0.0,0.0,0.0,0.0,0.0,0.0,0.0,0.0,0.0,0.0,0.0,0.0,0.0,0.0,0.0,0.0,0.0,0.0,0.0,0.0,0.0,0.0,0.0,0.0,0.0,0.0,0.0,0.0,0.0,0.0,0.0,0.0,0.0,0.0,0.0,0.0,0.0,0.0,0.0,0.0,0.0,0.0,0.0,0.0,0.0,0.0,0.0,0.0,0.0,0.0,0.0,0.0,0.0,0.0,0.0,0.0,0.0,0.0,0.0,0.0,0.0,0.0,0.0,0.0,0.0,0.0,0.0,0.0,0.0,0.0,0.0,0.0,0.0,0.0,0.0,0.0,0.0,0.0,0.0,0.0,0.0,0.0,0.0,0.0,0.0,0.0,0.0,0.0,0.0,0.0,0.0,0.0,0.0,0.0,0.0,0.0,0.0,0.0,0.0,0.0,0.0,0.0,0.0,0.0,0.0,0.0,0.0,0.0,0.0,0.0,0.0,0.0,0.0,0.0,0.0,0.0,0.0,0.0,0.0,0.0,0.0,0.0,0.0,0.0,0.0,0.0,0.0,0.0,0.0,0.0,0.0,0.0,0.0,0.0,0.0,0.0,0.0,0.0,0.0,0.0,0.0,0.0,0.0,0.0,0.0,0.0,0.0,0.0,0.0,0.0,0.0,0.0,0.0,0.0,0.0,0.0,0.0,0.0,0.0,0.0,0.0,0.0,0.0,0.0,0.0,0.0,0.0,0.0,0.0,0.0,0.0,0.0,0.0,0.0,0.0,0.0,0.0,0.0,0.0,0.0,0.0,0.0,0.0,0.0,0.0,0.0,0.0,0.0,0.0,0.0,0.0,0.0,0.0,0.0,0.0,0.0,0.0,0.0,0.0,0.0,0.0,0.0,0.0,0.0,0.0,0.0,0.0,0.0,0.0,0.0,0.0,0.0,0.0,0.0,0.0,0.0,0.0,0.0,0.0,0.0,0.0,0.0,0.0,0.0,0.0,0.0,0.0,0.0,0.0,0.0,0.0,0.0,0.0,0.0,0.0,0.0,0.0,0.0,0.0,0.0,0.0,0.0,0.0,0.0,0.0,0.0,0.0,0.0,0.0,0.0,0.0,0.0,0.0,0.0,0.0,0.0,0.0,0.0,0.0,0.0,0.0,0.0,0.0,0.0,0.0,0.0,0.0,0.0,0.0,0.0,0.0,0.0,0.0,0.0,0.0,0.0,0.0,0.0,0.0,0.0,0.0,0.0,0.0,0.0,0.0,0.0,0.0,0.0,0.0,0.0,0.0,0.0,0.0,0.0,0.0,0.0,0.0,0.0,0.0,0.0,0.0,0.0,0.0,0.0,0.0,0.0,0.0,0.0,0.0,0.0,0.0,0.0,0.0,0.0,0.0,0.0,0.0,0.0,0.0,0.0,0.0,0.0,0.0,0.0,0.0,0.0,0.0,0.0,0.0,0.0,0.0,0.0,0.0,0.0,0.0,0.0,0.0,0.0,0.0,0.0,0.0,0.0,0.0,0.0,0.0,0.0,0.0,0.0,0.0,0.0,0.0,0.0,0.0,0.0,0.0,0.0,0.0,0.0,0.0,0.0,0.0,0.0,0.0,0.0,0.0,0.0,0.0,0.0,0.0,0.0,0.0,0.0,0.0,0.0,0.0,0.0,0.0,0.0,0.0,0.0,0.0,0.0,0.0,0.0,0.0,0.0,0.0,0.0,0.0,0.0,0.0,0.0,0.0,0.0,0.0,0.0,0.0,0.0,0.0,0.0,0.0,0.0,0.0,0.0,0.0,0.0,0.0,0.0,0.0,0.0,0.0,0.0,0.0,0.0,0.0,0.0,0.0,0.0,0.0,0.0,0.0,0.0,0.0,0.0,0.0,0.0,0.0,0.0,0.0,0.0,0.0,0.0,0.0,0.0,0.0,0.0,0.0,0.0,0.0,0.0,0.0,0.0,0.0,0.0,0.0,0.0,0.0,0.0,0.0,0.0,0.0,0.0,0.0,0.0,0.0,0.0,0.0,0.0,0.0,0.0,0.0,0.0,0.0,0.0,0.0,0.0,0.0,0.0,0.0,0.0,0.0,0.0,0.0,0.0,0.0,0.0,0.0,0.0,0.0,0.0,0.0,0.0,0.0,0.0,0.0,0.0,0.0,0.0,0.0,0.0,0.0,0.0,0.0,0.0,0.0,0.0,0.0,0.0,0.0,0.0,0.0,0.0,0.0,0.0,0.0,0.0,0.0,0.0,0.0,0.0,0.0,0.0,0.0,0.0,0.0,0.0,0.0,0.0,0.0,0.0,0.0,0.0,0.0,0.0,0.0,0.0,0.0,0.0,0.0,0.0,0.0,0.0,0.0,0.0,0.0,0.0,0.0,0.0,0.0,0.0,0.0,0.0,0.0,0.0,0.0,0.0,0.0,0.0,0.0,0.0,0.0,0.0,0.0,0.0,0.0,0.0,0.0,0.0,0.0,0.0,0.0,0.0,0.0,0.0,0.0,0.0,0.0,0.0,0.0,0.0,0.0,0.0,0.0,0.0,0.0,0.0,0.0,0.0,0.0,0.0,0.0,0.0,0.0,0.0,0.0,0.0,0.0,0.0,0.0,0.0,0.0,0.0,0.0,0.0,0.0,0.0,0.0,0.0,0.0,0.0,0.0,0.0,0.0,0.0,0.0,0.0,0.0,0.0,0.0,0.0,0.0,0.0,0.0,0.0,0.0,0.0,0.0,0.0,0.0,0.0,0.0,0.0,0.0,0.0,0.0,0.0,0.0,0.0,0.0,0.0,0.0,0.0,0.0,0.0,0.0,0.0,0.0,0.0,0.0,0.0,0.0,0.0,0.0,0.0,0.0,0.0,0.0,0.0,0.0,0.0,0.0,0.0,0.0,0.0,0.0,0.0,0.0,0.0,0.0,0.0,0.0,0.0,0.0,0.0,0.0,0.0,0.0,0.0,0.0,0.0,0.0,0.0,0.0,0.0,0.0,0.0,0.0,0.0,0.0,0.0,0.0,0.0,0.0,0.0,0.0,0.0,0.0,0.0,0.0,0.0,0.0,0.0,0.0,0.0,0.0,0.0,0.0,0.0,0.0,0.0,0.0,0.0,0.0,0.0,0.0,0.0,0.0,0.0,0.0,0.0,0.0,0.0,0.0,0.0,0.0,0.0,0.0,0.0,0.0,0.0,0.0,0.0,0.0,0.0,0.0,0.0,0.0,0.0,0.0,0.0,0.0,0.0,0.0,0.0,0.0,0.0,0.0,0.0,0.0,0.0,0.0,0.0,0.0,0.0,0.0,0.0,0.0,0.0,0.0,0.0,0.0,0.0,0.0,0.0,0.0,0.0,0.0,0.0,0.0,0.0,0.0,0.0,0.0,0.0,0.0,0.0,0.0,0.0,0.0,0.0,0.0,0.0,0.0,0.0,0.0,0.0,0.0,0.0,0.0,0.0,0.0,0.0,0.0,0.0,0.0,0.0,0.0,0.0,0.0,0.0,0.0,0.0,0.0,0.0,0.0,0.0,0.0,0.0,0.0,0.0,0.0,0.0,0.0,0.0,0.0,0.0,0.0,0.0,0.0,0.0,0.0,0.0,0.0,0.0,0.0,0.0,0.0,0.0,0.0,0.0,0.0,0.0,0.0,0.0,0.0,0.0,0.0,0.0,0.0,0.0,0.0,0.0,0.0,0.0,0.0,0.0,0.0,0.0,0.0,0.0,0.0,0.0,0.0,0.0,0.0,0.0,0.0,0.0,0.0,0.0,0.0,0.0,0.0,0.0,0.0,0.0,0.0,0.0,0.0,0.0,0.0,0.0,0.0,0.5404,0.0,0.0,0.0,0.0,0.0,0.0,0.0,0.0,0.0,0.0,0.0,0.0,0.0,0.0,0.0,0.0,0.0,0.0,0.0,0.0,0.0,0.0,0.0,0.0,0.0,0.0,0.0,0.0,0.0,0.0,0.0,0.0,0.0,0.0,0.0,0.0,0.0,0.0,0.0,0.0,0.0,0.0,0.0,0.0,0.0,0.0,0.0,0.0,0.0,0.0,0.0,0.0,0.0,0.0,0.0,0.0,0.0,0.0,0.0,0.0,0.0,0.0,0.0,0.0,0.0,0.0,0.0,0.0,0.0,0.0,0.0,0.0,0.0,0.0,0.0,0.0,0.0,0.0,0.0,0.0,0.0,0.0,0.0,0.0,0.0,0.0,0.0,0.0,0.0,0.0,0.0,0.0,0.0,0.0,0.0,0.0,0.0,0.0,0.0,0.0,0.0,0.0,0.0,0.0,0.0,0.0,0.0,0.0,0.0,0.0,0.4858,0.4961,0.5117,0.5301,0.5508,0.0,0.0,0.0,0.0,0.0,0.0,0.0,0.0,0.0,0.0,0.0,0.0,0.0,0.0,0.0,0.0,0.0,0.0,0.0,0.0,0.0,0.0,0.0,0.0,0.0,0.0,0.0,0.0,0.0,0.0,0.0,0.0,0.0,0.0,0.0,0.0,0.0,0.0,0.0,0.0,0.0,0.0,0.0,0.0,0.0,0.0,0.0,0.0,0.0,0.0,0.0,0.0,0.0,0.0,0.0,0.0,0.0,0.0,0.0,0.0,0.0,0.0,0.0,0.0,0.0,0.0,0.0,0.0,0.0,0.0,0.0,0.0,0.0,0.0,0.0,0.0,0.0,0.0,0.0,0.0,0.0,0.0,0.0,0.0,0.0,0.0,0.0,0.0,0.0,0.0,0.0,0.0,0.0,0.0,0.0,0.0,0.0,0.0,0.0,0.0,0.0,0.0,0.0,0.0,0.0,0.0,0.0,0.0,0.0,0.0,0.0,0.0,0.5308,0.5562,0.5929,0.0,0.0,0.0,0.0,0.0,0.0,0.0,0.0,0.0,0.0,0.0,0.0,0.0,0.0,0.0,0.0,0.0,0.0,0.0,0.0,0.0,0.0,0.0,0.0,0.0,0.0,0.0,0.0,0.0,0.0,0.0,0.0,0.0,0.0,0.0,0.0,0.0,0.0,0.0,0.0,0.0,0.0,0.0,0.0,0.0,0.0,0.0,0.0,0.0,0.0,0.0,0.0,0.0,0.0,0.0,0.0,0.0,0.0,0.0,0.0,0.0,0.0,0.0,0.0,0.0,0.0,0.0,0.0,0.0,0.0,0.0,0.0,0.0,0.0,0.0,0.0,0.0,0.0,0.0,0.0,0.0,0.0,0.0,0.0,0.0,0.0,0.0,0.0,0.0,0.0,0.0,0.0,0.0,0.0,0.0,0.0,0.0,0.0,0.0,0.0,0.0,0.0,0.0,0.0,0.0,0.0,0.0,0.0,0.0,0.0,0.4986,0.5371,0.5549,0.0,0.6825,0.0,0.0,0.0,0.0,0.0,0.0,0.0,0.0,0.0,0.0,0.0,0.0,0.0,0.0,0.0,0.0,0.0,0.0,0.0,0.0,0.0,0.0,0.0,0.0,0.0,0.0,0.0,0.0,0.0,0.0,0.0,0.0,0.0,0.0,0.0,0.0,0.0,0.0,0.0,0.0,0.0,0.0,0.0,0.0,0.0,0.0,0.0,0.0,0.0,0.0,0.0,0.0,0.0,0.0,0.0,0.0,0.0,0.0,0.0,0.0,0.0,0.0,0.0,0.0,0.0,0.0,0.0,0.0,0.0,0.0,0.0,0.0,0.0,0.0,0.0,0.0,0.0,0.0,0.0,0.0,0.0,0.0,0.0,0.0,0.0,0.0,0.0,0.0,0.0,0.0,0.0,0.0,0.0,0.0,0.0,0.0,0.0,0.0,0.0,0.0,0.0,0.0,0.0,0.0,0.0,0.0,0.0,0.0,0.0,0.0,0.0,0.5567,0.5836,0.6307,0.0,0.0,0.0,0.0,0.0,0.0,0.0,0.0,0.0,0.0,0.0,0.0,0.0,0.0,0.0,0.0,0.0,0.0,0.0,0.0,0.0,0.0,0.0,0.0,0.0,0.0,0.0,0.0,0.0,0.0,0.0,0.0,0.0,0.0,0.0,0.0,0.0,0.0,0.0,0.0,0.0,0.0,0.0,0.0,0.0,0.0,0.0,0.0,0.0,0.0,0.0,0.0,0.0,0.0,0.0,0.0,0.0,0.0,0.0,0.0,0.0,0.0,0.0,0.0,0.0,0.0,0.0,0.0,0.0,0.0,0.0,0.0,0.0,0.0,0.0,0.0,0.0,0.0,0.0,0.0,0.0,0.0,0.0,0.0,0.0,0.0,0.0,0.0,0.0,0.0,0.0,0.0,0.0,0.0,0.0,0.0,0.0,0.0,0.0,0.0,0.0,0.0,0.0,0.0,0.0,0.0,0.0,0.0,0.0,0.0,0.5311,0.0,0.5776,0.6136,0.6467,0.672,0.0,0.0,0.0,0.0,0.0,0.0,0.0,0.0,0.0,0.0,0.0,0.0,0.0,0.0,0.0,0.0,0.0,0.0,0.0,0.0,0.0,0.0,0.0,0.0,0.0,0.0,0.0,0.0,0.0,0.0,0.0,0.0,0.0,0.0,0.0,0.0,0.0,0.0,0.0,0.0,0.0,0.0,0.0,0.0,0.0,0.0,0.0,0.0,0.0,0.0,0.0,0.0,0.0,0.0,0.0,0.0,0.0,0.0,0.0,0.0,0.0,0.0,0.0,0.0,0.0,0.0,0.0,0.0,0.0,0.0,0.0,0.0,0.0,0.0,0.0,0.0,0.0,0.0,0.0,0.0,0.0,0.0,0.0,0.0,0.0,0.0,0.0,0.0,0.0,0.0,0.0,0.0,0.0,0.0,0.0,0.0,0.0,0.0,0.0,0.0,0.0,0.0,0.0,0.0,0.0,0.0,0.0,0.0,0.0,0.5589,0.5594,0.5972,0.6435,0.6478,0.0,0.0,0.0,0.0,0.0,0.0,0.0,0.0,0.0,0.0,0.0,0.0,0.0,0.0,0.0,0.0,0.0,0.0,0.0,0.0,0.0,0.0,0.0,0.0,0.0,0.0,0.0,0.0,0.0,0.0,0.0,0.0,0.0,0.0,0.0,0.0,0.0,0.0,0.0,0.0,0.0,0.0,0.0,0.0,0.0,0.0,0.0,0.0,0.0,0.0,0.0,0.0,0.0,0.0,0.0,0.0,0.0,0.0,0.0,0.0,0.0,0.0,0.0,0.0,0.0,0.0,0.0,0.0,0.0,0.0,0.0,0.0,0.0,0.0,0.0,0.0,0.0,0.0,0.0,0.0,0.0,0.0,0.0,0.0,0.0,0.0,0.0,0.0,0.0,0.0,0.0,0.0,0.0,0.0,0.0,0.0,0.0,0.0,0.0,0.0,0.0,0.0,0.0,0.0,0.0,0.0,0.0,0.0,0.0,0.5196,0.5338,0.5716,0.6337,0.6259,0.6234,0.0,0.0,0.0,0.0,0.0,0.0,0.0,0.0,0.0,0.0,0.0,0.0,0.0,0.0,0.0,0.0,0.0,0.0,0.0,0.0,0.0,0.0,0.0,0.0,0.0,0.0,0.0,0.0,0.0,0.0,0.0,0.0,0.0,0.0,0.0,0.0,0.0,0.0,0.0,0.0,0.0,0.0,0.0,0.0,0.0,0.0,0.0,0.0,0.0,0.0,0.0,0.0,0.0,0.0,0.0,0.0,0.0,0.0,0.0,0.0,0.0,0.0,0.0,0.0,0.0,0.0,0.0,0.0,0.0,0.0,0.0,0.0,0.0,0.0,0.0,0.0,0.0,0.0,0.0,0.0,0.0,0.0,0.0,0.0,0.0,0.0,0.0,0.0,0.0,0.0,0.0,0.0,0.0,0.0,0.0,0.0,0.0,0.0,0.0,0.0,0.0,0.0,0.0,0.0,0.0,0.0,0.0,0.0,0.0,0.5189,0.0,0.599,0.0,0.623,0.6156,0.0,0.0,0.0,0.0,0.0,0.0,0.0,0.0,0.0,0.0,0.0,0.0,0.0,0.0,0.0,0.0,0.0,0.0,0.0,0.0,0.0,0.0,0.0,0.0,0.0,0.0,0.0,0.0,0.0,0.0,0.0,0.0,0.0,0.0,0.0,0.0,0.0,0.0,0.0,0.0,0.0,0.0,0.0,0.0,0.0,0.0,0.0,0.0,0.0,0.0,0.0,0.0,0.0,0.0,0.0,0.0,0.0,0.0,0.0,0.0,0.0,0.0,0.0,0.0,0.0,0.0,0.0,0.0,0.0,0.0,0.0,0.0,0.0,0.0,0.0,0.0,0.0,0.0,0.0,0.0,0.0,0.0,0.0,0.0,0.0,0.0,0.0,0.0,0.0,0.0,0.0,0.0,0.0,0.0,0.0,0.0,0.0,0.0,0.0,0.0,0.0,0.0,0.0,0.0,0.0,0.0,0.0,0.0,0.0,0.5959,0.6361,0.6397,0.6045,0.6415,0.623,0.0,0.0,0.0,0.0,0.0,0.0,0.0,0.0,0.0,0.0,0.0,0.0,0.0,0.0,0.0,0.0,0.0,0.0,0.0,0.0,0.0,0.0,0.0,0.0,0.0,0.0,0.0,0.0,0.0,0.0,0.0,0.0,0.0,0.0,0.0,0.0,0.0,0.0,0.0,0.0,0.0,0.0,0.0,0.0,0.0,0.0,0.0,0.0,0.0,0.0,0.0,0.0,0.0,0.0,0.0,0.0,0.0,0.0,0.0,0.0,0.0,0.0,0.0,0.0,0.0,0.0,0.0,0.0,0.0,0.0,0.0,0.0,0.0,0.0,0.0,0.0,0.0,0.0,0.0,0.0,0.0,0.0,0.0,0.0,0.0,0.0,0.0,0.0,0.0,0.0,0.0,0.0,0.0,0.0,0.0,0.0,0.0,0.0,0.0,0.0,0.0,0.0,0.0,0.0,0.0,0.0,0.0,0.0,0.0,0.602,0.6391,0.6678,0.6794,0.6668,0.6772,0.0,0.0,0.0,0.0,0.0,0.0,0.0,0.0,0.0,0.0,0.0,0.0,0.0,0.0,0.0,0.0,0.0,0.0,0.0,0.0,0.0,0.0,0.0,0.0,0.0,0.0,0.0,0.0,0.0,0.0,0.0,0.0,0.0,0.0,0.0,0.0,0.0,0.0,0.0,0.0,0.0,0.0,0.0,0.0,0.0,0.0,0.0,0.0,0.0,0.0,0.0,0.0,0.0,0.0,0.0,0.0,0.0,0.0,0.0,0.0,0.0,0.0,0.0,0.0,0.0,0.0,0.0,0.0,0.0,0.0,0.0,0.0,0.0,0.0,0.0,0.0,0.0,0.0,0.0,0.0,0.0,0.0,0.0,0.0,0.0,0.0,0.0,0.0,0.0,0.0,0.0,0.0,0.0,0.0,0.0,0.0,0.0,0.0,0.0,0.0,0.0,0.0,0.0,0.0,0.0,0.0,0.0,0.0,0.0,0.7174,0.7255,0.7325,0.7351,0.716,0.7235,0.7625,0.0,0.0,0.0,0.0,0.0,0.0,0.0,0.0,0.0,0.0,0.0,0.0,0.0,0.0,0.0,0.0,0.0,0.0,0.0,0.0,0.0,0.0,0.0,0.0,0.0,0.0,0.0,0.0,0.0,0.0,0.0,0.0,0.0,0.0,0.0,0.0,0.0,0.0,0.0,0.0,0.0,0.0,0.0,0.0,0.0,0.0,0.0,0.0,0.0,0.0,0.0,0.0,0.0,0.0,0.0,0.0,0.0,0.0,0.0,0.0,0.0,0.0,0.0,0.0,0.0,0.0,0.0,0.0,0.0,0.0,0.0,0.0,0.0,0.0,0.0,0.0,0.0,0.0,0.0,0.0,0.0,0.0,0.0,0.0,0.0,0.0,0.0,0.0,0.0,0.0,0.0,0.0,0.0,0.0,0.0,0.0,0.0,0.0,0.0,0.0,0.0,0.0,0.0,0.0,0.0,0.0,0.0,0.0,0.9087,0.8792,0.8375,0.7828,0.7822,0.7681,0.0,0.0,0.0,0.0,0.0,0.0,0.0,0.0,0.0,0.0,0.0,0.0,0.0,0.0,0.0,0.0,0.0,0.0,0.0,0.0,0.0,0.0,0.0,0.0,0.0,0.0,0.0,0.0,0.0,0.0,0.0,0.0,0.0,0.0,0.0,0.0,0.0,0.0,0.0,0.0,0.0,0.0,0.0,0.0,0.0,0.0,0.0,0.0,0.0,0.0,0.0,0.0,0.0,0.0,0.0,0.0,0.0,0.0,0.0,0.0,0.0,0.0,0.0,0.0,0.0,0.0,0.0,0.0,0.0,0.0,0.0,0.0,0.0,0.0,0.0,0.0,0.0,0.0,0.0,0.0,0.0,0.0,0.0,0.0,0.0,0.0,0.0,0.0,0.0,0.0,0.0,0.0,0.0,0.0,0.0,0.0,0.0,0.0,0.0,0.0,0.0,0.0,0.0,0.0,0.0,0.0,0.0,0.0,0.0,0.9106,0.987,1.0071,0.9664,0.8896,0.8722,0.0,0.0,0.0,0.0,0.0,0.0,0.0,0.0,0.0,0.0,0.0,0.0,0.0,0.0,0.0,0.0,0.0,0.0,0.0,0.0,0.0,0.0,0.0,0.0,0.0,0.0,0.0,0.0,0.0,0.0,0.0,0.0,0.0,0.0,0.0,0.0,0.0,0.0,0.0,0.0,0.0,0.0,0.0,0.0,0.0,0.0,0.0,0.0,0.0,0.0,0.0,0.0,0.0,0.0,0.0,0.0,0.0,0.0,0.0,0.0,0.0,0.0,0.0,0.0,0.0,0.0,0.0,0.0,0.0,0.0,0.0,0.0,0.0,0.0,0.0,0.0,0.0,0.0,0.0,0.0,0.0,0.0,0.0,0.0,0.0,0.0,0.0,0.0,0.0,0.0,0.0,0.0,0.0,0.0,0.0,0.0,0.0,0.0,0.0,0.0,0.0,0.0,0.0,0.0,0.0,0.0,0.0,0.0,0.9345,0.9851,1.0533,1.1071,1.1387,1.0442,0.9919,0.0,0.0,0.0,0.0,0.0,0.0,0.0,0.0,0.0,0.0,0.0,0.0,0.0,0.0,0.0,0.0,0.0,0.0,0.0,0.0,0.0,0.0,0.0,0.0,0.0,0.0,0.0,0.0,0.0,0.0,0.0,0.0,0.0,0.0,0.0,0.0,0.0,0.0,0.0,0.0,0.0,0.0,0.0,0.0,0.0,0.0,0.0,0.0,0.0,0.0,0.0,0.0,0.0,0.0,0.0,0.0,0.0,0.0,0.0,0.0,0.0,0.0,0.0,0.0,0.0,0.0,0.0,0.0,0.0,0.0,0.0,0.0,0.0,0.0,0.0,0.0,0.0,0.0,0.0,0.0,0.0,0.0,0.0,0.0,0.0,0.0,0.0,0.0,0.0,0.0,0.0,0.0,0.0,0.0,0.0,0.0,0.0,0.0,0.0,0.0,0.0,0.0,0.0,0.0,0.0,0.0,0.0,0.0,0.9769,1.0864,1.0993,1.16,1.2731,1.1985,1.102,0.0,0.0,0.0,0.0,0.0,0.0,0.0,0.0,0.0,0.0,0.0,0.0,0.0,0.0,0.0,0.0,0.0,0.0,0.0,0.0,0.0,0.0,0.0,0.0,0.0,0.0,0.0,0.0,0.0,0.0,0.0,0.0,0.0,0.0,0.0,0.0,0.0,0.0,0.0,0.0,0.0,0.0,0.0,0.0,0.0,0.0,0.0,0.0,0.0,0.0,0.0,0.0,0.0,0.0,0.0,0.0,0.0,0.0,0.0,0.0,0.0,0.0,0.0,0.0,0.0,0.0,0.0,0.0,0.0,0.0,0.0,0.0,0.0,0.0,0.0,0.0,0.0,0.0,0.0,0.0,0.0,0.0,0.0,0.0,0.0,0.0,0.0,0.0,0.0,0.0,0.0,0.0,0.0,0.0,0.0,0.0,0.0,0.0,0.0,0.0,0.0,0.0,0.0,0.0,0.0,0.0,0.0,0.0,1.033,1.0901,1.1515,1.2194,1.2951,1.1705,1.1003,0.0,0.0,0.0,0.0,0.0,0.0,0.0,0.0,0.0,0.0,0.0,0.0,0.0,0.0,0.0,0.0,0.0,0.0,0.0,0.0,0.0,0.0,0.0,0.0,0.0,0.0,0.0,0.0,0.0,0.0,0.0,0.0,0.0,0.0,0.0,0.0,0.0,0.0,0.0,0.0,0.0,0.0,0.0,0.0,0.0,0.0,0.0,0.0,0.9546,0.0,0.0,0.0,0.0,0.0,0.0,0.0,0.0,0.0,0.0,0.0,0.0,0.0,0.0,0.0,0.0,0.0,0.0,0.0,0.0,0.0,0.0,0.0,0.0,0.0,0.0,0.0,0.0,0.0,0.0,0.0,0.0,0.0,0.0,0.0,0.0,0.0,0.0,0.0,0.0,0.0,0.0,0.0,0.0,0.0,0.0,0.0,0.0,0.0,0.0,0.0,0.0,0.0,0.0,0.0,0.0,0.0,0.0,0.0,1.0566,1.1173,1.1779,1.2445,1.3103,1.2392,1.1803,0.0,0.0,0.0,0.0,0.0,0.0,0.0,0.0,0.0,0.0,0.0,0.0,0.0,0.0,0.0,0.0,0.0,0.0,0.0,0.0,0.0,0.0,0.0,0.0,0.0,0.0,0.0,0.0,0.0,0.0,0.0,0.0,0.0,0.0,0.0,0.0,0.0,0.0,0.0,0.0,0.0,0.0,0.0,0.0,0.0,0.0,0.0,0.0,0.0,0.0,0.0,0.0,0.0,0.0,0.0,0.0,0.0,0.0,0.0,0.0,0.0,0.0,0.0,0.0,0.0,0.0,0.0,0.0,0.0,0.0,0.0,0.0,0.0,0.0,0.0,0.0,0.0,0.0,0.0,0.0,0.0,0.0,0.0,0.0,0.0,0.0,0.0,0.0,0.0,0.0,0.0,0.0,0.0,0.0,0.0,0.0,0.0,0.0,0.0,0.0,0.0,0.0,0.0,0.0,0.0,0.0,0.0,0.9786,1.0713,1.1577,1.1914,1.2547,1.3457,1.3282,1.2746,1.1833,0.0,0.0,0.0,0.0,0.0,0.0,0.0,0.0,0.0,0.0,0.0,0.0,0.0,0.0,0.0,0.0,0.0,0.0,0.0,0.0,0.0,0.0,0.0,0.0,0.0,0.0,0.0,0.0,0.0,0.0,0.0,0.0,0.0,0.0,0.0,0.0,0.0,0.0,0.9295,1.0605,0.0,0.0,0.0,0.0,0.0,0.0,0.0,0.0,1.106,0.0,0.0,0.0,0.0,0.0,0.0,0.0,0.0,0.0,0.0,0.0,0.0,0.0,0.0,0.0,0.0,0.0,0.0,0.0,0.0,0.0,0.0,0.0,0.0,0.0,0.0,0.0,0.0,0.0,0.0,0.0,0.0,0.0,0.0,0.0,0.0,0.0,0.0,0.0,0.0,0.0,0.0,0.0,0.0,0.0,0.0,0.0,0.0,0.0,0.0,0.0,0.0,0.0,0.0,0.0,0.0,0.998,1.0209,1.0853,1.1975,1.2073,1.2662,1.3827,1.3451,1.2994,1.2544,0.0,0.0,0.0,0.0,0.0,0.0,0.0,0.0,0.0,0.0,0.0,0.0,0.0,0.0,0.0,0.0,0.0,0.0,0.0,0.0,0.0,0.0,0.0,0.0,0.0,0.0,0.0,0.0,0.0,0.0,0.0,0.0,0.0,0.0,0.0,0.0,0.0,0.0,0.0,1.1624,1.2466,0.0,0.0,0.0,0.0,0.0,0.0,0.0,0.0,1.1699,0.0,0.0,0.0,0.0,0.0,0.0,0.0,0.0,0.0,0.0,0.0,0.0,0.0,0.0,0.0,0.0,0.0,0.0,0.0,0.0,0.0,0.0,0.0,0.0,0.0,0.0,0.0,0.0,0.0,0.0,0.0,0.0,0.0,0.0,0.0,0.0,0.0,0.0,0.0,0.0,0.0,0.0,0.0,0.0,0.0,0.0,0.0,0.0,0.0,0.0,0.0,0.0,0.0,0.0,0.0,0.9915,1.0393,1.1126,1.2141,1.2221,1.2645,1.3544,1.314,1.2672,0.0,0.0,0.0,0.0,0.0,0.0,0.0,0.0,0.0,0.0,0.0,0.0,0.0,0.0,0.0,0.0,0.0,0.0,0.0,0.0,0.0,0.0,0.0,0.0,0.0,0.0,0.0,0.0,0.0,0.0,0.0,0.0,0.0,0.0,0.0,0.0,0.0,0.0,0.0,0.0,1.2589,1.349,1.4167,0.0,0.0,0.0,0.0,0.0,0.0,1.2327,1.2739,0.0,0.0,0.0,0.0,0.0,0.0,0.0,0.0,0.0,0.0,0.0,0.0,0.0,0.0,0.0,0.0,0.0,0.0,0.0,0.0,0.0,0.0,0.0,0.0,0.0,0.0,0.0,0.0,0.0,0.0,0.0,0.0,0.0,0.0,0.0,0.0,0.0,0.0,0.0,0.0,0.0,0.0,0.0,0.0,0.0,0.0,0.0,0.0,0.0,0.0,0.0,0.0,0.0,0.0,0.0,0.9714,1.0475,1.1328,1.2289,1.2345,1.2681,1.3365,1.3076,1.2619,0.0,0.0,0.0,0.0,0.0,0.0,0.0,0.0,0.0,0.0,0.0,0.0,0.0,0.0,0.0,0.0,0.0,0.0,0.0,0.0,0.0,0.0,0.0,0.0,0.0,0.0,0.0,0.0,0.0,0.0,0.0,0.0,0.0,0.0,0.0,0.0,0.0,0.0,0.0,0.0,0.0,1.4524,1.5158,1.4568,0.0,0.0,0.0,0.0,1.3909,1.4217,0.0,0.0,0.0,0.0,0.0,0.0,0.0,0.0,0.0,0.0,0.0,0.0,0.0,0.0,0.0,0.0,0.0,0.0,0.0,0.0,0.0,0.0,0.0,0.0,0.0,0.0,0.0,0.0,0.0,0.0,0.0,0.0,0.0,0.0,0.0,0.0,0.0,0.0,0.0,0.0,0.0,0.0,0.0,0.0,0.0,0.0,0.0,0.0,0.0,0.0,0.0,0.0,0.0,0.0,0.0,0.0,0.9843,1.0373,1.1238,1.2404,1.248,1.2985,1.4036,1.4055,1.3572,0.0,0.0,0.0,0.0,0.0,0.0,0.0,0.0,0.0,0.0,0.0,0.0,0.0,0.0,0.0,0.0,0.0,0.0,0.0,0.0,0.0,0.0,0.0,0.0,0.0,0.0,0.0,0.0,0.0,0.0,0.0,0.0,0.0,0.0,0.0,0.0,0.0,0.0,0.0,0.0,0.0,1.5325,1.4622,1.4523,1.4752,0.0,0.0,0.0,1.66,1.7229,0.0,0.0,0.0,0.0,0.0,0.0,0.0,0.0,0.0,0.0,0.0,0.0,0.0,0.0,0.0,0.0,0.0,0.0,0.0,0.0,0.0,0.0,0.0,0.0,0.0,0.0,0.0,0.0,0.0,0.0,0.0,0.0,0.0,0.0,0.0,0.0,0.0,0.0,0.0,0.0,0.0,0.0,0.0,0.0,0.0,0.0,0.0,0.0,0.0,0.0,0.0,0.0,0.0,0.0,0.0,0.9038,0.9951,1.0595,1.1495,1.2577,1.2603,1.3009,1.3836,1.3569,1.3044,0.0,0.0,0.0,0.0,0.0,0.0,0.0,0.0,0.0,0.0,0.0,0.0,0.0,0.0,0.0,0.0,0.0,0.0,0.0,0.0,0.0,0.0,0.0,0.0,0.0,0.0,0.0,0.0,0.0,0.0,0.0,0.0,0.0,0.0,0.0,0.0,0.0,0.0,0.0,0.0,0.0,0.0,1.6535,1.6379,0.0,0.0,0.0,1.7231,1.768,0.0,0.0,0.0,0.0,0.0,0.0,0.0,0.0,0.0,0.0,0.0,0.0,0.0,0.0,0.0,0.0,0.0,0.0,0.0,0.0,0.0,0.0,0.0,0.0,0.0,0.0,0.0,0.0,0.0,0.0,0.0,0.0,0.0,0.0,0.0,0.0,0.0,0.0,0.0,0.0,0.0,0.0,0.0,0.0,0.0,0.0,0.0,0.0,0.0,0.0,0.0,0.0,0.0,0.0,0.0,0.0,0.0,1.0341,1.1071,1.1927,1.2893,1.281,1.3069,1.3742,1.3386,0.0,0.0,0.0,0.0,0.0,0.0,0.0,0.0,0.0,0.0,0.0,0.0,0.0,0.0,0.0,0.0,0.0,0.0,0.0,0.0,0.0,0.0,0.0,0.0,0.0,0.0,0.0,0.6253,0.0,0.0,0.0,0.0,0.0,0.0,0.0,0.0,0.0,0.0,0.0,0.0,0.0,0.0,1.6943,1.8216,1.8071,1.8152,0.0,0.0,1.8971,1.9054,1.9744,1.9741,0.0,0.0,0.0,0.0,0.0,0.0,0.0,0.0,0.0,0.0,0.0,0.0,0.0,0.0,0.0,0.0,0.0,0.0,0.0,0.0,0.0,0.0,0.0,0.0,0.0,0.0,0.0,0.0,0.0,0.0,0.0,0.0,0.0,0.0,0.0,0.0,0.0,0.0,0.0,0.0,0.0,0.0,0.0,0.0,0.0,0.0,0.0,0.0,0.0,0.0,0.0,0.0,0.0,0.0,0.0,1.1294,1.186,1.26,1.3484,1.3113,1.3322,1.4235,1.4228,1.3724,0.0,0.0,0.0,0.0,0.0,0.0,0.0,0.0,0.0,0.0,0.0,0.0,0.0,0.0,0.0,0.0,0.0,0.0,0.0,0.0,0.0,0.0,0.0,0.0,0.0,0.0,0.0,0.0,0.0,0.0,0.0,0.0,0.0,0.0,0.0,0.0,0.0,0.0,0.0,0.0,0.0,1.7803,1.8561,1.8853,1.9462,0.0,0.0,2.0097,2.1431,2.2096,2.1727,1.9536,0.0,0.0,0.0,0.0,0.0,0.0,0.0,0.0,0.0,0.0,0.0,0.0,0.0,0.0,0.0,0.0,0.0,0.0,0.0,0.0,0.0,0.0,0.0,0.0,0.0,0.0,0.0,0.0,0.0,0.0,0.0,0.0,0.0,0.0,0.0,0.0,0.0,0.0,0.0,0.0,0.0,0.0,0.0,0.0,0.0,0.0,0.0,0.0,0.0,0.0,0.0,0.0,0.0,1.0904,1.1471,1.2548,1.3429,1.3982,1.3848,1.4083,1.4766,1.488,1.4399,0.0,0.0,0.0,0.0,0.0,0.0,0.0,0.0,0.0,0.0,0.0,0.0,0.0,0.0,0.0,0.0,0.0,0.0,0.0,0.0,0.0,0.0,0.0,0.0,0.0,0.0,0.0,0.0,0.7736,0.8019,0.8542,0.0,0.0,0.0,0.0,0.0,0.0,0.0,0.0,0.0,0.0,1.8728,1.9994,2.0491,0.0,0.0,2.213,2.2095,2.2601,2.3554,2.3113,2.0032,1.8273,0.0,0.0,0.0,0.0,0.0,0.0,0.0,0.0,0.0,0.0,0.0,0.0,0.0,0.0,0.0,0.0,0.0,0.0,0.0,0.0,0.0,0.0,0.0,0.0,0.0,0.0,0.0,0.0,0.0,0.0,0.0,0.0,0.0,0.0,0.0,0.0,0.0,0.0,0.0,0.0,0.0,0.0,0.0,0.0,0.0,0.0,0.0,0.0,0.0,0.0,0.0,0.0,1.1494,1.1868,1.32,1.4094,1.4514,1.4386,1.4548,1.5085,1.5244,1.4759,0.0,0.0,0.0,0.0,0.0,0.0,0.0,0.0,0.0,0.0,0.0,0.0,0.0,0.0,0.0,0.0,0.0,0.0,0.0,0.0,0.0,0.0,0.0,0.0,0.0,0.0,0.0,0.0,0.859,0.8958,0.907,0.0,0.0,0.0,0.0,0.0,0.0,0.0,0.0,0.0,0.0,1.9482,2.1262,2.1638,2.2154,2.3447,2.323,2.3066,2.3465,2.411,2.3622,2.085,0.0,0.0,0.0,0.0,0.0,0.0,0.0,0.0,0.0,0.0,0.0,0.0,0.0,0.0,0.0,0.0,0.0,0.0,0.0,0.0,0.0,0.0,0.0,0.0,0.0,0.0,0.0,0.0,0.0,0.0,0.87,0.0,0.0,0.0,0.0,0.0,0.0,0.0,0.0,0.0,0.0,0.0,0.0,0.0,0.0,0.0,0.0,0.0,0.0,0.0,0.0,0.0,0.0,0.0,1.268,1.3792,1.4571,1.5074,1.4582,1.4605,1.5097,1.522,1.478,1.3666,0.0,0.0,0.0,0.0,0.0,0.0,0.0,0.0,0.0,0.0,0.0,0.0,0.0,0.0,0.0,0.0,0.0,0.0,0.0,0.0,0.0,0.0,0.0,0.0,0.0,0.0,0.8697,0.8953,0.9268,0.0,0.0,0.0,0.0,0.0,0.0,0.0,0.0,0.0,0.0,1.8378,1.9948,2.2234,2.2088,2.2498,2.4287,2.3246,2.2689,2.4088,2.3775,2.3052,0.0,0.0,0.0,0.0,0.0,0.0,0.0,0.0,0.0,0.0,0.0,0.0,0.0,0.0,0.0,0.0,0.0,0.0,0.0,0.0,0.0,0.0,0.0,0.0,0.0,0.0,0.0,1.2295,1.1585,0.0,0.0,0.0,0.0,0.0,0.0,0.0,0.0,0.0,0.0,0.0,1.5367,1.5972,0.0,0.0,0.0,0.0,0.0,0.0,0.0,0.0,0.0,0.0,0.0,0.0,1.2878,1.377,1.5111,1.6101,1.6598,1.6103,1.5974,1.6204,1.6004,1.5564,1.4796,0.0,0.0,0.0,0.0,0.0,0.0,0.0,0.0,0.0,0.0,0.0,0.0,0.0,0.0,0.0,0.0,0.0,0.0,0.0,0.0,0.0,0.0,0.0,0.0,0.0,0.9825,0.0,0.0,0.0,0.0,0.0,0.0,0.0,0.0,0.0,0.0,0.0,1.656,1.8424,2.0025,2.1622,2.3245,2.3942,2.4556,0.0,0.0,0.0,0.0,0.0,0.0,0.0,0.0,0.0,0.0,0.0,0.0,0.0,0.0,2.0975,1.6932,1.5703,1.5901,1.7869,0.0,0.0,0.0,0.0,0.0,0.0,0.0,0.0,0.0,0.0,0.0,0.0,0.0,0.0,1.4815,0.0,1.4154,0.0,0.0,0.0,0.0,0.0,0.0,0.0,0.0,1.6262,1.715,1.764,1.8234,1.7875,0.0,1.6648,1.5255,0.0,0.0,0.0,0.0,0.0,0.0,0.0,0.0,1.3515,1.4651,1.5998,1.6953,1.7484,1.7194,1.6963,1.6872,1.6252,1.5824,1.5586,1.4261,1.3409,0.0,0.0,0.0,0.0,0.0,0.0,0.0,0.0,0.0,0.0,0.0,0.0,0.0,0.0,0.0,0.0,0.0,0.0,0.0,0.0,0.0,0.0,0.0,1.0339,0.0,0.0,0.0,0.0,0.0,0.0,0.0,0.0,0.0,1.697,1.7506,1.8311,1.9718,2.1293,2.2756,2.4055,0.0,0.0,0.0,0.0,0.0,0.0,0.0,2.4769,2.4963,2.6142,2.6206,2.3466,2.3774,2.4071,2.3148,0.0,0.0,2.0905,1.9091,1.8846,2.1317,2.1239,2.09,2.1376,2.3071,2.4438,0.0,0.0,0.0,0.0,0.0,0.0,0.0,0.0,1.6469,1.679,0.0,1.6674,0.0,0.0,0.0,0.0,0.0,0.0,0.0,0.0,1.8724,1.9546,1.9965,2.0042,1.9587,1.88,1.9408,1.8793,1.6951,1.396,0.0,0.0,0.0,0.0,0.0,0.0,1.4186,1.5383,1.6375,1.7189,1.7835,1.7835,1.7577,1.7036,1.6089,1.5718,1.5971,1.5336,1.4727,1.422,1.3005,0.0,0.0,0.0,0.0,0.0,0.0,0.0,0.0,0.0,0.0,0.0,0.0,0.0,0.0,0.0,0.0,0.0,0.0,0.0,0.0,1.0499,0.0,0.0,0.0,0.0,0.0,0.0,0.0,0.0,0.0,0.0,1.872,1.9726,2.06,2.1019,0.0,0.0,0.0,0.0,2.4972,2.6389,2.5977,2.5731,2.6167,2.5354,2.506,2.6195,0.0,0.0,2.4892,2.5518,2.596,2.4615,2.5436,2.596,2.4553,2.2769,2.2309,2.4219,2.3431,2.2378,2.2591,2.4438,2.5765,2.201,0.0,0.0,0.0,0.0,1.8926,1.9458,2.0658,2.098,2.0338,1.9105,1.9731,0.0,0.0,0.0,0.0,0.0,0.0,1.8891,1.9584,2.104,2.1737,2.1867,2.2579,2.2392,2.1414,2.1296,2.0638,1.9396,1.7767,1.5722,1.3301,0.0,0.0,0.0,0.0,1.6017,1.7039,1.775,1.8375,1.8941,1.856,1.8154,1.773,1.7174,1.7177,1.7855,1.6883,1.6289,1.6231,1.5018,0.0,0.0,0.0,0.0,0.0,0.0,0.0,0.0,0.0,0.0,0.0,0.0,0.0,0.0,0.0,0.0,0.0,0.0,0.0,1.1561,1.2274,1.2867,0.0,0.0,0.0,0.0,0.0,0.0,0.0,0.0,0.0,2.1027,2.1369,2.1772,0.0,0.0,2.4138,2.5203,2.5824,2.6579,2.7705,0.0,0.0,0.0,2.7813,2.7716,2.8989,2.9174,2.8676,2.7457,2.718,2.6811,2.5907,2.615,2.6306,2.5848,2.4594,2.4468,2.642,2.6675,2.6681,2.7568,2.8883,2.9898,2.5827,2.3096,2.2093,2.1959,2.2409,2.1807,2.2433,2.3798,2.3842,2.338,2.2575,2.3008,2.1857,1.9559,1.9174,0.0,0.0,0.0,2.1009,2.1826,2.2733,2.3295,2.3524,2.4113,2.4065,2.3394,2.2911,2.2512,2.2173,2.1044,1.9212,1.675,0.0,0.0,1.5372,1.6154,1.7116,1.8141,1.8511,1.8956,1.9552,1.9019,1.8635,1.8397,1.7742,1.7808,1.8643,1.776,1.7328,1.7516,1.6568,1.5381,0.0,0.0,0.0,0.0,0.0,0.0,0.0,0.0,0.0,0.0,0.0,1.0921,0.0,0.0,0.0,0.0,1.1435,1.2462,1.4161,1.4656,0.0,0.0,0.0,0.0,0.0,0.0,0.0,1.9141,2.0723,2.2156,2.3383,2.3661,2.373,2.373,2.4571,2.5605,2.6635,0.0,2.8192,2.9051,2.9538,2.9722,2.9538,2.9353,2.963,3.0984,3.0399,2.9722,2.9261,2.9014,2.8778,2.8408,2.8506,2.8462,2.7526,2.6908,2.705,2.8703,2.9329,2.9599,2.9535,3.0382,3.1198,2.9123,2.8478,2.6967,2.598,2.5397,2.4907,2.5244,2.6101,2.5536,2.5882,2.6728,2.6271,2.5113,2.3477,2.1774,0.0,0.0,2.2549,2.3145,2.4216,2.4267,2.4548,2.5036,2.5044,2.4957,2.4846,2.4336,2.4346,2.4771,2.3627,2.2536,2.1513,1.9033,1.7854,1.7974,1.7583,1.789,1.9008,1.8983,1.9233,1.9773,1.9321,1.9083,1.912,1.8087,1.7941,1.8767,1.8211,1.7977,1.8225,1.765,1.6688,1.541,0.0,0.0,0.0,0.0,0.0,0.0,0.0,0.0,0.0,0.0,0.0,0.0,0.0,0.0,0.0,1.4667,0.0,1.7077,1.7213,0.0,0.0,0.0,1.6625,1.7302,1.8944,1.9832,1.9395,0.0,0.0,0.0,0.0,2.6225,2.5247,2.6211,2.7408,2.8434,2.9019,2.9684,3.0325,3.0448,3.0325,3.0135,3.0338,3.0953,3.2013,3.1336,3.0522,3.0456,3.0767,3.1116,3.0989,3.1689,3.1535,2.9434,2.9574,3.0245,3.069,3.1254,3.1189,2.9721,2.9928,3.0624,3.2303,3.205,3.1782,3.0044,2.7488,2.7351,2.7379,2.7527,2.7852,2.7552,2.6846,2.7645,2.7494,2.6593,2.5711,2.5691,2.6382,2.6382,2.6575,2.6905,2.7353,2.7123,2.6379,2.6799,2.649,2.5604,2.5407,2.5164,2.4812,2.4504,2.4225,2.3921,2.2949,2.1612,2.0001,2.0205,2.0565,2.0927,2.0473,2.0099,1.9811,1.9673,1.9801,2.0203,1.9081,1.894,1.9846,1.889,1.8502,1.8841,1.8288,1.7574,1.6754,1.497,0.0,0.0,0.0,0.0,0.0,0.0,0.0,0.0,0.0,1.4128,1.202,0.0,1.3668,0.0,1.6175,1.7052,1.7244,1.7763,0.0,0.0,1.9109,1.9484,2.112,2.1606,2.214,2.2983,2.4481,2.5771,2.6624,2.7471,2.7982,2.7931,2.7883,2.8093,2.8565,2.9236,3.0042,3.0931,3.1151,3.1318,3.1613,3.1828,3.2013,3.2334,3.1719,3.1164,3.1164,3.1154,3.1184,3.1221,3.1765,3.1911,3.1618,3.098,3.1247,3.2678,3.2479,3.1669,3.1155,3.1267,3.145,3.3454,3.3407,3.3499,3.2363,3.0535,3.0147,2.9915,2.9812,2.9841,2.9247,2.8296,2.8637,2.8561,2.8129,2.7794,2.781,2.8129,2.8158,2.8165,2.8226,2.8554,2.8337,2.7654,2.7991,2.7781,2.7068,2.6794,2.6448,2.6071,2.552,2.5243,2.5243,2.4693,2.3903,2.2933,2.2187,2.1745,2.1544,2.0992,2.0402,1.9849,2.0016,2.0182,2.0219,1.9844,1.9833,2.0301,1.9415,1.91,1.9517,1.8927,1.8317,1.767,1.6613,1.5677,0.0,0.0,0.0,0.0,0.0,0.0,0.0,0.0,0.0,0.0,0.0,1.5416,0.0,1.7885,1.8829,1.9346,1.9994,2.0801,2.182,2.1722,2.2113,2.3497,2.3769,2.4155,2.4897,2.5952,2.713,2.8424,2.8771,2.9131,2.9752,2.9784,2.9795,2.9937,3.0527,3.1185,3.174,3.1842,3.1965,3.2351,3.2427,3.2427,3.2379,3.2305,3.22,3.2213,3.2558,3.2834,3.2898,3.3418,3.3896,3.3918,3.3546,3.3478,3.3995,3.4121,3.3593,3.2938,3.2534,3.2283,3.3754,3.3754,3.3754,3.3769,3.3677,3.2942,3.247,3.2134,3.1537,3.0989,3.0423,2.9721,2.9359,2.9274,2.9274,2.9187,2.9101,2.9114,2.9071,2.8955,2.8984,2.8969,2.8881,2.8853,2.8781,2.8708,2.8129,2.784,2.7782,2.672,2.6139,2.601,2.5475,2.5379,2.5712,2.3821,2.2518,2.1834,2.1218,2.0687,2.0283,2.0552,2.0525,2.0233,2.0522,2.0653,2.0598,1.9981,1.9794,2.0184,1.9653,1.9063,1.8482,1.8279,1.7867,0.0,1.6915,0.0,0.0,0.0,0.0,0.0,0.0,0.0,0.0,1.733,1.7608,1.8353,1.9692,2.0984,2.201,2.2675,2.3351,2.4106,2.416,2.4375,2.4989,2.5562,2.5953,2.6022,2.7156,2.859,3.0152,3.0041,3.0147,3.1102,3.1721,3.198,3.1921,3.2109,3.2307,3.2488,3.2458,3.2427,3.2673,3.2581,3.2458,3.253,3.2846,3.3214,3.3124,3.3996,3.4771,3.4936,3.5352,3.582,3.5922,3.6049,3.5876,3.5159,3.5559,3.5594,3.4328,3.35,3.3076,3.5114,3.513,3.513,3.5114,3.5114,3.4939,3.4188,3.3059,3.2935,3.2711,3.243,3.2297,3.2192,3.2177,3.2177,3.1836,3.123,3.1336,3.1013,3.0397,3.0558,3.0366,2.9837,2.9709,2.9388,2.8891,2.8605,2.852,2.852,2.8259,2.7882,2.7347,2.7216,2.6728,2.5914,0.0,0.0,0.0,2.2602,2.2273,2.2587,2.172,2.1648,2.2422,2.1562,0.0,2.1653,2.1042,2.0732,2.0804,2.0698,0.0,0.0,0.0,0.0,0.0,0.0,0.0,0.0,0.0,0.0,0.0,1.921,1.8775,1.7504,1.9544,2.059,1.9734,2.1855,2.3164,2.2839,2.3457,2.4137,2.4753,2.5168,2.5645,2.6329,2.6861,2.7335,2.7858,2.8296,2.9116,3.0545,3.1168,3.1778,3.2491,3.3396,3.3915,3.3854,3.305,3.2628,3.3059,3.2827,3.2889,3.3936,3.3166,3.2827,3.3037,3.3185,3.3264,3.3364,3.4136,3.4861,3.5026,3.5487,3.5888,3.6019,3.6062,3.6069,3.6011,3.6146,3.587,3.4431,3.3983,3.3879,3.605,0.0,3.5639,3.5489,0.0,3.5489,3.5082,3.4361,3.4033,3.3627,3.3145,3.3145,3.3098,3.3006,3.3006,3.2783,3.2395,3.2488,3.2104,3.1424,3.1514,3.1205,3.0601,3.0514,3.0294,2.997,2.9491,2.9288,2.9288,2.8953,2.8604,2.8216,2.8256,2.7799,2.6826,2.6483,2.5597,2.411,2.3541,2.3259,2.3292,2.2926,2.2729,2.2714,0.0,0.0,0.0,0.0,0.0,0.0,0.0,0.0,0.0,0.0,0.0,1.9556,1.944,1.9506,1.9694,1.9955,2.0366,2.1092,2.1478,2.1254,2.0232,2.1565,2.2444,2.246,2.375,2.4643,2.4858,2.5206,2.5696,2.6287,2.6596,2.7002,2.762,2.7941,2.8445,2.9295,2.9765,3.0467,3.1722,3.2469,3.3095,3.3668,3.4149,3.4505,3.4443,3.3919,3.3597,3.3891,3.3689,3.3659,3.4336,3.4613,3.4182,3.4115,3.4327,3.4447,3.4135,3.503,3.5763,3.5565,3.5734,3.5954,3.6159,3.618,3.6202,3.6252,3.6284,3.6111,3.5294,3.488,3.4638,3.6679,3.6514,3.6077,3.5865,3.5848,3.5832,3.5848,3.5789,0.0,0.0,0.0,3.3687,3.3594,3.3439,3.3439,3.3335,3.323,3.3246,3.2891,3.2239,3.224,3.1945,3.1338,3.1324,3.1264,3.1087,3.0411,3.0118,3.0089,2.9561,2.9168,2.8982,2.9037,2.866,2.7897,2.7374,2.634,2.4818,2.4518,2.4243,2.3948,2.4147,2.3811,2.2931,2.3664,2.3558,2.2543,2.2373,2.2265,2.2149,2.1627,2.1336,2.1365,2.1848,2.2149,2.2167,2.2687,2.2988,2.2959,2.2878,2.2857,2.2969,2.3289,2.3451,2.3398,2.341,2.3928,2.5206,2.5415,2.5935,2.6877,2.6975,2.7228,2.7904,2.8072,2.8352,2.8884,2.9093,2.9601,3.0572,3.1108,3.1856,3.3001,3.3603,3.4167,3.462,3.4848,3.4874,3.4829,3.4767,3.4613,3.4659,3.4736,3.486,3.5014,3.5629,3.5968,3.4904,3.5492,3.5907,3.5604,3.6206,3.6706,3.6329,3.6235,3.6277,3.6265,3.6273,3.6284,3.6284,3.6284,3.6284,3.6249,3.5846,3.5432,3.6844,3.6706,3.7205,3.7301,3.7135,3.7135,3.7118,3.7045,3.5878,3.5294,3.5188,3.5201,3.5172,3.5155,3.5155,3.4747,3.4054,3.4212,3.3868,0.0,3.3242,3.293,3.2333,3.2199,3.1842,3.1278,3.1043,3.094,3.0911,3.0822,3.0498,2.9969,2.981,2.9345,2.8622,2.8462,2.8031,2.7204,2.6156,2.5846,2.6294,2.5316,2.4963,2.5274,2.4867,2.4377,2.3693,2.3624,2.3368,2.2812,2.2667,2.2638,2.2638,2.2725,2.2783,2.2812,2.3374,2.3687,2.3611,2.4065,2.4733,2.5473,2.5418,2.5115,2.4639,2.5125,2.5727,2.6343,2.6989,2.7482,2.7636,2.7692,2.7959,2.8536,2.9055,2.9526,2.9955,3.049,3.1033,3.1687,3.1845,3.2445,3.3699,3.4339,3.4924,3.544,3.5783,3.6153,3.5999,3.5737,3.5383,3.5445,3.5845,3.6153,3.6122,3.6307,3.6184,3.5521,3.5887,3.6324,3.6202,3.7132,3.7659,3.7226,3.7064,3.6867,3.6469,3.6284,3.6284,3.6284,3.6284,3.6284,3.6284,3.6167,3.6142,3.7008,3.6905,3.7193,3.7265,3.7181,3.7442,3.7541,3.7511,3.684,3.6357,3.6014,3.5669,3.5489,3.5489,3.5489,3.5291,3.4898,3.5008,3.465,3.3975,3.4037,3.3679,3.3095,3.3005,3.2586,3.196,3.1812,3.1575,3.1249,3.122,3.0998,3.063,3.0234,2.9796,2.936,2.901,2.8633,2.8245,2.7334,2.6845,2.6794,2.6239,2.5897,2.5819,2.5487,2.5052,2.4442,2.4454,2.4297,2.3954,2.3954,2.3995,2.3995,2.3954,2.3943,2.3943,2.4227,2.4679,2.5354,2.6257,2.6889,2.7186,2.706,2.6976,2.7018,2.6862,2.7029,2.7674,2.807,2.8423,2.8745,2.8963,2.9268,2.9629,3.0139,3.0594,3.0895,3.1394,3.1968,3.2594,3.3187,3.387,3.4795,3.5378,3.5813,3.6133,3.6383,3.6507,3.6507,3.6245,3.603,3.6091,3.6338,3.6445,3.6507,3.6507,3.6369,3.6061,3.6774,3.7136,3.7122,3.7924,3.8362,3.7991,3.7612,3.7244,3.6928,3.657,3.6353,3.6284,3.6284,3.6284,3.6294,3.6461,3.6681,3.717,3.7054,3.7391,3.7541,3.7704,3.8067,3.8211,3.8193,3.7893,3.7511,3.7,3.6271,3.5832,3.5729,3.5729,3.5639,3.5519,3.5489,3.522,3.4757,3.4727,3.4368,3.3769,3.3724,3.3365,3.2766,3.2631,3.2303,3.1856,3.1633,3.1411,3.1131,3.0629,3.0306,3.0162,2.9663,2.9284,2.8996,2.8488,2.7907,2.7256,2.7097,2.6736,2.6271,2.6081,2.5732,2.5151,2.5093,2.5023,2.4824,2.4878,2.4977,2.5093,2.5069,2.5143,2.5392,2.5462,2.5955,2.7126,2.8031,2.854,2.8469,2.8354,2.8566,2.9003,2.8511,2.8333,2.8955,2.9095,2.9364,2.9938,3.0303,3.0562,3.072,3.117,3.15,3.1662,3.2167,3.2819,3.3475,3.4348,3.5131,3.5759,3.6242,3.6445,3.6461,3.6507,3.6507,3.6507,3.6507,3.6492,3.6507,3.6507,3.6507,3.6538,3.68,3.6876,3.68,3.7732,3.8185,3.8243,3.8875,3.9228,3.8837,3.8276,3.7931,3.7756,3.7329,3.6881,3.6732,3.6663,3.6602,3.6506,3.6884,3.7265,3.7333,3.7372,3.8424,3.9268,3.9664,3.969,3.9672,3.9642,3.9096,3.884,3.8516,3.7695,3.6913,3.6447,3.642,3.6104,3.5549,3.5519,3.5489,3.54,3.54,3.504,3.4428,3.4398,3.4069,3.3484,3.3409,3.3304,3.3125,3.2647,3.199,3.1337,3.1204,3.1101,3.0969,3.0896,3.0587,2.9968,2.9909,2.9429,2.8534,2.7926,2.7579,2.7521,2.701,2.64,2.5819,2.5732,2.5458,2.4882,2.4924,2.5181,2.5674,2.572,2.6242,2.7289,2.7405,2.7767,2.8433,2.8608,2.89,2.9246,2.9304,2.9474,2.9924,2.9787,2.9831,3.0254,3.0375,3.0584,3.1218,3.1326,3.1354,3.1481,3.1966,3.2229,3.2302,3.3004,3.3875,3.4409,3.4993,3.5597,3.6227,3.6445,3.6507,3.6507,3.6569,3.663,3.6615,3.6723,3.6708,3.6724,3.6616,3.6554,3.6631,3.7474,3.7723,3.7618,3.8456,3.9083,3.9402,3.9845,4.0348,3.9709,3.9399,3.9066,3.8663,3.8399,3.8088,3.7523,3.7348,3.7306,3.7066,3.7442,3.7964,3.6876,3.692,3.8239,3.9385,4.0143,3.9337,3.9164,3.9438,3.8679,3.8355,3.8307,3.7882,3.756,3.7382,3.7265,3.6854,3.6206,3.6137,3.5878,3.5519,3.5489,3.534,3.51,3.51,3.4757,3.4128,3.4099,3.3873,3.3514,3.3215,3.2736,3.2079,3.202,3.1752,3.1279,3.1234,3.1042,3.0689,3.0675,3.0513,3.003,2.8994,2.8427,2.837,2.8082,2.7823,2.7533,2.7504,2.7388,2.7142,2.7113,2.7256,2.7517,2.7504,2.7736,2.8274,2.8638,2.8942,2.9218,2.9595,2.9885,3.0087,3.0358,3.0612,3.0794,3.0737,3.0993,3.174,3.1643,3.1499,3.1572,3.1708,3.2016,3.2442,3.2947,3.334,3.3729,3.4418,3.5041,3.5253,3.5736,3.6147,3.6414,3.6507,3.6507,3.6569,3.68,3.7123,3.7108,3.7495,3.7667,3.7374,3.7157,3.6953,3.6922,3.7621,3.8023,3.8066,3.8704,3.9551,3.9834,4.0303,4.0578,4.0422,4.0043,3.9698,3.9319,3.8847,3.8468,3.8165,3.8049,3.8053,3.8586,3.8473,3.8546,3.6661,3.6707,3.7769,3.8891,3.9828,3.8758,3.8678,3.9134,3.8418,3.8185,3.8321,3.8138,3.8064,3.8111,3.7893,3.7486,3.7014,3.6867,3.654,3.6028,3.5878,3.5789,3.5759,3.5533,3.525,3.4847,3.4787,3.4428,3.3829,3.3769,3.344,3.2841,3.2602,3.2198,3.1663,3.1469,3.1307,3.122,3.1205,3.1205,3.1042,3.0144,2.9427,2.9196,2.8881,2.8666,2.8666,2.8666,2.8666,2.868,2.8666,2.8666,2.8666,2.8666,2.8782,2.8985,2.9537,2.9856,2.9885,3.048,3.0844,3.0902,3.1315,3.1628,3.1625,3.1597,3.1988,3.2806,3.3061,3.2979,3.2286,3.2381,3.2794,3.3432,3.3755,3.4172,3.4793,3.5397,3.5672,3.58,3.6195,3.66,3.6677,3.6909,3.7126,3.7049,3.7543,3.7929,3.7991,3.8444,3.8649,3.8214,3.7886,3.7566,3.7378,3.8155,3.8432,3.8682,3.9342,3.9982,4.0083,4.0512,4.0728,4.0607,4.0262,4.0089,4.0055,3.9572,3.9178,3.9077,3.8965,3.9035,3.9831,3.9487,3.9648,3.7092,3.6661,3.7246,3.8046,3.8584,3.8506,3.8875,3.9412,3.8719,3.8797,3.9149,3.8688,3.8475,3.8411,3.808,3.7859,3.7664,3.763,3.7515,3.7182,3.6703,3.6464,3.6404,3.5818,3.5489,3.5459,3.537,3.5086,3.4488,3.4458,3.4128,3.347,3.2916,3.2542,3.2333,3.1825,3.1496,3.1512,3.1482,3.1482,3.1453,3.1262,3.0688,2.9913,2.9129,2.8796,2.8767,2.8738,2.8724,2.8709,2.8796,2.8767,2.8738,2.8753,2.9014,2.9566,3.0205,3.0569,3.0641,3.1148,3.1452,3.1539,3.2046,3.2423,3.2436,3.249,3.2744,3.3194,3.4548,3.4912,3.3926,3.3591,3.3808,3.4283,3.4211,3.4442,3.4909,3.5559,3.5721,3.5944,3.6399,3.6832,3.7016,3.7841,3.8091,3.8122,3.8559,3.9043,3.9043,3.9121,3.9233,3.9172,3.8795,3.8193,3.8002,3.8557,3.9375,3.959,3.9842,4.0607,4.0764,4.0883,4.0883,4.0883,4.0745,4.0676,4.0791,4.0724,4.0502,4.0302,4.0035,4.024,4.0999,4.1209,4.1265,3.8245,3.8385,3.8231,3.8768,3.9661,3.8861,3.8891,3.9414,3.8799,3.8385,3.82,3.7954,3.7861,3.7845,3.7716,3.7813,3.8108,3.8385,3.8215,3.7622,3.7365,3.7207,3.7015,3.6417,3.6164,3.6088,3.5699,3.537,3.516,3.513,3.4817,3.4248,3.3919,3.359,3.3095,3.2482,3.2138,3.2079,3.175,3.1511,3.1496,3.1365,3.113,3.0806,3.0338,3.0002,2.9915,2.99,2.9929,2.9929,2.9929,2.9929,2.9915,2.99,3.019,3.0756,3.1046,3.1365,3.1758,3.2003,3.2148,3.2177,3.2745,3.3138,3.3196,3.347,3.3786,3.4151,3.4892,3.5237,3.5024,3.4776,3.4971,3.5429,3.5494,3.5593,3.6117,3.643,3.6554,3.6631,3.6861,3.723,3.7883,3.8306,3.8636,3.9015,3.9629,3.9991,4.0165,4.0481,4.0688,4.042,4.0444,4.0338,3.9458,3.9249,3.9467,3.9855,4.0207,4.0643,4.0917,4.0929,4.0929,4.0883,4.0894,4.0894,4.086,4.0943,4.0942,4.12,4.0938,4.1332,4.212,4.2099,4.2089,3.8768,3.9076,3.8692,3.9014,3.9722,3.8891,3.8891,3.9384,3.8799,3.8354,3.8138,3.7954,3.7831,3.7861,3.8046,3.8336,3.865,3.874,3.8523,3.8124,3.7912,3.7845,3.7803,3.7194,3.689,3.677,3.6181,3.5729,3.5519,3.5489,3.525,3.4847,3.4653,3.4294,3.3754,3.3155,3.2826,3.2736,3.2362,3.2049,3.1855,3.1736,3.1544,3.1307,3.1058,3.0851,3.0672,3.0613,3.0598,3.0598,3.0598,3.067,3.0858,3.1105,3.138,3.1771,3.18,3.2003,3.2439,3.2687,3.2832,3.2861,3.3429,3.3827,3.4038,3.4455,3.4727,3.4988,3.5639,3.6039,3.596,3.6055,3.6228,3.6384,3.6352,3.6569,3.706,3.7339,3.762,3.7916,3.8131,3.8473,3.8912,3.9229,3.9594,4.0038,4.0658,4.1055,4.1166,4.1517,4.1836,4.1342,4.1522,4.1725,4.1413,4.1202,4.0811,4.1014,4.0901,4.113,4.117,4.1101,4.0963,4.0929,4.0894,4.0894,4.0942,4.1059,4.1333,4.1682,4.2014,4.2323,4.271,4.2839,4.2877,3.86,3.8662,3.8522,3.8692,3.8861,3.8738,3.8953,3.9414,3.8891,3.8953,3.9168,3.8785,3.8477,3.8569,3.8922,3.9353,3.918,3.8616,3.854,3.8796,3.8324,3.8355,3.8793,3.8094,3.763,3.7536,3.6877,3.6164,3.5609,3.5609,3.5549,3.537,3.4831,3.4607,3.4488,3.3859,3.3514,3.347,3.3365,3.3095,3.2602,3.2497,3.2169,3.1529,3.1426,3.1294,3.0939,3.0731,3.0613,3.0598,3.0598,3.0887,3.1423,3.1974,3.2439,3.2497,3.2497,3.251,3.2642,3.318,3.3487,3.3545,3.4022,3.4485,3.4903,3.5191,3.5416,3.5817,3.6631,3.7225,3.7014,3.7333,3.7452,3.7028,3.6861,3.7076,3.7487,3.8111,3.882,3.9402,3.9667,4.0013,4.0188,4.0476,4.0876,4.1165,4.1581,4.1981,4.1949,4.2078,4.2077,4.2109,4.2269,4.254,4.2946,4.3219,4.2773,4.2434,4.2093,4.2021,4.1849,4.1723,4.1343,4.124,4.1011,4.1011,4.0942,4.1082,4.1611,4.2031,4.2553,4.3046,4.3303,4.3478,4.3642,4.0096,4.0062,3.9927,3.9876,3.9876,3.9876,4.003,4.0153,3.9937,3.9753,3.9507,3.9291,3.8953,3.8614,3.8738,3.883,3.8768,3.8518,3.8694,3.9032,3.8876,3.8855,3.8905,3.8732,3.8296,3.7767,3.7476,3.6924,3.6314,3.6178,3.5968,3.5549,3.531,3.519,3.513,3.4532,3.4188,3.4128,3.3739,3.3365,3.3185,3.3185,3.3035,3.284,3.272,3.2628,3.2507,3.1379,3.0761,3.0746,3.0643,3.0873,3.1481,3.2148,3.2671,3.3138,3.3196,3.3412,3.3773,3.3964,3.408,3.4138,3.4312,3.4639,3.512,3.5351,3.5657,3.6117,3.6815,3.7395,3.7972,3.8459,3.8371,3.7672,3.7962,3.8279,3.8556,3.9173,3.9521,3.9612,3.9974,4.0371,4.0784,4.1249,4.1606,4.1977,4.2284,4.2413,4.2429,4.2429,4.2618,4.2815,4.3104,4.334,4.3712,4.4109,4.4089,4.3575,4.3191,4.2849,4.2608,4.224,4.1861,4.1657,4.1416,4.1174,4.1093,4.1473,4.2112,4.2402,4.2914,4.3393,4.3868,4.4016,4.4016,4.1426,4.1158,4.1024,4.0783,4.0522,4.0505,4.0505,4.0505,4.0505,4.0276,3.9907,3.9876,3.963,3.9322,3.9261,3.923,3.9199,3.9014,3.9009,3.9232,3.9031,3.9025,3.9137,3.9116,3.8732,3.8193,3.8069,3.7652,3.6883,3.6806,3.6507,3.5968,3.5878,3.5729,3.5519,3.51,3.4877,3.4817,3.4488,3.4113,3.3919,3.3859,3.3769,3.3529,3.3422,3.3376,3.3286,3.2284,3.1659,3.1581,3.1589,3.186,3.228,3.2874,3.3396,3.3719,3.3864,3.401,3.437,3.4353,3.4501,3.4652,3.4702,3.5037,3.5607,3.5881,3.6258,3.7095,3.7648,3.8233,3.9017,3.9418,3.9342,3.8959,3.9265,3.9681,3.9938,4.0371,4.0708,4.0786,4.1042,4.1345,4.1632,4.184,4.2132,4.2522,4.2619,4.2619,4.2666,4.2758,4.3034,4.3413,4.3756,4.4102,4.4479,4.4886,4.5296,4.4811,4.4216,4.385,4.3517,4.293,4.246,4.2621,4.2508,4.1882,4.1731,4.2518,4.3156,4.3282,4.3447,4.3635,4.4016,4.4016,4.4016,4.2567,4.1917,4.1852,4.1393,4.0766,4.0646,4.0681,4.0663,4.0522,4.0526,4.0516,4.0433,4.043,4.0443,4.0259,4.0259,4.0351,3.9828,3.9653,3.9563,3.9192,3.9114,3.9378,3.929,3.9038,3.8733,3.8663,3.8241,3.7546,3.7481,3.7135,3.6613,3.6523,3.6224,3.5759,3.5533,3.5519,3.54,3.54,3.507,3.4578,3.4548,3.4308,3.3754,3.3754,3.3768,3.3753,3.3493,3.3156,3.2873,3.3051,3.3245,3.3549,3.4051,3.4295,3.4295,3.4399,3.4353,3.4382,3.4501,3.4685,3.5054,3.534,3.5716,3.6584,3.7049,3.7621,3.8613,3.8933,3.9401,4.0131,4.0399,4.0428,4.058,4.0533,4.0824,4.1499,4.1614,4.1729,4.2247,4.2554,4.2586,4.2457,4.2505,4.2554,4.2586,4.2619,4.2602,4.2789,4.3021,4.3277,4.3706,4.424,4.4541,4.4852,4.5042,4.5397,4.5251,4.4842,4.4686,4.4318,4.3778,4.317,4.3332,4.3582,4.2916,4.2774,4.3514,4.413,4.442,4.4404,4.4178,4.4283,4.4581,4.4618,4.3093,4.2879,4.2662,4.2395,4.211,4.1542,4.1525,4.1788,4.0888,4.0837,4.1074,4.0715,4.0543,4.0522,4.0539,4.0505,4.0464,4.0358,4.0555,4.0832,4.0271,3.9756,3.956,3.9456,3.929,3.9068,3.8944,3.8745,3.8361,3.8162,3.7793,3.7195,3.7165,3.6866,3.6327,3.6271,3.5955,3.5579,3.5535,3.5508,3.5344,3.5284,3.516,3.5011,3.4937,3.4937,3.4935,3.4804,3.4109,3.3091,3.34,3.3654,3.3774,3.4201,3.4517,3.4517,3.445,3.4399,3.4484,3.4831,3.5054,3.5277,3.6172,3.6947,3.7592,3.8372,3.9089,3.9772,4.0045,4.0408,4.1067,4.1261,4.1486,4.1874,4.1581,4.1549,4.2084,4.2343,4.244,4.2586,4.2619,4.2619,4.2619,4.2619,4.2619,4.2619,4.2618,4.2743,4.2958,4.3232,4.3469,4.4112,4.4638,4.4859,4.511,4.5257,4.541,4.5437,4.5342,4.5403,4.5082,4.4703,4.412,4.379,4.4514,4.4243,4.4205,4.4601,4.5085,4.5774,4.5828,4.5881,4.5807,4.5955,4.5844,4.3982,4.3662,4.3439,4.3123,4.2738,4.2189,4.2141,4.2316,4.1706,4.1542,4.1787,4.1525,4.116,4.0939,4.1194,4.1175,4.0973,4.1194,4.1575,4.1772,4.1518,4.0815,4.0104,3.9694,3.9375,3.9222,3.9082,3.8892,3.8672,3.848,3.817,3.7883,3.7823,3.7494,3.6959,3.7187,3.7152,3.687,3.6743,3.6766,3.6766,3.6459,3.6101,3.5989,3.5862,3.5798,3.5538,3.5375,3.4812,3.4133,3.4316,3.4607,3.4653,3.4983,3.5237,3.525,3.5136,3.5037,3.5129,3.5603,3.6093,3.6491,3.7413,3.8183,3.8826,3.953,4.0077,4.0661,4.0858,4.1322,4.184,4.2002,4.2229,4.2408,4.2261,4.2197,4.2586,4.2586,4.2586,4.2619,4.2619,4.2619,4.2619,4.2619,4.2619,4.2619,4.2619,4.2867,4.3171,4.3424,4.3823,4.4499,4.4961,4.5177,4.527,4.5423,4.5572,4.5632,4.5727,4.5829,4.5768,4.5526,4.531,4.5035,4.5479,4.5795,4.5765,4.6086,4.6946,4.7445,4.7536,4.7181,4.6847,4.6847,4.681,4.4967,4.4305,4.4164,4.3702,4.3121,4.2785,4.28,4.2785,4.2536,4.252,4.2583,4.2536,4.2046,4.1656,4.2029,4.2125,4.164,4.2062,4.2426,4.2535,4.2453,4.1962,4.1071,4.0254,3.9879,3.9649,3.9327,3.9382,3.9409,3.9117,3.8789,3.8836,3.8797,3.8327,3.8024,3.8331,3.8622,3.849,3.8388,3.8354,3.8291,3.7883,3.7435,3.7111,3.6986,3.6766,3.637,3.61,3.5926,3.5442,3.5748,3.5757,3.5852,3.6213,3.6476,3.6475,3.6301,3.6189,3.6358,3.6987,3.7489,3.8075,3.8779,3.9472,4.0066,4.0442,4.0887,4.1385,4.1571,4.1924,4.2343,4.2554,4.2554,4.2586,4.2554,4.2586,4.2619,4.2619,4.2619,4.2619,4.2619,4.2619,4.2619,4.2619,4.2619,4.2618,4.2727,4.3111,4.3499,4.391,4.4325,4.4872,4.523,4.5476,4.5515,4.5541,4.5749,4.5854,4.6043,4.6191,4.6339,4.6258,4.6353,4.6435,4.6647,4.6933,4.7192,4.7741,4.8483,4.8493,4.8139,4.7553,4.707,4.7367,4.7441,4.5283,4.5136,4.4981,4.4845,4.4611,4.3997,4.3982,4.4297,4.3212,4.3091,4.3272,4.2831,4.2473,4.2284,4.2505,4.2411,4.2316,4.2552,4.2754,4.3272,4.3287,4.3209,4.2594,4.1668,4.1083,4.0879,4.0785,4.0944,4.1196,4.0806,4.0679,4.0221,4.0333,4.0214,3.923,3.9672,3.9802,3.9393,3.9344,3.9404,3.9403,3.9197,3.8931,3.87,3.8685,3.8717,3.867,3.8623,3.8592,3.8169,3.7124,3.6459,3.6506,3.6739,3.7186,3.756,3.7577,3.7717,3.8231,3.8654,3.9015,3.9266,4.0149,4.0877,4.0894,4.153,4.1819,4.2013,4.214,4.2298,4.2538,4.2619,4.2619,4.2619,4.2619,4.2634,4.2619,4.2619,4.2619,4.2619,4.2619,4.2619,4.2619,4.2602,4.2618,4.2649,4.2973,4.3398,4.3866,4.4381,4.4811,4.5288,4.5533,4.5761,4.579,4.5854,4.6043,4.624,4.641,4.6519,4.6695,4.6947,4.7026,4.7291,4.7648,4.7911,4.7957,4.852,4.9021,4.8881,4.8696,4.8296,4.7999,4.811,4.8149,4.5397,4.5384,4.5243,4.519,4.5123,4.4694,4.4666,4.4824,4.4231,4.4001,4.4131,4.3735,4.338,4.3015,4.3305,4.335,4.3106,4.3365,4.368,4.3972,4.4016,4.4049,4.3953,4.3252,4.2598,4.1731,4.1299,4.151,4.1642,4.1597,4.1199,4.1198,4.1499,4.1113,4.0626,4.1071,4.1293,4.1082,4.0927,4.0886,4.0901,4.053,4.0174,3.9902,3.9672,3.9501,3.9423,3.9439,3.9454,3.928,3.8698,3.8228,3.8289,3.8545,3.8946,3.9247,3.9175,3.9257,3.97,4.0177,4.0478,4.0525,4.1447,4.1753,4.1881,4.2283,4.2396,4.2381,4.2429,4.2508,4.2603,4.2619,4.2619,4.2634,4.2665,4.276,4.2711,4.2681,4.2619,4.2619,4.2619,4.2697,4.2728,4.2789,4.3036,4.3202,4.3368,4.3764,4.4418,4.4906,4.5241,4.5628,4.5819,4.6018,4.6092,4.6216,4.641,4.6625,4.6836,4.6926,4.7051,4.7392,4.7684,4.7951,4.8145,4.8244,4.8417,4.8984,4.929,4.9002,4.8853,4.889,4.8853,4.8704,4.8729,4.5466,4.5569,4.5476,4.5471,4.5547,4.5507,4.5487,4.5466,4.5391,4.5253,4.5001,4.4987,4.4404,4.3929,4.4222,4.4179,4.3972,4.4164,4.444,4.4454,4.4468,4.4468,4.4421,4.4206,4.3624,4.2073,4.2091,4.2048,4.1972,4.1598,4.2015,4.1979,4.2077,4.198,4.1949,4.2348,4.2627,4.2526,4.2485,4.2477,4.2474,4.2026,4.1548,4.1161,4.0782,4.0538,4.0585,4.0475,4.0302,4.0177,4.0664,4.0921,4.0992,4.0896,4.1154,4.1125,4.0862,4.0936,4.1151,4.1556,4.1866,4.1913,4.2322,4.2584,4.2601,4.2585,4.2602,4.2602,4.2618,4.2697,4.2665,4.2711,4.2711,4.2711,4.2836,4.2915,4.2899,4.2758,4.2727,4.2696,4.2774,4.2867,4.3036,4.3174,4.3472,4.3768,4.3943,4.4226,4.4892,4.5412,4.5768,4.597,4.6191,4.6265,4.6326,4.7081,4.7216,4.7595,4.7706,4.7787,4.793,4.853,4.8926,4.839,4.8422,4.8681,4.8934,4.9307,4.9375,4.9058,4.9299,4.9707,4.9596,4.9262,4.9513,4.5776,4.641,4.6397,4.6693,4.721,4.7252,4.7155,4.7258,4.701,4.661,4.5938,4.573,4.5255,4.4651,4.4483,4.4483,4.4446,4.4525,4.4567,4.4567,4.4567,4.4567,4.4567,4.4567,4.4297,4.4235,4.3887,4.3734,4.3781,4.3848,4.3215,4.3074,4.3252,4.317,4.2835,4.3116,4.3388,4.3295,4.3292,4.33,4.3249,4.3135,4.2973,4.2733,4.252,4.2538,4.2697,4.2807,4.2918,4.2933,4.3023,4.3005,4.2693,4.1946,4.1776,4.2059,4.2133,4.2224,4.27,4.2918,4.31,4.3088,4.3032,4.2944,4.2884,4.2837,4.2774,4.2727,4.2774,4.2899,4.3006,4.304,4.3038,4.3054,4.3167,4.3231,4.3215,4.3248,4.3263,4.3423,4.3292,4.3141,4.3368,4.3665,4.4026,4.4409,4.4715,4.4926,4.539,4.5895,4.63,4.641,4.6506,4.6542,4.6554,4.757,4.827,4.8889,4.9134,4.9274,4.9537,5.0151,5.0213,4.9516,4.9298,4.9547,4.9731,4.9757,4.97,4.9559,5.0042,5.0673,5.0392,5.0193,5.0784,4.6824,4.7169,4.7169,4.7376,4.7686,4.7686,4.7686,4.7707,4.7617,4.7299,4.6947,4.6711,4.6195,4.5495,4.5269,4.5072,4.473,4.4567,4.4567,4.4567,4.4567,4.4567,4.4567,4.4567,4.4567,4.4553,4.4567,4.4567,4.4567,4.4468,4.4176,4.3928,4.4021,4.3839,4.3527,4.358,4.3687,4.3643,4.3598,4.3598,4.3598,4.3598,4.3598,4.3598,4.3598,4.3598,4.3598,4.3598,4.3583,4.355,4.3598,4.3598,4.3367,4.3083,4.2686,4.2984,4.3035,4.3168,4.3532,4.3524,4.3446,4.3371,4.3328,4.3174,4.3036,4.2975,4.2992,4.2929,4.2929,4.3021,4.3082,4.3489,4.3637,4.3751,4.4042,4.4301,4.4398,4.4412,4.4451,4.4405,4.41,4.3894,4.3794,4.4155,4.4591,4.5014,4.5459,4.5812,4.6135,4.6525,4.7003,4.7216,4.7346,4.7275,4.7489,4.8448,4.9448,5.0092,5.0374,5.0504,5.0676,5.1086,5.096,5.0481,5.0462,5.0739,4.9996,4.9867,4.9921,5.0199,5.0803,5.1248,5.1142,5.1281,5.1885,4.7789,4.7927,4.7927,4.8031,4.8134,4.8169,4.8203,4.8169,4.8203,4.805,4.7731,4.7654,4.7102,4.6343,4.6005,4.5696,4.5021,4.4973,4.4871,4.4838,4.4635,4.4567,4.4567,4.4567,4.4567,4.4567,4.4567,4.4567,4.4567,4.4553,4.4497,4.433,4.4321,4.4212,4.401,4.3904,4.382,4.3717,4.3643,4.3643,4.3613,4.3598,4.3598,4.3598,4.3598,4.3598,4.3598,4.3598,4.3598,4.3598,4.3598,4.3598,4.3598,4.3598,4.3598,4.3598,4.3598,4.3598,4.3598,4.3598,4.3553,4.3479,4.3464,4.3373,4.3363,4.3399,4.3515,4.3434,4.3679,4.3793,4.3988,4.422,4.4483,4.4646,4.5135,4.5625,4.5522,4.5516,4.555,4.535,4.4926,4.5096,4.5433,4.5615,4.6253,4.6678,4.7121,4.7199,4.7458,4.751,4.7856,4.8164,4.8283,4.8152,4.8556,4.9494,5.0498,5.1441,5.1454,5.1439,5.1548,5.1713,5.1619,5.1686,5.2076,5.215,5.1082,5.0394,5.0978,5.1443,5.1777,5.1934,5.192,5.2336,5.2974,4.81,4.8672,4.8672,4.9065,4.9617,4.9617,4.9686,4.9651,4.9582,4.922,4.8486,4.8423,4.7903,4.7043,4.6699,4.6593,4.6327,4.5838,4.5568,4.55,4.5074,4.4838,4.4668,4.4567,4.4838,4.4905,4.4804,4.4567,4.475,4.475,4.4567,4.4511,4.4398,4.425,4.4212,4.4112,4.3996,4.3898,4.3868,4.3795,4.3643,4.3613,4.3598,4.3598,4.3598,4.3598,4.3598,4.3598,4.3598,4.3598,4.3598,4.3598,4.3598,4.3598,4.3598,4.3598,4.3598,4.3598,4.3598,4.3598,4.3598,4.3553,4.3602,4.3553,4.3821,4.4185,4.4449,4.4543,4.4991,4.5191,4.5143,4.5472,4.5586,4.5637,4.5835,4.5966,4.5996,4.6675,4.6675,4.6881,4.6675,4.7237,4.7731,4.7817,4.7954,4.839,4.8703,4.8671,4.8696,4.8663,4.8746,4.9043,4.9471,4.9376,4.9567,5.0521,5.1299,5.2408,5.2425,5.229,5.2395,5.2548,5.3076,5.3255,5.3534,5.3209,5.2085,5.1777,5.2344,5.2714,5.3009,5.2952,5.2821,5.3378,5.4011,4.9203,4.9479,4.9479,4.9651,4.9962,4.9996,4.9996,4.9996,4.9996,4.9795,4.9427,4.9392,4.8786,4.7861,4.7228,4.684,4.6747,4.6447,4.6312,4.6312,4.5954,4.5785,4.5887,4.5853,4.5853,4.5751,4.5853,4.5954,4.565,4.4987,4.4601,4.4635,4.4564,4.4412,4.449,4.4255,4.414,4.401,4.3908,4.3868,4.378,4.3658,4.3598,4.3598,4.3598,4.3598,4.3598,4.3598,4.3598,4.3598,4.3598,4.3598,4.3598,4.3598,4.3598,4.3598,4.3598,4.3598,4.3598,4.3631,4.3664,4.3779,4.3977,4.4423,4.4754,4.5086,4.5333,4.5317,4.5582,4.583,4.5996,4.6228,4.6378,4.6493,4.669,4.6872,4.7049,4.751,4.7904,4.8201,4.8509,4.9013,4.9341,4.9107,4.9004,4.9076,4.9277,4.9231,4.9387,4.9578,4.9721,4.9947,5.0375,5.0744,5.0975,5.1514,5.1858,5.2672,5.2933,5.2915,5.3113,5.3437,5.3708,5.3831,5.372,5.3302,5.2828,5.2875,5.3135,5.3699,5.4277,5.3987,5.3766,5.4284,5.4847,4.9996,4.9996,4.9996,4.9996,4.9996,4.9996,4.9996,4.9996,4.9996,4.9996,4.9996,4.9884,4.9428,4.8744,4.7992,4.766,4.7469,4.7187,4.709,4.7056,4.6887,4.6718,4.6616,4.6684,4.6684,4.6786,4.6583,4.6583,4.636,4.5853,4.5311,4.5142,4.5365,4.5187,4.5033,4.5024,4.4985,4.4524,4.4392,4.419,4.3901,4.3765,4.3658,4.3613,4.3598,4.3598,4.3598,4.3598,4.3598,4.3598,4.3598,4.3598,4.3598,4.3598,4.3598,4.3664,4.3764,4.3992,4.3992,4.3977,4.3878,4.4077,4.4522,4.5167,4.5598,4.5881,4.6079,4.6079,4.6411,4.6411,4.6477,4.6941,4.7073,4.7369,4.7682,4.7964,4.8258,4.8557,4.8907,4.9217,4.9695,5.0452,5.0587,5.0246,5.0049,4.9932,4.9851,4.9828,5.0054,5.0375,5.0554,5.0744,5.0959,5.1364,5.1643,5.2042,5.249,5.3061,5.3351,5.3463,5.3622,5.3647,5.3765,5.385,5.4008,5.4205,5.4131,5.401,5.3889,5.4242,5.4538,5.4692,5.4775,5.5273,5.5895,4.9996,4.9996,4.9996,4.9996,4.9996,4.9996,4.9996,4.9996,4.9996,4.9996,4.9982,4.9811,4.9703,4.9448,4.9089,4.8855,4.8912,4.8184,4.7917,4.7597,4.7225,4.709,4.709,4.709,4.6989,4.6989,4.7124,4.7056,4.6853,4.6969,4.6665,4.6631,4.6394,4.6515,4.6418,4.6152,4.5891,4.5442,4.5209,4.4741,4.4338,4.4083,4.3961,4.3775,4.3679,4.3598,4.3631,4.3797,4.3896,4.3896,4.3929,4.3929,4.4011,4.3977,4.4011,4.4077,4.4375,4.4589,4.4622,4.4622,4.4637,4.4836,4.5251,4.5814,4.6179,4.6576,4.6775,4.6874,4.7173,4.7504,4.7669,4.7885,4.7865,4.7995,4.8221,4.8476,4.8873,4.9447,4.9784,5.0215,5.0681,5.1184,5.1405,5.1002,5.0861,5.0754,5.0802,5.078,5.0959,5.1208,5.1315,5.1458,5.1494,5.1674,5.1833,5.2402,5.3305,5.3928,5.4293,5.4165,5.4078,5.4073,5.4484,5.455,5.4885,5.5174,5.538,5.5044,5.4763,5.4693,5.489,5.5558,5.5955,5.6343,5.711,5.0306,5.0011,4.9996,4.9996,4.9996,4.9996,4.9996,4.9996,4.9996,4.9996,4.9996,4.9903,4.983,4.9679,4.959,4.9381,4.918,4.8916,4.8655,4.8526,4.8274,4.8173,4.8139,4.8071,4.8173,4.8105,4.8105,4.8139,4.8206,4.8003,4.8105,4.797,4.7342,4.6853,4.6786,4.6921,4.6606,4.6378,4.6111,4.5742,4.5615,4.532,4.5215,4.5154,4.4968,4.4953,4.4986,4.4971,4.4938,4.4905,4.4887,4.4854,4.4821,4.4821,4.4821,4.4854,4.5185,4.5317,4.5366,4.5417,4.5565,4.6013,4.6344,4.6609,4.6941,4.7404,4.7537,4.7653,4.7819,4.81,4.8017,4.8243,4.8432,4.8497,4.8754,4.9148,4.9607,5.0285,5.069,5.1094,5.1189,5.1441,5.1582,5.1624,5.1601,5.1601,5.1672,5.1744,5.1922,5.1958,5.2065,5.2029,5.2029,5.2593,5.2822,5.351,5.4268,5.4779,5.5268,5.5114,5.5005,5.5528,5.5818,5.5772,5.5753,5.6117,5.6182,5.5865,5.5796,5.6023,5.6433,5.7009,5.7332,5.7505,5.8142,5.0757,5.0228,5.0249,5.0135,5.0011,4.9996,4.9996,4.9996,4.9996,4.9996,4.9996,4.9996,4.9952,4.9816,4.9693,4.9605,4.9411,4.9286,4.9229,4.9085,4.9006,4.9061,4.9065,4.8981,4.8815,4.9018,4.9018,4.8917,4.8849,4.8984,4.8883,4.8545,4.8071,4.7665,4.753,4.7428,4.7361,4.7128,4.7035,4.6679,4.6518,4.6301,4.6134,4.6054,4.5834,4.5757,4.5693,4.5645,4.5631,4.5664,4.5697,4.5731,4.5764,4.5797,4.583,4.5847,4.598,4.6113,4.6128,4.6194,4.6444,4.7007,4.7173,4.7504,4.7835,4.8001,4.7901,4.7968,4.8133,4.8332,4.8415,4.9007,4.9512,4.9793,5.0366,5.0763,5.1045,5.1527,5.1752,5.1991,5.213,5.2397,5.2523,5.2671,5.2483,5.2399,5.2292,5.2457,5.2801,5.2801,5.2743,5.2671,5.2529,5.3243,5.3995,5.4803,5.5539,5.5936,5.6274,5.6191,5.6248,5.6697,5.6781,5.6526,5.6617,5.7075,5.7271,5.7282,5.7404,5.7527,5.7839,5.8031,5.8571,5.8751,5.9061,5.1292,5.0803,5.0762,5.0467,5.0048,4.9976,4.9996,4.9996,4.9996,4.9996,4.9996,4.9996,4.9996,4.9918,4.9816,4.9679,4.9619,4.9515,4.9475,4.9381,4.926,4.9214,4.9153,4.9107,4.9031,4.9034,4.9018,4.9018,4.9018,4.9018,4.9018,4.9018,4.8714,4.8646,4.8883,4.8917,4.8578,4.7988,4.7872,4.7425,4.6997,4.6821,4.6749,4.6675,4.657,4.6511,4.6495,4.6371,4.6324,4.6308,4.6228,4.6228,4.6194,4.6161,4.6128,4.6095,4.6576,4.6841,4.6874,4.6874,4.7305,4.7703,4.7736,4.7934,4.8001,4.8067,4.8266,4.8531,4.8796,4.9044,4.951,5.0074,5.0599,5.1172,5.1765,5.2201,5.2439,5.2741,5.2974,5.2861,5.3309,5.3762,5.3806,5.3813,5.3482,5.3281,5.2983,5.3161,5.3567,5.3593,5.3488,5.3343,5.3238,5.4013,5.4909,5.6047,5.6782,5.716,5.7389,5.7379,5.7258,5.7397,5.7375,5.7218,5.7601,5.8192,5.8592,5.8907,5.888,5.8814,5.8585,5.8792,5.9403,5.9871,6.0069,5.1799,5.1318,5.0951,5.0716,5.0481,5.012,4.9996,4.9996,4.9996,4.9996,4.9996,4.9996,4.9996,4.9982,4.9952,4.983,4.9708,4.9679,4.9605,4.9486,4.9411,4.9396,4.9335,4.9229,4.9123,4.9092,4.9046,4.9034,4.9018,4.9018,4.9018,4.9018,4.9018,4.9018,4.8984,4.9018,4.8815,4.8665,4.8597,4.848,4.8183,4.8023,4.7913,4.7851,4.7678,4.755,4.755,4.7311,4.7216,4.72,4.7152,4.7154,4.7154,4.7138,4.7172,4.7222,4.7619,4.7603,4.7802,4.7968,4.8166,4.8216,4.8166,4.8365,4.863,4.873,4.8995,4.9309,4.9625,4.9959,5.0475,5.098,5.1558,5.2299,5.2857,5.3324,5.367,5.3983,5.418,5.3789,5.3913,5.4219,5.4369,5.4672,5.4555,5.4486,5.4284,5.4082,5.4346,5.4312,5.4171,5.4082,5.4122,5.4858,5.5777,5.7069,5.7883,5.8202,5.8568,5.8801,5.864,5.8291,5.8429,5.8525,5.8907,5.9298,5.9412,5.9555,5.9993,6.0038,5.987,5.9796,6.0215,6.0572,6.0726,5.2361,5.1836,5.1488,5.1267,5.0991,5.0334,4.9996,4.9996,4.9996,4.9996,4.9996,4.9996,4.9996,4.9996,4.9982,4.9967,4.9816,4.9781,4.9767,4.9668,4.9575,4.956,4.95,4.9396,4.932,4.9245,4.9153,4.9077,4.9061,4.9034,4.9018,4.9018,4.9052,4.9221,4.9255,4.9255,4.8984,4.8917,4.8883,4.8917,4.8803,4.8824,4.8811,4.8715,4.8621,4.8527,4.8497,4.8436,4.8308,4.8276,4.8211,4.818,4.818,4.818,4.8147,4.8196,4.8446,4.8495,4.8728,4.9244,4.9377,4.9177,4.8862,4.8995,4.9309,4.9243,4.9558,4.9956,5.0508,5.0961,5.1391,5.1941,5.2946,5.3725,5.419,5.4672,5.4906,5.5241,5.5334,5.4892,5.4824,5.4939,5.504,5.5317,5.5535,5.5587,5.5639,5.54,5.5222,5.5262,5.5277,5.5265,5.5362,5.6067,5.7059,5.8283,5.8944,5.9253,5.9429,5.9528,5.9534,5.9145,5.9462,5.9702,5.9631,5.9622,5.982,6.0082,6.0457,6.0937,6.1295,6.1219,6.1181,6.1234,6.135,5.2908,5.2442,5.2408,5.2042,5.1488,5.0592,5.0106,5.0054,5.0011,4.9996,4.9996,4.9996,4.9996,4.9996,4.9996,4.9996,4.9982,4.9982,4.9967,4.9903,4.9786,4.9757,4.9664,4.9594,4.9486,4.9426,4.932,4.9199,4.9184,4.9283,4.9221,4.9187,4.9375,4.9695,4.983,4.9729,4.9458,4.9526,4.9526,4.9526,4.9528,4.9375,4.931,4.9245,4.9066,4.8935,4.8805,4.8644,4.8531,4.8499,4.8483,4.8468,4.8483,4.8483,4.8499,4.8718,4.9221,4.9473,4.969,5.0259,5.0576,5.0426,5.0543,5.039,5.0172,5.0074,5.0358,5.0961,5.1648,5.1982,5.2362,5.3523,5.468,5.5217,5.5716,5.6002,5.6187,5.6331,5.6425,5.6334,5.6325,5.6342,5.626,5.6443,5.623,5.6415,5.6443,5.6507,5.6438,5.6672,5.6734,5.6891,5.706,5.7408,5.8333,5.914,5.9388,5.9536,5.9581,5.9668,5.9748,5.9782,5.977,5.9803,5.9861,5.9918,5.995,6.0295,6.0815,6.1337,6.1576,6.206,6.1853,6.1814,6.1814,5.3103,5.2952,5.2545,5.2315,5.2066,5.1424,5.0937,5.0564,5.0192,4.9996,4.9996,4.9996,5.0068,4.9996,4.9996,4.9996,4.9996,4.9996,4.9996,4.9967,4.9903,4.9889,4.9845,4.9757,4.9649,4.959,4.9486,4.9419,4.9384,4.9517,4.9794,4.9846,5.0184,5.059,5.071,5.066,5.0592,5.0491,5.0457,5.0356,5.0389,5.0356,5.0168,4.9866,4.9749,4.9549,4.9198,4.8969,4.8857,4.8807,4.863,4.8549,4.8499,4.8533,4.8633,4.9287,4.989,5.0408,5.0509,5.1095,5.1548,5.1816,5.2202,5.2085,5.1631,5.1228,5.1413,5.22,5.3056,5.3589,5.391,5.479,5.5607,5.6028,5.6361,5.6519,5.6653,5.6697,5.6776,5.6803,5.6878,5.6881,5.6907,5.6897,5.6719,5.7002,5.7176,5.7264,5.7401,5.7582,5.7807,5.7932,5.8197,5.8392,5.8723,5.9443,5.9604,5.9765,5.9753,5.9778,5.9811,5.9874,5.9861,5.9877,5.9893,5.9893,5.9902,6.0363,6.0808,6.0947,6.1224,6.1978,6.2515,6.2394,6.2394,5.3214,5.3135,5.285,5.2728,5.2602,5.2162,5.1701,5.1347,5.0857,5.0647,5.0585,5.0425,5.0334,5.0306,5.0106,4.9996,4.9996,4.9996,4.9996,4.9996,4.9996,4.9982,4.9918,4.9874,4.9845,4.9737,4.9718,4.9736,4.9926,5.0398,5.0778,5.0701,5.1194,5.1401,5.1538,5.1607,5.181,5.1708,5.1573,5.1302,5.1269,5.1269,5.0897,5.0676,5.0541,5.0236,4.9916,4.9704,4.9688,4.9722,4.9595,4.9579,4.9597,4.963,4.968,5.0353,5.0941,5.1294,5.1496,5.2085,5.2488,5.294,5.3588,5.3649,5.3172,5.2671,5.312,5.3748,5.4663,5.5379,5.5573,5.583,5.6174,5.6546,5.6667,5.6773,5.6852,5.6881,5.692,5.6946,5.6972,5.701,5.7036,5.7085,5.7087,5.7138,5.7301,5.751,5.7713,5.7966,5.8234,5.8508,5.8831,5.914,5.9481,5.9604,5.9736,5.9857,5.9874,5.9861,5.9893,5.9893,5.9885,5.9885,5.9893,5.9893,5.9902,6.0254,6.0623,6.0819,6.1235,6.2104,6.2665,6.2743,6.282,5.3214,5.3214,5.3214,5.3135,5.3114,5.2672,5.2431,5.2408,5.1945,5.1651,5.1462,5.1035,5.087,5.0824,5.0676,5.0381,5.0373,5.0345,5.023,5.0025,4.9996,4.9996,4.9996,4.9996,4.9918,4.9889,5.0037,5.0345,5.1001,5.1465,5.1686,5.1607,5.1779,5.2056,5.235,5.2401,5.2604,5.279,5.2249,5.1742,5.1641,5.1505,5.1336,5.1302,5.1269,5.1167,5.1133,5.1133,5.1201,5.1167,5.1117,5.1,5.0966,5.1119,5.1186,5.1457,5.1947,5.2348,5.2634,5.3125,5.3739,5.4148,5.4548,5.4818,5.4526,5.3894,5.4206,5.4884,5.5731,5.6089,5.6289,5.6706,5.7065,5.7365,5.7552,5.7677,5.7811,5.7877,5.7929,5.7833,5.7593,5.7655,5.7836,5.7957,5.7849,5.7574,5.7606,5.791,5.8176,5.8474,5.8777,5.9049,5.9253,5.9516,5.9676,5.9778,5.9836,5.9885,5.9893,5.9893,5.9893,5.9893,5.9893,5.9893,5.9893,5.9893,5.9974,6.0297,6.0648,6.1025,6.1549,6.2369,6.2743,6.2704,6.3052,5.3214,5.3214,5.3214,5.3214,5.3167,5.306,5.3006,5.3006,5.2872,5.235,5.1676,5.1475,5.1398,5.137,5.1688,5.1422,5.078,5.0934,5.0787,5.0379,5.0112,5.0106,5.0045,5.0109,5.008,5.0168,5.0504,5.1152,5.1764,5.2295,5.2584,5.2458,5.2696,5.3106,5.3077,5.3145,5.328,5.345,5.3095,5.2655,5.2689,5.2773,5.2773,5.23,5.2029,5.1742,5.1573,5.1302,5.1269,5.1201,5.1201,5.1201,5.1201,5.1742,5.1995,5.2164,5.2805,5.3305,5.3731,5.4063,5.4482,5.5119,5.5505,5.5837,5.573,5.5144,5.5204,5.5992,5.6582,5.6845,5.711,5.7572,5.7949,5.8205,5.8448,5.8592,5.8773,5.8825,5.8914,5.8673,5.8347,5.8456,5.8673,5.8673,5.8601,5.8597,5.8603,5.876,5.8965,5.9213,5.9482,5.9675,5.9594,5.9765,5.9857,5.9899,5.9885,5.9893,5.9893,5.9893,5.9931,5.9893,5.9893,5.9893,5.9893,5.9893,6.0013,6.0244,6.0641,6.1007,6.1272,6.1842,6.2109,6.2124,6.2781,5.3251,5.3251,5.3235,5.2994,5.2784,5.3031,5.3214,5.3214,5.3214,5.2861,5.2315,5.2102,5.1934,5.1861,5.2226,5.2121,5.1321,5.1591,5.1352,5.0846,5.046,5.0418,5.0389,5.0446,5.0543,5.0686,5.1651,5.2398,5.2685,5.3257,5.356,5.3367,5.3762,5.38,5.3635,5.3601,5.3551,5.3484,5.3518,5.3501,5.3501,5.3416,5.3348,5.2875,5.2739,5.2486,5.2452,5.2216,5.2216,5.2249,5.2317,5.2317,5.2418,5.2655,5.2955,5.327,5.3703,5.4155,5.461,5.4968,5.5179,5.5836,5.651,5.6799,5.733,5.6856,5.6928,5.7634,5.8466,5.8832,5.8543,5.8763,5.8849,5.9006,5.9092,5.92,5.9273,5.9286,5.9312,5.924,5.9035,5.9035,5.9216,5.9216,5.9157,5.9235,5.932,5.9757,5.9934,6.0075,6.0266,6.0364,6.0315,5.9984,5.9899,5.9877,5.9893,5.9893,6.0045,6.0007,6.0045,5.9969,5.9893,6.0083,6.0121,5.9893,6.003,6.0414,6.0466,6.0693,6.0875,6.1093,6.1413,6.193,6.2525,5.306,5.3003,5.302,5.2685,5.216,5.2847,5.3214,5.3214,5.3214,5.3214,5.306,5.2672,5.2511,5.2326,5.2222,5.1908,5.1892,5.2178,5.1949,5.1408,5.1083,5.114,5.1198,5.1177,5.1315,5.178,5.2632,5.3149,5.3532,5.4002,5.4198,5.4205,5.4143,5.4062,5.3833,5.3701,5.3634,5.3568,5.3517,5.3518,5.3501,5.3501,5.3433,5.3467,5.3501,5.3501,5.3467,5.3467,5.3433,5.3365,5.3264,5.3329,5.3395,5.3529,5.3919,5.4208,5.4428,5.4887,5.5358,5.5725,5.612,5.6627,5.7308,5.7927,5.8458,5.873,5.8753,5.9128,5.9964,6.0086,5.976,5.971,5.9747,5.9819,5.9855,5.9964,5.9964,5.9964,5.9964,5.9928,5.9855,5.9819,5.9931,5.9931,5.9927,5.9979,6.0236,6.0647,6.0955,6.1087,6.1206,6.1227,6.114,6.0762,6.031,6.0386,6.0576,6.0538,6.0689,6.0424,6.031,6.0681,6.0803,6.0576,6.05,6.0576,6.0559,6.0837,6.0776,6.0891,6.1268,6.1751,6.2085,6.252,6.2616,5.2062,5.142,5.2016,5.2169,5.2097,5.2858,5.3214,5.3214,5.3214,5.3214,5.3146,5.3161,5.3049,5.3075,5.369,5.3383,5.2376,5.2701,5.2281,5.1683,5.1681,5.1963,5.2183,5.2212,5.2361,5.2939,5.351,5.3713,5.4164,5.4432,5.4431,5.4285,5.4239,5.4127,5.3964,5.3849,5.3734,5.3651,5.3601,5.3534,5.3551,5.3534,5.3501,5.3501,5.3501,5.3501,5.3501,5.3501,5.3501,5.3501,5.3601,5.3899,5.4127,5.4351,5.4733,5.5253,5.5449,5.5909,5.6397,5.6879,5.7369,5.7823,5.8493,5.9087,5.9552,5.9987,6.0095,6.0204,6.0629,6.0303,6.0109,6.0435,6.0579,6.076,6.0869,6.1123,6.1304,6.1304,6.1267,6.1086,6.0869,6.1031,6.1329,6.1303,6.1293,6.1422,6.1746,6.2109,6.214,6.2196,6.2183,6.2205,6.2146,6.1726,6.141,6.1553,6.1667,6.1553,6.1448,6.1326,6.1439,6.1894,6.1894,6.1439,6.1553,6.1772,6.1706,6.1194,6.1853,6.2087,6.2304,6.2646,6.2936,6.3226,6.3409]}]]